<?xml version="1.0" encoding="ISO-8859-1" standalone="yes"?>
<gpx
  xmlns="http://www.topografix.com/GPX/1/1"
  version="1.1" creator="LoadMyTracks/073 http://www.cluetrust.com/LoadMyTracks.html"
  xmlns:xsi="http://www.w3.org/2001/XMLSchema-instance"
  xmlns:gpxdata="http://www.cluetrust.com/XML/GPXDATA/1/0"
  xmlns:geocache="http://www.groundspeak.com/cache/1/0"
  xsi:schemaLocation="http://www.topografix.com/GPX/1/1 http://www.topografix.com/GPX/1/1/gpx.xsd
http://www.cluetrust.com/XML/GPXDATA/1/0 http://www.cluetrust.com/Schemas/gpxdata10.xsd">
<trk>
<name>2010/7/7 8:54:33 GMT</name>
<trkseg>
	<trkpt lat="51.98851" lon="-1.580785"><ele>118.000000</ele><time>2010-07-07T08:54:33Z</time></trkpt>
	<trkpt lat="51.98850667" lon="-1.580785"><ele>118.000000</ele><time>2010-07-07T08:54:39Z</time></trkpt>
	<trkpt lat="51.98850667" lon="-1.580785"><ele>118.000000</ele><time>2010-07-07T08:54:44Z</time></trkpt>
	<trkpt lat="51.988505" lon="-1.580785"><ele>118.000000</ele><time>2010-07-07T08:54:49Z</time></trkpt>
	<trkpt lat="51.98850333" lon="-1.580785"><ele>118.000000</ele><time>2010-07-07T08:54:54Z</time></trkpt>
	<trkpt lat="51.98850333" lon="-1.580785"><ele>118.000000</ele><time>2010-07-07T08:54:59Z</time></trkpt>
	<trkpt lat="51.98850167" lon="-1.580783333"><ele>118.000000</ele><time>2010-07-07T08:55:04Z</time></trkpt>
	<trkpt lat="51.9885" lon="-1.580781667"><ele>118.000000</ele><time>2010-07-07T08:55:09Z</time></trkpt>
	<trkpt lat="51.9885" lon="-1.58078"><ele>118.000000</ele><time>2010-07-07T08:55:14Z</time></trkpt>
	<trkpt lat="51.98849833" lon="-1.580778333"><ele>118.000000</ele><time>2010-07-07T08:55:19Z</time></trkpt>
	<trkpt lat="51.98849833" lon="-1.580778333"><ele>118.000000</ele><time>2010-07-07T08:55:24Z</time></trkpt>
	<trkpt lat="51.98849667" lon="-1.580776667"><ele>118.000000</ele><time>2010-07-07T08:55:29Z</time></trkpt>
	<trkpt lat="51.98849667" lon="-1.580775"><ele>118.000000</ele><time>2010-07-07T08:55:34Z</time></trkpt>
	<trkpt lat="51.988495" lon="-1.580785"><ele>119.000000</ele><time>2010-07-07T08:55:39Z</time></trkpt>
	<trkpt lat="51.988495" lon="-1.580781667"><ele>119.000000</ele><time>2010-07-07T08:55:44Z</time></trkpt>
	<trkpt lat="51.988495" lon="-1.580781667"><ele>119.000000</ele><time>2010-07-07T08:55:49Z</time></trkpt>
	<trkpt lat="51.98848833" lon="-1.580768333"><ele>118.000000</ele><time>2010-07-07T08:55:54Z</time></trkpt>
	<trkpt lat="51.98849167" lon="-1.580755"><ele>119.000000</ele><time>2010-07-07T08:55:59Z</time></trkpt>
	<trkpt lat="51.988495" lon="-1.580746667"><ele>120.000000</ele><time>2010-07-07T08:56:04Z</time></trkpt>
	<trkpt lat="51.98850167" lon="-1.580743333"><ele>120.000000</ele><time>2010-07-07T08:56:09Z</time></trkpt>
	<trkpt lat="51.988505" lon="-1.58074"><ele>120.000000</ele><time>2010-07-07T08:56:14Z</time></trkpt>
	<trkpt lat="51.98850667" lon="-1.58074"><ele>120.000000</ele><time>2010-07-07T08:56:19Z</time></trkpt>
	<trkpt lat="51.98851" lon="-1.580738333"><ele>120.000000</ele><time>2010-07-07T08:56:24Z</time></trkpt>
	<trkpt lat="51.98851167" lon="-1.580738333"><ele>120.000000</ele><time>2010-07-07T08:56:29Z</time></trkpt>
	<trkpt lat="51.988515" lon="-1.580736667"><ele>120.000000</ele><time>2010-07-07T08:56:34Z</time></trkpt>
	<trkpt lat="51.98851667" lon="-1.580736667"><ele>120.000000</ele><time>2010-07-07T08:56:39Z</time></trkpt>
	<trkpt lat="51.98852" lon="-1.580735"><ele>120.000000</ele><time>2010-07-07T08:56:44Z</time></trkpt>
	<trkpt lat="51.98852167" lon="-1.580735"><ele>121.000000</ele><time>2010-07-07T08:56:49Z</time></trkpt>
	<trkpt lat="51.98852167" lon="-1.580733333"><ele>121.000000</ele><time>2010-07-07T08:56:54Z</time></trkpt>
	<trkpt lat="51.988525" lon="-1.580731667"><ele>121.000000</ele><time>2010-07-07T08:56:59Z</time></trkpt>
	<trkpt lat="51.988525" lon="-1.580728333"><ele>121.000000</ele><time>2010-07-07T08:57:04Z</time></trkpt>
	<trkpt lat="51.98852667" lon="-1.580728333"><ele>121.000000</ele><time>2010-07-07T08:57:09Z</time></trkpt>
	<trkpt lat="51.98852667" lon="-1.580728333"><ele>121.000000</ele><time>2010-07-07T08:57:14Z</time></trkpt>
	<trkpt lat="51.98852667" lon="-1.580726667"><ele>122.000000</ele><time>2010-07-07T08:57:19Z</time></trkpt>
	<trkpt lat="51.98852833" lon="-1.580725"><ele>122.000000</ele><time>2010-07-07T08:57:24Z</time></trkpt>
	<trkpt lat="51.98852833" lon="-1.580723333"><ele>122.000000</ele><time>2010-07-07T08:57:29Z</time></trkpt>
	<trkpt lat="51.98852833" lon="-1.580721667"><ele>122.000000</ele><time>2010-07-07T08:57:34Z</time></trkpt>
	<trkpt lat="51.98852833" lon="-1.58072"><ele>122.000000</ele><time>2010-07-07T08:57:39Z</time></trkpt>
	<trkpt lat="51.98852667" lon="-1.58072"><ele>122.000000</ele><time>2010-07-07T08:57:44Z</time></trkpt>
	<trkpt lat="51.98852833" lon="-1.580718333"><ele>122.000000</ele><time>2010-07-07T08:57:49Z</time></trkpt>
	<trkpt lat="51.98853" lon="-1.580723333"><ele>122.000000</ele><time>2010-07-07T08:57:54Z</time></trkpt>
	<trkpt lat="51.98853333" lon="-1.580725"><ele>122.000000</ele><time>2010-07-07T08:57:59Z</time></trkpt>
	<trkpt lat="51.98853333" lon="-1.580728333"><ele>122.000000</ele><time>2010-07-07T08:58:04Z</time></trkpt>
	<trkpt lat="51.98853333" lon="-1.580731667"><ele>121.000000</ele><time>2010-07-07T08:58:09Z</time></trkpt>
	<trkpt lat="51.98853333" lon="-1.580733333"><ele>121.000000</ele><time>2010-07-07T08:58:14Z</time></trkpt>
	<trkpt lat="51.98853333" lon="-1.580733333"><ele>121.000000</ele><time>2010-07-07T08:58:19Z</time></trkpt>
	<trkpt lat="51.98853167" lon="-1.580733333"><ele>121.000000</ele><time>2010-07-07T08:58:24Z</time></trkpt>
	<trkpt lat="51.98853167" lon="-1.580731667"><ele>121.000000</ele><time>2010-07-07T08:58:29Z</time></trkpt>
	<trkpt lat="51.98853167" lon="-1.580731667"><ele>121.000000</ele><time>2010-07-07T08:58:34Z</time></trkpt>
	<trkpt lat="51.98853167" lon="-1.580728333"><ele>121.000000</ele><time>2010-07-07T08:58:39Z</time></trkpt>
	<trkpt lat="51.98853167" lon="-1.580728333"><ele>121.000000</ele><time>2010-07-07T08:58:44Z</time></trkpt>
	<trkpt lat="51.98853167" lon="-1.580728333"><ele>121.000000</ele><time>2010-07-07T08:58:49Z</time></trkpt>
	<trkpt lat="51.98853167" lon="-1.580728333"><ele>121.000000</ele><time>2010-07-07T08:58:54Z</time></trkpt>
	<trkpt lat="51.98853167" lon="-1.580728333"><ele>121.000000</ele><time>2010-07-07T08:58:59Z</time></trkpt>
	<trkpt lat="51.98853333" lon="-1.580728333"><ele>121.000000</ele><time>2010-07-07T08:59:04Z</time></trkpt>
	<trkpt lat="51.98853333" lon="-1.580726667"><ele>121.000000</ele><time>2010-07-07T08:59:09Z</time></trkpt>
	<trkpt lat="51.98853167" lon="-1.580726667"><ele>121.000000</ele><time>2010-07-07T08:59:14Z</time></trkpt>
	<trkpt lat="51.98853167" lon="-1.580726667"><ele>121.000000</ele><time>2010-07-07T08:59:19Z</time></trkpt>
	<trkpt lat="51.98853167" lon="-1.580726667"><ele>121.000000</ele><time>2010-07-07T08:59:24Z</time></trkpt>
	<trkpt lat="51.98853167" lon="-1.580725"><ele>121.000000</ele><time>2010-07-07T08:59:29Z</time></trkpt>
	<trkpt lat="51.98853167" lon="-1.580725"><ele>121.000000</ele><time>2010-07-07T08:59:34Z</time></trkpt>
	<trkpt lat="51.98853167" lon="-1.580725"><ele>121.000000</ele><time>2010-07-07T08:59:39Z</time></trkpt>
	<trkpt lat="51.98853" lon="-1.580723333"><ele>121.000000</ele><time>2010-07-07T08:59:44Z</time></trkpt>
	<trkpt lat="51.98853" lon="-1.580723333"><ele>121.000000</ele><time>2010-07-07T08:59:49Z</time></trkpt>
	<trkpt lat="51.98853" lon="-1.580721667"><ele>121.000000</ele><time>2010-07-07T08:59:54Z</time></trkpt>
	<trkpt lat="51.98853" lon="-1.580721667"><ele>121.000000</ele><time>2010-07-07T08:59:59Z</time></trkpt>
	<trkpt lat="51.98853167" lon="-1.58072"><ele>121.000000</ele><time>2010-07-07T09:00:04Z</time></trkpt>
	<trkpt lat="51.98853167" lon="-1.580718333"><ele>121.000000</ele><time>2010-07-07T09:00:09Z</time></trkpt>
	<trkpt lat="51.98853333" lon="-1.580718333"><ele>120.000000</ele><time>2010-07-07T09:00:14Z</time></trkpt>
	<trkpt lat="51.98853333" lon="-1.580716667"><ele>121.000000</ele><time>2010-07-07T09:00:19Z</time></trkpt>
	<trkpt lat="51.988535" lon="-1.580716667"><ele>121.000000</ele><time>2010-07-07T09:00:24Z</time></trkpt>
	<trkpt lat="51.98853667" lon="-1.580713333"><ele>121.000000</ele><time>2010-07-07T09:00:29Z</time></trkpt>
	<trkpt lat="51.98853667" lon="-1.580713333"><ele>121.000000</ele><time>2010-07-07T09:00:34Z</time></trkpt>
	<trkpt lat="51.98853667" lon="-1.580713333"><ele>120.000000</ele><time>2010-07-07T09:00:39Z</time></trkpt>
	<trkpt lat="51.98854" lon="-1.580713333"><ele>120.000000</ele><time>2010-07-07T09:00:44Z</time></trkpt>
	<trkpt lat="51.98854" lon="-1.580713333"><ele>120.000000</ele><time>2010-07-07T09:00:49Z</time></trkpt>
	<trkpt lat="51.98854" lon="-1.580713333"><ele>120.000000</ele><time>2010-07-07T09:00:54Z</time></trkpt>
	<trkpt lat="51.98854" lon="-1.580713333"><ele>119.000000</ele><time>2010-07-07T09:00:59Z</time></trkpt>
	<trkpt lat="51.98854" lon="-1.580713333"><ele>119.000000</ele><time>2010-07-07T09:01:04Z</time></trkpt>
	<trkpt lat="51.98854" lon="-1.580711667"><ele>119.000000</ele><time>2010-07-07T09:01:09Z</time></trkpt>
	<trkpt lat="51.98854" lon="-1.580711667"><ele>119.000000</ele><time>2010-07-07T09:01:14Z</time></trkpt>
	<trkpt lat="51.98854167" lon="-1.580711667"><ele>119.000000</ele><time>2010-07-07T09:01:19Z</time></trkpt>
	<trkpt lat="51.98854167" lon="-1.580711667"><ele>119.000000</ele><time>2010-07-07T09:01:24Z</time></trkpt>
	<trkpt lat="51.98854167" lon="-1.580711667"><ele>119.000000</ele><time>2010-07-07T09:01:29Z</time></trkpt>
	<trkpt lat="51.98854167" lon="-1.580711667"><ele>119.000000</ele><time>2010-07-07T09:01:34Z</time></trkpt>
	<trkpt lat="51.98854167" lon="-1.580711667"><ele>119.000000</ele><time>2010-07-07T09:01:39Z</time></trkpt>
	<trkpt lat="51.98854167" lon="-1.580711667"><ele>119.000000</ele><time>2010-07-07T09:01:44Z</time></trkpt>
	<trkpt lat="51.98854333" lon="-1.580711667"><ele>119.000000</ele><time>2010-07-07T09:01:49Z</time></trkpt>
	<trkpt lat="51.98854333" lon="-1.580711667"><ele>119.000000</ele><time>2010-07-07T09:01:54Z</time></trkpt>
	<trkpt lat="51.988545" lon="-1.580713333"><ele>119.000000</ele><time>2010-07-07T09:01:59Z</time></trkpt>
	<trkpt lat="51.98855167" lon="-1.580718333"><ele>120.000000</ele><time>2010-07-07T09:02:04Z</time></trkpt>
	<trkpt lat="51.988555" lon="-1.580721667"><ele>120.000000</ele><time>2010-07-07T09:02:09Z</time></trkpt>
	<trkpt lat="51.98855667" lon="-1.580721667"><ele>121.000000</ele><time>2010-07-07T09:02:14Z</time></trkpt>
	<trkpt lat="51.98855833" lon="-1.580721667"><ele>121.000000</ele><time>2010-07-07T09:02:19Z</time></trkpt>
	<trkpt lat="51.98856" lon="-1.580721667"><ele>121.000000</ele><time>2010-07-07T09:02:24Z</time></trkpt>
	<trkpt lat="51.98855833" lon="-1.58072"><ele>121.000000</ele><time>2010-07-07T09:02:29Z</time></trkpt>
	<trkpt lat="51.98855833" lon="-1.58072"><ele>121.000000</ele><time>2010-07-07T09:02:34Z</time></trkpt>
	<trkpt lat="51.98855833" lon="-1.580718333"><ele>121.000000</ele><time>2010-07-07T09:02:39Z</time></trkpt>
	<trkpt lat="51.98855667" lon="-1.580716667"><ele>121.000000</ele><time>2010-07-07T09:02:44Z</time></trkpt>
	<trkpt lat="51.98855667" lon="-1.580713333"><ele>121.000000</ele><time>2010-07-07T09:02:49Z</time></trkpt>
	<trkpt lat="51.98855667" lon="-1.580713333"><ele>121.000000</ele><time>2010-07-07T09:02:54Z</time></trkpt>
	<trkpt lat="51.98855833" lon="-1.580713333"><ele>121.000000</ele><time>2010-07-07T09:02:59Z</time></trkpt>
	<trkpt lat="51.98856167" lon="-1.580716667"><ele>122.000000</ele><time>2010-07-07T09:03:04Z</time></trkpt>
	<trkpt lat="51.98856333" lon="-1.580718333"><ele>122.000000</ele><time>2010-07-07T09:03:09Z</time></trkpt>
	<trkpt lat="51.988565" lon="-1.580718333"><ele>122.000000</ele><time>2010-07-07T09:03:14Z</time></trkpt>
	<trkpt lat="51.98856667" lon="-1.58072"><ele>122.000000</ele><time>2010-07-07T09:03:19Z</time></trkpt>
	<trkpt lat="51.98856667" lon="-1.58072"><ele>122.000000</ele><time>2010-07-07T09:03:24Z</time></trkpt>
	<trkpt lat="51.98857" lon="-1.580721667"><ele>122.000000</ele><time>2010-07-07T09:03:29Z</time></trkpt>
	<trkpt lat="51.98856667" lon="-1.580721667"><ele>122.000000</ele><time>2010-07-07T09:03:34Z</time></trkpt>
	<trkpt lat="51.98856167" lon="-1.580721667"><ele>122.000000</ele><time>2010-07-07T09:03:39Z</time></trkpt>
	<trkpt lat="51.98855833" lon="-1.580721667"><ele>122.000000</ele><time>2010-07-07T09:03:44Z</time></trkpt>
	<trkpt lat="51.98855667" lon="-1.58072"><ele>122.000000</ele><time>2010-07-07T09:03:49Z</time></trkpt>
	<trkpt lat="51.988555" lon="-1.58072"><ele>121.000000</ele><time>2010-07-07T09:03:54Z</time></trkpt>
	<trkpt lat="51.98855167" lon="-1.58072"><ele>121.000000</ele><time>2010-07-07T09:03:59Z</time></trkpt>
	<trkpt lat="51.98855167" lon="-1.58072"><ele>122.000000</ele><time>2010-07-07T09:04:04Z</time></trkpt>
	<trkpt lat="51.988555" lon="-1.580716667"><ele>122.000000</ele><time>2010-07-07T09:04:09Z</time></trkpt>
	<trkpt lat="51.98856333" lon="-1.580725"><ele>123.000000</ele><time>2010-07-07T09:04:14Z</time></trkpt>
	<trkpt lat="51.98856" lon="-1.580718333"><ele>126.000000</ele><time>2010-07-07T09:04:19Z</time></trkpt>
	<trkpt lat="51.98856167" lon="-1.580725"><ele>129.000000</ele><time>2010-07-07T09:04:24Z</time></trkpt>
	<trkpt lat="51.98855167" lon="-1.580773333"><ele>130.000000</ele><time>2010-07-07T09:04:29Z</time></trkpt>
	<trkpt lat="51.98855167" lon="-1.580783333"><ele>132.000000</ele><time>2010-07-07T09:04:34Z</time></trkpt>
	<trkpt lat="51.98854833" lon="-1.5808"><ele>133.000000</ele><time>2010-07-07T09:04:39Z</time></trkpt>
	<trkpt lat="51.98854833" lon="-1.580813333"><ele>135.000000</ele><time>2010-07-07T09:04:44Z</time></trkpt>
	<trkpt lat="51.98854" lon="-1.580825"><ele>133.000000</ele><time>2010-07-07T09:04:49Z</time></trkpt>
	<trkpt lat="51.98852833" lon="-1.580828333"><ele>132.000000</ele><time>2010-07-07T09:04:54Z</time></trkpt>
	<trkpt lat="51.98852667" lon="-1.580821667"><ele>129.000000</ele><time>2010-07-07T09:04:59Z</time></trkpt>
	<trkpt lat="51.98853167" lon="-1.580805"><ele>128.000000</ele><time>2010-07-07T09:05:04Z</time></trkpt>
	<trkpt lat="51.988535" lon="-1.580803333"><ele>127.000000</ele><time>2010-07-07T09:05:09Z</time></trkpt>
	<trkpt lat="51.98854667" lon="-1.580806667"><ele>126.000000</ele><time>2010-07-07T09:05:14Z</time></trkpt>
	<trkpt lat="51.988545" lon="-1.580808333"><ele>126.000000</ele><time>2010-07-07T09:05:19Z</time></trkpt>
	<trkpt lat="51.98854" lon="-1.580811667"><ele>127.000000</ele><time>2010-07-07T09:05:24Z</time></trkpt>
	<trkpt lat="51.988545" lon="-1.580798333"><ele>127.000000</ele><time>2010-07-07T09:05:29Z</time></trkpt>
	<trkpt lat="51.98854833" lon="-1.580791667"><ele>127.000000</ele><time>2010-07-07T09:05:34Z</time></trkpt>
	<trkpt lat="51.988565" lon="-1.580788333"><ele>128.000000</ele><time>2010-07-07T09:05:39Z</time></trkpt>
	<trkpt lat="51.98857167" lon="-1.580785"><ele>128.000000</ele><time>2010-07-07T09:05:44Z</time></trkpt>
	<trkpt lat="51.98857667" lon="-1.580783333"><ele>129.000000</ele><time>2010-07-07T09:05:49Z</time></trkpt>
	<trkpt lat="51.98857667" lon="-1.580778333"><ele>128.000000</ele><time>2010-07-07T09:05:54Z</time></trkpt>
	<trkpt lat="51.98858" lon="-1.580778333"><ele>128.000000</ele><time>2010-07-07T09:05:59Z</time></trkpt>
	<trkpt lat="51.98857833" lon="-1.580776667"><ele>127.000000</ele><time>2010-07-07T09:06:04Z</time></trkpt>
	<trkpt lat="51.98857167" lon="-1.580771667"><ele>126.000000</ele><time>2010-07-07T09:06:09Z</time></trkpt>
	<trkpt lat="51.98857167" lon="-1.580768333"><ele>126.000000</ele><time>2010-07-07T09:06:14Z</time></trkpt>
	<trkpt lat="51.98856167" lon="-1.580756667"><ele>123.000000</ele><time>2010-07-07T09:06:19Z</time></trkpt>
	<trkpt lat="51.98856" lon="-1.580755"><ele>123.000000</ele><time>2010-07-07T09:06:24Z</time></trkpt>
	<trkpt lat="51.98855167" lon="-1.580756667"><ele>124.000000</ele><time>2010-07-07T09:06:29Z</time></trkpt>
	<trkpt lat="51.98853667" lon="-1.580751667"><ele>121.000000</ele><time>2010-07-07T09:06:34Z</time></trkpt>
	<trkpt lat="51.98852833" lon="-1.580736667"><ele>121.000000</ele><time>2010-07-07T09:06:39Z</time></trkpt>
	<trkpt lat="51.98852167" lon="-1.580723333"><ele>118.000000</ele><time>2010-07-07T09:06:44Z</time></trkpt>
	<trkpt lat="51.98852" lon="-1.58072"><ele>116.000000</ele><time>2010-07-07T09:06:49Z</time></trkpt>
	<trkpt lat="51.98851833" lon="-1.5807"><ele>117.000000</ele><time>2010-07-07T09:06:54Z</time></trkpt>
	<trkpt lat="51.98851667" lon="-1.580711667"><ele>116.000000</ele><time>2010-07-07T09:06:59Z</time></trkpt>
	<trkpt lat="51.98851667" lon="-1.580728333"><ele>114.000000</ele><time>2010-07-07T09:07:04Z</time></trkpt>
	<trkpt lat="51.98852" lon="-1.580726667"><ele>113.000000</ele><time>2010-07-07T09:07:09Z</time></trkpt>
	<trkpt lat="51.98851833" lon="-1.580728333"><ele>114.000000</ele><time>2010-07-07T09:07:14Z</time></trkpt>
	<trkpt lat="51.98851833" lon="-1.580735"><ele>114.000000</ele><time>2010-07-07T09:07:19Z</time></trkpt>
	<trkpt lat="51.98852" lon="-1.580738333"><ele>115.000000</ele><time>2010-07-07T09:07:24Z</time></trkpt>
	<trkpt lat="51.98852167" lon="-1.580733333"><ele>118.000000</ele><time>2010-07-07T09:07:29Z</time></trkpt>
	<trkpt lat="51.98852167" lon="-1.580735"><ele>119.000000</ele><time>2010-07-07T09:07:34Z</time></trkpt>
	<trkpt lat="51.98852" lon="-1.580738333"><ele>120.000000</ele><time>2010-07-07T09:07:39Z</time></trkpt>
	<trkpt lat="51.98851833" lon="-1.580738333"><ele>121.000000</ele><time>2010-07-07T09:07:44Z</time></trkpt>
	<trkpt lat="51.98851667" lon="-1.580738333"><ele>121.000000</ele><time>2010-07-07T09:07:49Z</time></trkpt>
	<trkpt lat="51.988515" lon="-1.58074"><ele>122.000000</ele><time>2010-07-07T09:07:54Z</time></trkpt>
	<trkpt lat="51.98852667" lon="-1.580728333"><ele>121.000000</ele><time>2010-07-07T09:07:59Z</time></trkpt>
	<trkpt lat="51.98853167" lon="-1.580728333"><ele>121.000000</ele><time>2010-07-07T09:08:04Z</time></trkpt>
	<trkpt lat="51.98853167" lon="-1.580733333"><ele>122.000000</ele><time>2010-07-07T09:08:09Z</time></trkpt>
	<trkpt lat="51.98853333" lon="-1.580735"><ele>122.000000</ele><time>2010-07-07T09:08:14Z</time></trkpt>
	<trkpt lat="51.98853167" lon="-1.580738333"><ele>122.000000</ele><time>2010-07-07T09:08:19Z</time></trkpt>
	<trkpt lat="51.98853333" lon="-1.580736667"><ele>122.000000</ele><time>2010-07-07T09:08:24Z</time></trkpt>
	<trkpt lat="51.98853167" lon="-1.580738333"><ele>122.000000</ele><time>2010-07-07T09:08:29Z</time></trkpt>
	<trkpt lat="51.988535" lon="-1.580738333"><ele>122.000000</ele><time>2010-07-07T09:08:34Z</time></trkpt>
	<trkpt lat="51.98853667" lon="-1.580733333"><ele>121.000000</ele><time>2010-07-07T09:08:39Z</time></trkpt>
	<trkpt lat="51.98854" lon="-1.580733333"><ele>121.000000</ele><time>2010-07-07T09:08:44Z</time></trkpt>
	<trkpt lat="51.988545" lon="-1.580728333"><ele>120.000000</ele><time>2010-07-07T09:08:49Z</time></trkpt>
	<trkpt lat="51.98854167" lon="-1.580736667"><ele>120.000000</ele><time>2010-07-07T09:08:54Z</time></trkpt>
	<trkpt lat="51.98854667" lon="-1.580733333"><ele>121.000000</ele><time>2010-07-07T09:08:59Z</time></trkpt>
	<trkpt lat="51.98855" lon="-1.580728333"><ele>122.000000</ele><time>2010-07-07T09:09:04Z</time></trkpt>
	<trkpt lat="51.98854333" lon="-1.580736667"><ele>122.000000</ele><time>2010-07-07T09:09:09Z</time></trkpt>
	<trkpt lat="51.98854333" lon="-1.580738333"><ele>122.000000</ele><time>2010-07-07T09:09:14Z</time></trkpt>
	<trkpt lat="51.988535" lon="-1.580746667"><ele>123.000000</ele><time>2010-07-07T09:09:19Z</time></trkpt>
	<trkpt lat="51.98854" lon="-1.58074"><ele>122.000000</ele><time>2010-07-07T09:09:24Z</time></trkpt>
	<trkpt lat="51.98853667" lon="-1.580741667"><ele>122.000000</ele><time>2010-07-07T09:09:29Z</time></trkpt>
	<trkpt lat="51.98855167" lon="-1.580716667"><ele>122.000000</ele><time>2010-07-07T09:09:34Z</time></trkpt>
	<trkpt lat="51.98855833" lon="-1.580688333"><ele>122.000000</ele><time>2010-07-07T09:09:39Z</time></trkpt>
	<trkpt lat="51.98856" lon="-1.580683333"><ele>121.000000</ele><time>2010-07-07T09:09:44Z</time></trkpt>
	<trkpt lat="51.98855667" lon="-1.580671667"><ele>121.000000</ele><time>2010-07-07T09:09:49Z</time></trkpt>
	<trkpt lat="51.98855167" lon="-1.58066"><ele>121.000000</ele><time>2010-07-07T09:09:54Z</time></trkpt>
	<trkpt lat="51.98855" lon="-1.580655"><ele>120.000000</ele><time>2010-07-07T09:09:59Z</time></trkpt>
	<trkpt lat="51.98854833" lon="-1.580653333"><ele>120.000000</ele><time>2010-07-07T09:10:04Z</time></trkpt>
	<trkpt lat="51.98854667" lon="-1.58066"><ele>120.000000</ele><time>2010-07-07T09:10:09Z</time></trkpt>
	<trkpt lat="51.988545" lon="-1.580663333"><ele>121.000000</ele><time>2010-07-07T09:10:14Z</time></trkpt>
	<trkpt lat="51.98854333" lon="-1.580678333"><ele>120.000000</ele><time>2010-07-07T09:10:19Z</time></trkpt>
	<trkpt lat="51.988545" lon="-1.580683333"><ele>118.000000</ele><time>2010-07-07T09:10:24Z</time></trkpt>
	<trkpt lat="51.98854833" lon="-1.580685"><ele>119.000000</ele><time>2010-07-07T09:10:29Z</time></trkpt>
	<trkpt lat="51.988565" lon="-1.58068"><ele>122.000000</ele><time>2010-07-07T09:10:34Z</time></trkpt>
	<trkpt lat="51.98859167" lon="-1.580628333"><ele>122.000000</ele><time>2010-07-07T09:10:39Z</time></trkpt>
	<trkpt lat="51.98860833" lon="-1.580605"><ele>122.000000</ele><time>2010-07-07T09:10:44Z</time></trkpt>
	<trkpt lat="51.988625" lon="-1.580548333"><ele>121.000000</ele><time>2010-07-07T09:10:49Z</time></trkpt>
	<trkpt lat="51.98864667" lon="-1.580481667"><ele>119.000000</ele><time>2010-07-07T09:10:54Z</time></trkpt>
	<trkpt lat="51.98866167" lon="-1.58042"><ele>118.000000</ele><time>2010-07-07T09:10:59Z</time></trkpt>
	<trkpt lat="51.98867833" lon="-1.580346667"><ele>118.000000</ele><time>2010-07-07T09:11:04Z</time></trkpt>
	<trkpt lat="51.98867667" lon="-1.580265"><ele>119.000000</ele><time>2010-07-07T09:11:09Z</time></trkpt>
	<trkpt lat="51.98867833" lon="-1.58019"><ele>120.000000</ele><time>2010-07-07T09:11:14Z</time></trkpt>
	<trkpt lat="51.98870833" lon="-1.580103333"><ele>120.000000</ele><time>2010-07-07T09:11:19Z</time></trkpt>
	<trkpt lat="51.988755" lon="-1.580023333"><ele>121.000000</ele><time>2010-07-07T09:11:24Z</time></trkpt>
	<trkpt lat="51.98880333" lon="-1.580015"><ele>123.000000</ele><time>2010-07-07T09:11:29Z</time></trkpt>
	<trkpt lat="51.98885167" lon="-1.580031667"><ele>124.000000</ele><time>2010-07-07T09:11:34Z</time></trkpt>
	<trkpt lat="51.98890667" lon="-1.580028333"><ele>125.000000</ele><time>2010-07-07T09:11:39Z</time></trkpt>
	<trkpt lat="51.98896" lon="-1.580043333"><ele>125.000000</ele><time>2010-07-07T09:11:44Z</time></trkpt>
	<trkpt lat="51.98901167" lon="-1.580075"><ele>125.000000</ele><time>2010-07-07T09:11:49Z</time></trkpt>
	<trkpt lat="51.98906" lon="-1.580106667"><ele>125.000000</ele><time>2010-07-07T09:11:54Z</time></trkpt>
	<trkpt lat="51.98909833" lon="-1.580158333"><ele>122.000000</ele><time>2010-07-07T09:11:59Z</time></trkpt>
	<trkpt lat="51.98915" lon="-1.580196667"><ele>121.000000</ele><time>2010-07-07T09:12:04Z</time></trkpt>
	<trkpt lat="51.98919333" lon="-1.580246667"><ele>119.000000</ele><time>2010-07-07T09:12:09Z</time></trkpt>
	<trkpt lat="51.98922167" lon="-1.5803"><ele>118.000000</ele><time>2010-07-07T09:12:14Z</time></trkpt>
	<trkpt lat="51.98926" lon="-1.580346667"><ele>119.000000</ele><time>2010-07-07T09:12:19Z</time></trkpt>
	<trkpt lat="51.98930333" lon="-1.580391667"><ele>120.000000</ele><time>2010-07-07T09:12:24Z</time></trkpt>
	<trkpt lat="51.98934167" lon="-1.580448333"><ele>120.000000</ele><time>2010-07-07T09:12:29Z</time></trkpt>
	<trkpt lat="51.98938333" lon="-1.580488333"><ele>121.000000</ele><time>2010-07-07T09:12:34Z</time></trkpt>
	<trkpt lat="51.98943667" lon="-1.580538333"><ele>122.000000</ele><time>2010-07-07T09:12:39Z</time></trkpt>
	<trkpt lat="51.98948833" lon="-1.580571667"><ele>120.000000</ele><time>2010-07-07T09:12:44Z</time></trkpt>
	<trkpt lat="51.98954833" lon="-1.580603333"><ele>119.000000</ele><time>2010-07-07T09:12:49Z</time></trkpt>
	<trkpt lat="51.98961333" lon="-1.580626667"><ele>121.000000</ele><time>2010-07-07T09:12:54Z</time></trkpt>
	<trkpt lat="51.98967333" lon="-1.580648333"><ele>120.000000</ele><time>2010-07-07T09:12:59Z</time></trkpt>
	<trkpt lat="51.98974" lon="-1.580685"><ele>121.000000</ele><time>2010-07-07T09:13:04Z</time></trkpt>
	<trkpt lat="51.9898" lon="-1.580728333"><ele>121.000000</ele><time>2010-07-07T09:13:09Z</time></trkpt>
	<trkpt lat="51.98985667" lon="-1.580768333"><ele>121.000000</ele><time>2010-07-07T09:13:14Z</time></trkpt>
	<trkpt lat="51.98991" lon="-1.580806667"><ele>122.000000</ele><time>2010-07-07T09:13:19Z</time></trkpt>
	<trkpt lat="51.989965" lon="-1.580848333"><ele>123.000000</ele><time>2010-07-07T09:13:24Z</time></trkpt>
	<trkpt lat="51.990015" lon="-1.580885"><ele>125.000000</ele><time>2010-07-07T09:13:29Z</time></trkpt>
	<trkpt lat="51.99007" lon="-1.580918333"><ele>126.000000</ele><time>2010-07-07T09:13:34Z</time></trkpt>
	<trkpt lat="51.99012333" lon="-1.580955"><ele>126.000000</ele><time>2010-07-07T09:13:39Z</time></trkpt>
	<trkpt lat="51.99017333" lon="-1.580983333"><ele>125.000000</ele><time>2010-07-07T09:13:44Z</time></trkpt>
	<trkpt lat="51.99023" lon="-1.581008333"><ele>128.000000</ele><time>2010-07-07T09:13:49Z</time></trkpt>
	<trkpt lat="51.990285" lon="-1.581046667"><ele>128.000000</ele><time>2010-07-07T09:13:54Z</time></trkpt>
	<trkpt lat="51.99034333" lon="-1.581081667"><ele>127.000000</ele><time>2010-07-07T09:13:59Z</time></trkpt>
	<trkpt lat="51.990395" lon="-1.581118333"><ele>126.000000</ele><time>2010-07-07T09:14:04Z</time></trkpt>
	<trkpt lat="51.990445" lon="-1.581165"><ele>124.000000</ele><time>2010-07-07T09:14:09Z</time></trkpt>
	<trkpt lat="51.99047833" lon="-1.58124"><ele>119.000000</ele><time>2010-07-07T09:14:14Z</time></trkpt>
	<trkpt lat="51.99053" lon="-1.58128"><ele>117.000000</ele><time>2010-07-07T09:14:19Z</time></trkpt>
	<trkpt lat="51.99059" lon="-1.581333333"><ele>117.000000</ele><time>2010-07-07T09:14:24Z</time></trkpt>
	<trkpt lat="51.99065" lon="-1.581378333"><ele>118.000000</ele><time>2010-07-07T09:14:29Z</time></trkpt>
	<trkpt lat="51.99070333" lon="-1.581418333"><ele>118.000000</ele><time>2010-07-07T09:14:34Z</time></trkpt>
	<trkpt lat="51.99076" lon="-1.581451667"><ele>119.000000</ele><time>2010-07-07T09:14:39Z</time></trkpt>
	<trkpt lat="51.990815" lon="-1.581485"><ele>119.000000</ele><time>2010-07-07T09:14:44Z</time></trkpt>
	<trkpt lat="51.99086" lon="-1.58152"><ele>119.000000</ele><time>2010-07-07T09:14:49Z</time></trkpt>
	<trkpt lat="51.99091167" lon="-1.581546667"><ele>119.000000</ele><time>2010-07-07T09:14:54Z</time></trkpt>
	<trkpt lat="51.99095167" lon="-1.581578333"><ele>116.000000</ele><time>2010-07-07T09:14:59Z</time></trkpt>
	<trkpt lat="51.99100667" lon="-1.581591667"><ele>114.000000</ele><time>2010-07-07T09:15:04Z</time></trkpt>
	<trkpt lat="51.991055" lon="-1.581608333"><ele>112.000000</ele><time>2010-07-07T09:15:09Z</time></trkpt>
	<trkpt lat="51.991105" lon="-1.581613333"><ele>113.000000</ele><time>2010-07-07T09:15:14Z</time></trkpt>
	<trkpt lat="51.99114667" lon="-1.581625"><ele>114.000000</ele><time>2010-07-07T09:15:19Z</time></trkpt>
	<trkpt lat="51.99119167" lon="-1.581613333"><ele>112.000000</ele><time>2010-07-07T09:15:24Z</time></trkpt>
	<trkpt lat="51.99125167" lon="-1.581591667"><ele>113.000000</ele><time>2010-07-07T09:15:29Z</time></trkpt>
	<trkpt lat="51.99130167" lon="-1.581616667"><ele>116.000000</ele><time>2010-07-07T09:15:34Z</time></trkpt>
	<trkpt lat="51.99136" lon="-1.581621667"><ele>118.000000</ele><time>2010-07-07T09:15:39Z</time></trkpt>
	<trkpt lat="51.99140667" lon="-1.581613333"><ele>122.000000</ele><time>2010-07-07T09:15:44Z</time></trkpt>
	<trkpt lat="51.99147333" lon="-1.581613333"><ele>121.000000</ele><time>2010-07-07T09:15:49Z</time></trkpt>
	<trkpt lat="51.991515" lon="-1.581621667"><ele>124.000000</ele><time>2010-07-07T09:15:54Z</time></trkpt>
	<trkpt lat="51.99158167" lon="-1.581585"><ele>124.000000</ele><time>2010-07-07T09:15:59Z</time></trkpt>
	<trkpt lat="51.991625" lon="-1.581596667"><ele>125.000000</ele><time>2010-07-07T09:16:04Z</time></trkpt>
	<trkpt lat="51.99168" lon="-1.581606667"><ele>127.000000</ele><time>2010-07-07T09:16:09Z</time></trkpt>
	<trkpt lat="51.991735" lon="-1.581616667"><ele>127.000000</ele><time>2010-07-07T09:16:14Z</time></trkpt>
	<trkpt lat="51.9918" lon="-1.581591667"><ele>126.000000</ele><time>2010-07-07T09:16:19Z</time></trkpt>
	<trkpt lat="51.99184" lon="-1.58159"><ele>128.000000</ele><time>2010-07-07T09:16:24Z</time></trkpt>
	<trkpt lat="51.99188667" lon="-1.58157"><ele>124.000000</ele><time>2010-07-07T09:16:29Z</time></trkpt>
	<trkpt lat="51.99194667" lon="-1.581556667"><ele>125.000000</ele><time>2010-07-07T09:16:34Z</time></trkpt>
	<trkpt lat="51.99199833" lon="-1.581553333"><ele>126.000000</ele><time>2010-07-07T09:16:39Z</time></trkpt>
	<trkpt lat="51.99205167" lon="-1.58154"><ele>125.000000</ele><time>2010-07-07T09:16:44Z</time></trkpt>
	<trkpt lat="51.992105" lon="-1.581561667"><ele>123.000000</ele><time>2010-07-07T09:16:49Z</time></trkpt>
	<trkpt lat="51.99215833" lon="-1.581553333"><ele>123.000000</ele><time>2010-07-07T09:16:54Z</time></trkpt>
	<trkpt lat="51.99219833" lon="-1.581548333"><ele>117.000000</ele><time>2010-07-07T09:16:59Z</time></trkpt>
	<trkpt lat="51.99225667" lon="-1.581545"><ele>114.000000</ele><time>2010-07-07T09:17:04Z</time></trkpt>
	<trkpt lat="51.992295" lon="-1.581566667"><ele>115.000000</ele><time>2010-07-07T09:17:09Z</time></trkpt>
	<trkpt lat="51.99233833" lon="-1.581588333"><ele>114.000000</ele><time>2010-07-07T09:17:14Z</time></trkpt>
	<trkpt lat="51.99238833" lon="-1.58158"><ele>112.000000</ele><time>2010-07-07T09:17:19Z</time></trkpt>
	<trkpt lat="51.99244333" lon="-1.58162"><ele>112.000000</ele><time>2010-07-07T09:17:24Z</time></trkpt>
	<trkpt lat="51.99250833" lon="-1.581631667"><ele>113.000000</ele><time>2010-07-07T09:17:29Z</time></trkpt>
	<trkpt lat="51.992575" lon="-1.581645"><ele>113.000000</ele><time>2010-07-07T09:17:34Z</time></trkpt>
	<trkpt lat="51.99262333" lon="-1.581683333"><ele>112.000000</ele><time>2010-07-07T09:17:39Z</time></trkpt>
	<trkpt lat="51.99267" lon="-1.581726667"><ele>113.000000</ele><time>2010-07-07T09:17:44Z</time></trkpt>
	<trkpt lat="51.99270833" lon="-1.581788333"><ele>113.000000</ele><time>2010-07-07T09:17:49Z</time></trkpt>
	<trkpt lat="51.992745" lon="-1.581845"><ele>115.000000</ele><time>2010-07-07T09:17:54Z</time></trkpt>
	<trkpt lat="51.99279167" lon="-1.581898333"><ele>116.000000</ele><time>2010-07-07T09:17:59Z</time></trkpt>
	<trkpt lat="51.992845" lon="-1.581941667"><ele>116.000000</ele><time>2010-07-07T09:18:04Z</time></trkpt>
	<trkpt lat="51.99288833" lon="-1.581998333"><ele>116.000000</ele><time>2010-07-07T09:18:09Z</time></trkpt>
	<trkpt lat="51.99292167" lon="-1.582058333"><ele>115.000000</ele><time>2010-07-07T09:18:14Z</time></trkpt>
	<trkpt lat="51.99295667" lon="-1.582135"><ele>114.000000</ele><time>2010-07-07T09:18:19Z</time></trkpt>
	<trkpt lat="51.992995" lon="-1.582183333"><ele>114.000000</ele><time>2010-07-07T09:18:24Z</time></trkpt>
	<trkpt lat="51.99306167" lon="-1.582203333"><ele>115.000000</ele><time>2010-07-07T09:18:29Z</time></trkpt>
	<trkpt lat="51.99311667" lon="-1.582235"><ele>113.000000</ele><time>2010-07-07T09:18:34Z</time></trkpt>
	<trkpt lat="51.99317667" lon="-1.582266667"><ele>113.000000</ele><time>2010-07-07T09:18:39Z</time></trkpt>
	<trkpt lat="51.99323333" lon="-1.582286667"><ele>115.000000</ele><time>2010-07-07T09:18:44Z</time></trkpt>
	<trkpt lat="51.99328333" lon="-1.582315"><ele>116.000000</ele><time>2010-07-07T09:18:49Z</time></trkpt>
	<trkpt lat="51.99334" lon="-1.582326667"><ele>115.000000</ele><time>2010-07-07T09:18:54Z</time></trkpt>
	<trkpt lat="51.99337" lon="-1.582361667"><ele>117.000000</ele><time>2010-07-07T09:18:59Z</time></trkpt>
	<trkpt lat="51.99341833" lon="-1.582391667"><ele>118.000000</ele><time>2010-07-07T09:19:04Z</time></trkpt>
	<trkpt lat="51.993475" lon="-1.582395"><ele>121.000000</ele><time>2010-07-07T09:19:09Z</time></trkpt>
	<trkpt lat="51.99352333" lon="-1.582383333"><ele>119.000000</ele><time>2010-07-07T09:19:14Z</time></trkpt>
	<trkpt lat="51.99357167" lon="-1.582383333"><ele>118.000000</ele><time>2010-07-07T09:19:19Z</time></trkpt>
	<trkpt lat="51.993625" lon="-1.58238"><ele>119.000000</ele><time>2010-07-07T09:19:24Z</time></trkpt>
	<trkpt lat="51.993675" lon="-1.58238"><ele>118.000000</ele><time>2010-07-07T09:19:29Z</time></trkpt>
	<trkpt lat="51.99372667" lon="-1.582375"><ele>116.000000</ele><time>2010-07-07T09:19:34Z</time></trkpt>
	<trkpt lat="51.993775" lon="-1.582388333"><ele>116.000000</ele><time>2010-07-07T09:19:39Z</time></trkpt>
	<trkpt lat="51.99382667" lon="-1.582396667"><ele>114.000000</ele><time>2010-07-07T09:19:44Z</time></trkpt>
	<trkpt lat="51.99388833" lon="-1.582383333"><ele>116.000000</ele><time>2010-07-07T09:19:49Z</time></trkpt>
	<trkpt lat="51.993945" lon="-1.582388333"><ele>115.000000</ele><time>2010-07-07T09:19:54Z</time></trkpt>
	<trkpt lat="51.99394667" lon="-1.582443333"><ele>110.000000</ele><time>2010-07-07T09:19:59Z</time></trkpt>
	<trkpt lat="51.99395833" lon="-1.58244"><ele>105.000000</ele><time>2010-07-07T09:20:04Z</time></trkpt>
	<trkpt lat="51.99402833" lon="-1.582448333"><ele>112.000000</ele><time>2010-07-07T09:20:09Z</time></trkpt>
	<trkpt lat="51.994115" lon="-1.58243"><ele>120.000000</ele><time>2010-07-07T09:20:14Z</time></trkpt>
	<trkpt lat="51.994175" lon="-1.582426667"><ele>129.000000</ele><time>2010-07-07T09:20:19Z</time></trkpt>
	<trkpt lat="51.99419667" lon="-1.58246"><ele>127.000000</ele><time>2010-07-07T09:20:24Z</time></trkpt>
	<trkpt lat="51.99425667" lon="-1.582455"><ele>130.000000</ele><time>2010-07-07T09:20:29Z</time></trkpt>
	<trkpt lat="51.994315" lon="-1.582398333"><ele>124.000000</ele><time>2010-07-07T09:20:34Z</time></trkpt>
	<trkpt lat="51.994335" lon="-1.582391667"><ele>121.000000</ele><time>2010-07-07T09:20:39Z</time></trkpt>
	<trkpt lat="51.99436" lon="-1.582408333"><ele>122.000000</ele><time>2010-07-07T09:20:44Z</time></trkpt>
	<trkpt lat="51.99439667" lon="-1.582353333"><ele>120.000000</ele><time>2010-07-07T09:20:49Z</time></trkpt>
	<trkpt lat="51.99443667" lon="-1.582316667"><ele>117.000000</ele><time>2010-07-07T09:20:54Z</time></trkpt>
	<trkpt lat="51.99446667" lon="-1.582306667"><ele>116.000000</ele><time>2010-07-07T09:20:59Z</time></trkpt>
	<trkpt lat="51.99450667" lon="-1.582296667"><ele>116.000000</ele><time>2010-07-07T09:21:04Z</time></trkpt>
	<trkpt lat="51.99455167" lon="-1.582291667"><ele>115.000000</ele><time>2010-07-07T09:21:09Z</time></trkpt>
	<trkpt lat="51.99453" lon="-1.582325"><ele>117.000000</ele><time>2010-07-07T09:21:14Z</time></trkpt>
	<trkpt lat="51.99449167" lon="-1.58234"><ele>115.000000</ele><time>2010-07-07T09:21:19Z</time></trkpt>
	<trkpt lat="51.99448333" lon="-1.582326667"><ele>114.000000</ele><time>2010-07-07T09:21:24Z</time></trkpt>
	<trkpt lat="51.99448667" lon="-1.582315"><ele>113.000000</ele><time>2010-07-07T09:21:29Z</time></trkpt>
	<trkpt lat="51.99449167" lon="-1.582301667"><ele>112.000000</ele><time>2010-07-07T09:21:34Z</time></trkpt>
	<trkpt lat="51.99453833" lon="-1.582298333"><ele>114.000000</ele><time>2010-07-07T09:21:39Z</time></trkpt>
	<trkpt lat="51.99459167" lon="-1.582288333"><ele>115.000000</ele><time>2010-07-07T09:21:44Z</time></trkpt>
	<trkpt lat="51.99465167" lon="-1.582255"><ele>113.000000</ele><time>2010-07-07T09:21:49Z</time></trkpt>
	<trkpt lat="51.99471" lon="-1.582221667"><ele>114.000000</ele><time>2010-07-07T09:21:54Z</time></trkpt>
	<trkpt lat="51.99476833" lon="-1.582191667"><ele>114.000000</ele><time>2010-07-07T09:21:59Z</time></trkpt>
	<trkpt lat="51.99483667" lon="-1.582158333"><ele>113.000000</ele><time>2010-07-07T09:22:04Z</time></trkpt>
	<trkpt lat="51.994905" lon="-1.582126667"><ele>115.000000</ele><time>2010-07-07T09:22:09Z</time></trkpt>
	<trkpt lat="51.99497833" lon="-1.582075"><ele>115.000000</ele><time>2010-07-07T09:22:14Z</time></trkpt>
	<trkpt lat="51.99504833" lon="-1.582035"><ele>115.000000</ele><time>2010-07-07T09:22:19Z</time></trkpt>
	<trkpt lat="51.995115" lon="-1.581993333"><ele>114.000000</ele><time>2010-07-07T09:22:24Z</time></trkpt>
	<trkpt lat="51.995165" lon="-1.58197"><ele>112.000000</ele><time>2010-07-07T09:22:29Z</time></trkpt>
	<trkpt lat="51.995205" lon="-1.581961667"><ele>111.000000</ele><time>2010-07-07T09:22:34Z</time></trkpt>
	<trkpt lat="51.99526" lon="-1.581933333"><ele>112.000000</ele><time>2010-07-07T09:22:39Z</time></trkpt>
	<trkpt lat="51.99531833" lon="-1.581906667"><ele>114.000000</ele><time>2010-07-07T09:22:44Z</time></trkpt>
	<trkpt lat="51.99538167" lon="-1.581881667"><ele>117.000000</ele><time>2010-07-07T09:22:49Z</time></trkpt>
	<trkpt lat="51.99545167" lon="-1.581848333"><ele>119.000000</ele><time>2010-07-07T09:22:54Z</time></trkpt>
	<trkpt lat="51.99551833" lon="-1.581825"><ele>119.000000</ele><time>2010-07-07T09:22:59Z</time></trkpt>
	<trkpt lat="51.995595" lon="-1.581808333"><ele>122.000000</ele><time>2010-07-07T09:23:04Z</time></trkpt>
	<trkpt lat="51.99564833" lon="-1.58178"><ele>124.000000</ele><time>2010-07-07T09:23:09Z</time></trkpt>
	<trkpt lat="51.99568667" lon="-1.58174"><ele>120.000000</ele><time>2010-07-07T09:23:14Z</time></trkpt>
	<trkpt lat="51.99572" lon="-1.581726667"><ele>117.000000</ele><time>2010-07-07T09:23:19Z</time></trkpt>
	<trkpt lat="51.99577333" lon="-1.581721667"><ele>118.000000</ele><time>2010-07-07T09:23:24Z</time></trkpt>
	<trkpt lat="51.99583667" lon="-1.581713333"><ele>118.000000</ele><time>2010-07-07T09:23:29Z</time></trkpt>
	<trkpt lat="51.99589333" lon="-1.581698333"><ele>119.000000</ele><time>2010-07-07T09:23:34Z</time></trkpt>
	<trkpt lat="51.99594333" lon="-1.581698333"><ele>118.000000</ele><time>2010-07-07T09:23:39Z</time></trkpt>
	<trkpt lat="51.99598333" lon="-1.581718333"><ele>121.000000</ele><time>2010-07-07T09:23:44Z</time></trkpt>
	<trkpt lat="51.99604667" lon="-1.58173"><ele>120.000000</ele><time>2010-07-07T09:23:49Z</time></trkpt>
	<trkpt lat="51.99609667" lon="-1.581761667"><ele>121.000000</ele><time>2010-07-07T09:23:54Z</time></trkpt>
	<trkpt lat="51.99614667" lon="-1.581796667"><ele>123.000000</ele><time>2010-07-07T09:23:59Z</time></trkpt>
	<trkpt lat="51.99619667" lon="-1.581841667"><ele>123.000000</ele><time>2010-07-07T09:24:04Z</time></trkpt>
	<trkpt lat="51.99627333" lon="-1.58184"><ele>119.000000</ele><time>2010-07-07T09:24:09Z</time></trkpt>
	<trkpt lat="51.99631833" lon="-1.581876667"><ele>117.000000</ele><time>2010-07-07T09:24:14Z</time></trkpt>
	<trkpt lat="51.996365" lon="-1.581918333"><ele>115.000000</ele><time>2010-07-07T09:24:19Z</time></trkpt>
	<trkpt lat="51.99640333" lon="-1.581955"><ele>117.000000</ele><time>2010-07-07T09:24:24Z</time></trkpt>
	<trkpt lat="51.996445" lon="-1.581973333"><ele>117.000000</ele><time>2010-07-07T09:24:29Z</time></trkpt>
	<trkpt lat="51.99651667" lon="-1.581951667"><ele>114.000000</ele><time>2010-07-07T09:24:34Z</time></trkpt>
	<trkpt lat="51.99656" lon="-1.581973333"><ele>113.000000</ele><time>2010-07-07T09:24:39Z</time></trkpt>
	<trkpt lat="51.996595" lon="-1.581998333"><ele>115.000000</ele><time>2010-07-07T09:24:44Z</time></trkpt>
	<trkpt lat="51.99664833" lon="-1.582013333"><ele>115.000000</ele><time>2010-07-07T09:24:49Z</time></trkpt>
	<trkpt lat="51.996705" lon="-1.582018333"><ele>114.000000</ele><time>2010-07-07T09:24:54Z</time></trkpt>
	<trkpt lat="51.99675667" lon="-1.582018333"><ele>112.000000</ele><time>2010-07-07T09:24:59Z</time></trkpt>
	<trkpt lat="51.99678833" lon="-1.58203"><ele>111.000000</ele><time>2010-07-07T09:25:04Z</time></trkpt>
	<trkpt lat="51.99681833" lon="-1.582063333"><ele>110.000000</ele><time>2010-07-07T09:25:09Z</time></trkpt>
	<trkpt lat="51.99684667" lon="-1.582101667"><ele>111.000000</ele><time>2010-07-07T09:25:14Z</time></trkpt>
	<trkpt lat="51.99687833" lon="-1.582136667"><ele>113.000000</ele><time>2010-07-07T09:25:19Z</time></trkpt>
	<trkpt lat="51.996915" lon="-1.582148333"><ele>114.000000</ele><time>2010-07-07T09:25:24Z</time></trkpt>
	<trkpt lat="51.99696833" lon="-1.582126667"><ele>114.000000</ele><time>2010-07-07T09:25:29Z</time></trkpt>
	<trkpt lat="51.99701833" lon="-1.582155"><ele>114.000000</ele><time>2010-07-07T09:25:34Z</time></trkpt>
	<trkpt lat="51.99707667" lon="-1.582171667"><ele>113.000000</ele><time>2010-07-07T09:25:39Z</time></trkpt>
	<trkpt lat="51.99711" lon="-1.582223333"><ele>108.000000</ele><time>2010-07-07T09:25:44Z</time></trkpt>
	<trkpt lat="51.997155" lon="-1.582231667"><ele>108.000000</ele><time>2010-07-07T09:25:49Z</time></trkpt>
	<trkpt lat="51.997205" lon="-1.582221667"><ele>110.000000</ele><time>2010-07-07T09:25:54Z</time></trkpt>
	<trkpt lat="51.99726333" lon="-1.58217"><ele>112.000000</ele><time>2010-07-07T09:25:59Z</time></trkpt>
	<trkpt lat="51.997285" lon="-1.582098333"><ele>116.000000</ele><time>2010-07-07T09:26:04Z</time></trkpt>
	<trkpt lat="51.99729667" lon="-1.582025"><ele>118.000000</ele><time>2010-07-07T09:26:09Z</time></trkpt>
	<trkpt lat="51.99730333" lon="-1.581946667"><ele>120.000000</ele><time>2010-07-07T09:26:14Z</time></trkpt>
	<trkpt lat="51.99732167" lon="-1.581855"><ele>120.000000</ele><time>2010-07-07T09:26:19Z</time></trkpt>
	<trkpt lat="51.99734167" lon="-1.581775"><ele>119.000000</ele><time>2010-07-07T09:26:24Z</time></trkpt>
	<trkpt lat="51.99736667" lon="-1.581703333"><ele>119.000000</ele><time>2010-07-07T09:26:29Z</time></trkpt>
	<trkpt lat="51.99739167" lon="-1.581633333"><ele>119.000000</ele><time>2010-07-07T09:26:34Z</time></trkpt>
	<trkpt lat="51.997415" lon="-1.581558333"><ele>119.000000</ele><time>2010-07-07T09:26:39Z</time></trkpt>
	<trkpt lat="51.99743833" lon="-1.581478333"><ele>118.000000</ele><time>2010-07-07T09:26:44Z</time></trkpt>
	<trkpt lat="51.99746167" lon="-1.58141"><ele>118.000000</ele><time>2010-07-07T09:26:49Z</time></trkpt>
	<trkpt lat="51.99748833" lon="-1.581341667"><ele>118.000000</ele><time>2010-07-07T09:26:54Z</time></trkpt>
	<trkpt lat="51.99751333" lon="-1.581265"><ele>117.000000</ele><time>2010-07-07T09:26:59Z</time></trkpt>
	<trkpt lat="51.99753667" lon="-1.5812"><ele>117.000000</ele><time>2010-07-07T09:27:04Z</time></trkpt>
	<trkpt lat="51.99757333" lon="-1.581135"><ele>117.000000</ele><time>2010-07-07T09:27:09Z</time></trkpt>
	<trkpt lat="51.99760833" lon="-1.581078333"><ele>118.000000</ele><time>2010-07-07T09:27:14Z</time></trkpt>
	<trkpt lat="51.99764" lon="-1.581006667"><ele>118.000000</ele><time>2010-07-07T09:27:19Z</time></trkpt>
	<trkpt lat="51.99767167" lon="-1.580928333"><ele>117.000000</ele><time>2010-07-07T09:27:24Z</time></trkpt>
	<trkpt lat="51.99770667" lon="-1.580856667"><ele>116.000000</ele><time>2010-07-07T09:27:29Z</time></trkpt>
	<trkpt lat="51.997735" lon="-1.58078"><ele>115.000000</ele><time>2010-07-07T09:27:34Z</time></trkpt>
	<trkpt lat="51.99776833" lon="-1.580718333"><ele>114.000000</ele><time>2010-07-07T09:27:39Z</time></trkpt>
	<trkpt lat="51.99780167" lon="-1.580648333"><ele>114.000000</ele><time>2010-07-07T09:27:44Z</time></trkpt>
	<trkpt lat="51.99783333" lon="-1.580578333"><ele>113.000000</ele><time>2010-07-07T09:27:49Z</time></trkpt>
	<trkpt lat="51.99786333" lon="-1.580508333"><ele>113.000000</ele><time>2010-07-07T09:27:54Z</time></trkpt>
	<trkpt lat="51.99789" lon="-1.580433333"><ele>113.000000</ele><time>2010-07-07T09:27:59Z</time></trkpt>
	<trkpt lat="51.997925" lon="-1.580365"><ele>113.000000</ele><time>2010-07-07T09:28:04Z</time></trkpt>
	<trkpt lat="51.99795667" lon="-1.580298333"><ele>114.000000</ele><time>2010-07-07T09:28:09Z</time></trkpt>
	<trkpt lat="51.99798667" lon="-1.580228333"><ele>114.000000</ele><time>2010-07-07T09:28:14Z</time></trkpt>
	<trkpt lat="51.99801667" lon="-1.580158333"><ele>114.000000</ele><time>2010-07-07T09:28:19Z</time></trkpt>
	<trkpt lat="51.99804667" lon="-1.58009"><ele>115.000000</ele><time>2010-07-07T09:28:24Z</time></trkpt>
	<trkpt lat="51.99807667" lon="-1.580023333"><ele>115.000000</ele><time>2010-07-07T09:28:29Z</time></trkpt>
	<trkpt lat="51.99810167" lon="-1.579953333"><ele>115.000000</ele><time>2010-07-07T09:28:34Z</time></trkpt>
	<trkpt lat="51.99813" lon="-1.579891667"><ele>115.000000</ele><time>2010-07-07T09:28:39Z</time></trkpt>
	<trkpt lat="51.99815667" lon="-1.579813333"><ele>114.000000</ele><time>2010-07-07T09:28:44Z</time></trkpt>
	<trkpt lat="51.99819167" lon="-1.579748333"><ele>114.000000</ele><time>2010-07-07T09:28:49Z</time></trkpt>
	<trkpt lat="51.99822333" lon="-1.579685"><ele>115.000000</ele><time>2010-07-07T09:28:54Z</time></trkpt>
	<trkpt lat="51.99825833" lon="-1.579638333"><ele>116.000000</ele><time>2010-07-07T09:28:59Z</time></trkpt>
	<trkpt lat="51.99829" lon="-1.579586667"><ele>117.000000</ele><time>2010-07-07T09:29:04Z</time></trkpt>
	<trkpt lat="51.998325" lon="-1.579528333"><ele>118.000000</ele><time>2010-07-07T09:29:09Z</time></trkpt>
	<trkpt lat="51.998365" lon="-1.57947"><ele>117.000000</ele><time>2010-07-07T09:29:14Z</time></trkpt>
	<trkpt lat="51.99841333" lon="-1.57943"><ele>117.000000</ele><time>2010-07-07T09:29:19Z</time></trkpt>
	<trkpt lat="51.99844667" lon="-1.579385"><ele>118.000000</ele><time>2010-07-07T09:29:24Z</time></trkpt>
	<trkpt lat="51.99848" lon="-1.579363333"><ele>120.000000</ele><time>2010-07-07T09:29:29Z</time></trkpt>
	<trkpt lat="51.99851667" lon="-1.579323333"><ele>123.000000</ele><time>2010-07-07T09:29:34Z</time></trkpt>
	<trkpt lat="51.99856667" lon="-1.5793"><ele>123.000000</ele><time>2010-07-07T09:29:39Z</time></trkpt>
	<trkpt lat="51.99860333" lon="-1.579268333"><ele>124.000000</ele><time>2010-07-07T09:29:44Z</time></trkpt>
	<trkpt lat="51.99865167" lon="-1.57923"><ele>123.000000</ele><time>2010-07-07T09:29:49Z</time></trkpt>
	<trkpt lat="51.99871" lon="-1.579181667"><ele>124.000000</ele><time>2010-07-07T09:29:54Z</time></trkpt>
	<trkpt lat="51.99876667" lon="-1.579146667"><ele>124.000000</ele><time>2010-07-07T09:29:59Z</time></trkpt>
	<trkpt lat="51.99880333" lon="-1.579143333"><ele>126.000000</ele><time>2010-07-07T09:30:04Z</time></trkpt>
	<trkpt lat="51.99885333" lon="-1.57913"><ele>128.000000</ele><time>2010-07-07T09:30:09Z</time></trkpt>
	<trkpt lat="51.99890833" lon="-1.57911"><ele>128.000000</ele><time>2010-07-07T09:30:14Z</time></trkpt>
	<trkpt lat="51.99895333" lon="-1.579081667"><ele>129.000000</ele><time>2010-07-07T09:30:19Z</time></trkpt>
	<trkpt lat="51.99899833" lon="-1.579063333"><ele>128.000000</ele><time>2010-07-07T09:30:24Z</time></trkpt>
	<trkpt lat="51.99904667" lon="-1.57904"><ele>130.000000</ele><time>2010-07-07T09:30:29Z</time></trkpt>
	<trkpt lat="51.99908833" lon="-1.57903"><ele>131.000000</ele><time>2010-07-07T09:30:34Z</time></trkpt>
	<trkpt lat="51.99913333" lon="-1.57903"><ele>131.000000</ele><time>2010-07-07T09:30:39Z</time></trkpt>
	<trkpt lat="51.99917" lon="-1.578998333"><ele>131.000000</ele><time>2010-07-07T09:30:44Z</time></trkpt>
	<trkpt lat="51.99922667" lon="-1.578968333"><ele>133.000000</ele><time>2010-07-07T09:30:49Z</time></trkpt>
	<trkpt lat="51.99927667" lon="-1.578936667"><ele>134.000000</ele><time>2010-07-07T09:30:54Z</time></trkpt>
	<trkpt lat="51.99932833" lon="-1.57889"><ele>131.000000</ele><time>2010-07-07T09:30:59Z</time></trkpt>
	<trkpt lat="51.999375" lon="-1.578853333"><ele>127.000000</ele><time>2010-07-07T09:31:04Z</time></trkpt>
	<trkpt lat="51.99942167" lon="-1.578815"><ele>128.000000</ele><time>2010-07-07T09:31:09Z</time></trkpt>
	<trkpt lat="51.99946667" lon="-1.578795"><ele>129.000000</ele><time>2010-07-07T09:31:14Z</time></trkpt>
	<trkpt lat="51.999515" lon="-1.578771667"><ele>128.000000</ele><time>2010-07-07T09:31:19Z</time></trkpt>
	<trkpt lat="51.99956667" lon="-1.578726667"><ele>127.000000</ele><time>2010-07-07T09:31:24Z</time></trkpt>
	<trkpt lat="51.999615" lon="-1.578698333"><ele>127.000000</ele><time>2010-07-07T09:31:29Z</time></trkpt>
	<trkpt lat="51.999655" lon="-1.578668333"><ele>128.000000</ele><time>2010-07-07T09:31:34Z</time></trkpt>
	<trkpt lat="51.99969167" lon="-1.578633333"><ele>128.000000</ele><time>2010-07-07T09:31:39Z</time></trkpt>
	<trkpt lat="51.99973333" lon="-1.578593333"><ele>128.000000</ele><time>2010-07-07T09:31:44Z</time></trkpt>
	<trkpt lat="51.999775" lon="-1.57855"><ele>129.000000</ele><time>2010-07-07T09:31:49Z</time></trkpt>
	<trkpt lat="51.99982" lon="-1.578506667"><ele>130.000000</ele><time>2010-07-07T09:31:54Z</time></trkpt>
	<trkpt lat="51.99986" lon="-1.578453333"><ele>130.000000</ele><time>2010-07-07T09:31:59Z</time></trkpt>
	<trkpt lat="51.99989667" lon="-1.5784"><ele>131.000000</ele><time>2010-07-07T09:32:04Z</time></trkpt>
	<trkpt lat="51.99994167" lon="-1.578348333"><ele>133.000000</ele><time>2010-07-07T09:32:09Z</time></trkpt>
	<trkpt lat="51.99998" lon="-1.578296667"><ele>133.000000</ele><time>2010-07-07T09:32:14Z</time></trkpt>
	<trkpt lat="52.000025" lon="-1.578241667"><ele>132.000000</ele><time>2010-07-07T09:32:19Z</time></trkpt>
	<trkpt lat="52.00007" lon="-1.578193333"><ele>131.000000</ele><time>2010-07-07T09:32:24Z</time></trkpt>
	<trkpt lat="52.000115" lon="-1.578148333"><ele>132.000000</ele><time>2010-07-07T09:32:29Z</time></trkpt>
	<trkpt lat="52.000155" lon="-1.578091667"><ele>132.000000</ele><time>2010-07-07T09:32:34Z</time></trkpt>
	<trkpt lat="52.00020333" lon="-1.578043333"><ele>131.000000</ele><time>2010-07-07T09:32:39Z</time></trkpt>
	<trkpt lat="52.00024833" lon="-1.577996667"><ele>132.000000</ele><time>2010-07-07T09:32:44Z</time></trkpt>
	<trkpt lat="52.000295" lon="-1.57795"><ele>132.000000</ele><time>2010-07-07T09:32:49Z</time></trkpt>
	<trkpt lat="52.00033167" lon="-1.577888333"><ele>132.000000</ele><time>2010-07-07T09:32:54Z</time></trkpt>
	<trkpt lat="52.00036833" lon="-1.57782"><ele>134.000000</ele><time>2010-07-07T09:32:59Z</time></trkpt>
	<trkpt lat="52.00040667" lon="-1.577765"><ele>135.000000</ele><time>2010-07-07T09:33:04Z</time></trkpt>
	<trkpt lat="52.000445" lon="-1.577713333"><ele>136.000000</ele><time>2010-07-07T09:33:09Z</time></trkpt>
	<trkpt lat="52.00048333" lon="-1.57768"><ele>136.000000</ele><time>2010-07-07T09:33:14Z</time></trkpt>
	<trkpt lat="52.000535" lon="-1.577651667"><ele>135.000000</ele><time>2010-07-07T09:33:19Z</time></trkpt>
	<trkpt lat="52.00057667" lon="-1.577603333"><ele>134.000000</ele><time>2010-07-07T09:33:24Z</time></trkpt>
	<trkpt lat="52.000615" lon="-1.577571667"><ele>136.000000</ele><time>2010-07-07T09:33:29Z</time></trkpt>
	<trkpt lat="52.00065333" lon="-1.57753"><ele>136.000000</ele><time>2010-07-07T09:33:34Z</time></trkpt>
	<trkpt lat="52.00069" lon="-1.577481667"><ele>135.000000</ele><time>2010-07-07T09:33:39Z</time></trkpt>
	<trkpt lat="52.00073667" lon="-1.577431667"><ele>134.000000</ele><time>2010-07-07T09:33:44Z</time></trkpt>
	<trkpt lat="52.00078667" lon="-1.577385"><ele>133.000000</ele><time>2010-07-07T09:33:49Z</time></trkpt>
	<trkpt lat="52.00083833" lon="-1.577323333"><ele>132.000000</ele><time>2010-07-07T09:33:54Z</time></trkpt>
	<trkpt lat="52.00088167" lon="-1.577265"><ele>133.000000</ele><time>2010-07-07T09:33:59Z</time></trkpt>
	<trkpt lat="52.00092" lon="-1.57719"><ele>133.000000</ele><time>2010-07-07T09:34:04Z</time></trkpt>
	<trkpt lat="52.00096833" lon="-1.577118333"><ele>132.000000</ele><time>2010-07-07T09:34:09Z</time></trkpt>
	<trkpt lat="52.001015" lon="-1.57706"><ele>133.000000</ele><time>2010-07-07T09:34:14Z</time></trkpt>
	<trkpt lat="52.00106167" lon="-1.576996667"><ele>133.000000</ele><time>2010-07-07T09:34:19Z</time></trkpt>
	<trkpt lat="52.00109667" lon="-1.576928333"><ele>132.000000</ele><time>2010-07-07T09:34:24Z</time></trkpt>
	<trkpt lat="52.00113667" lon="-1.576861667"><ele>132.000000</ele><time>2010-07-07T09:34:29Z</time></trkpt>
	<trkpt lat="52.00117833" lon="-1.5768"><ele>130.000000</ele><time>2010-07-07T09:34:34Z</time></trkpt>
	<trkpt lat="52.00122167" lon="-1.576745"><ele>131.000000</ele><time>2010-07-07T09:34:39Z</time></trkpt>
	<trkpt lat="52.00124667" lon="-1.576683333"><ele>130.000000</ele><time>2010-07-07T09:34:44Z</time></trkpt>
	<trkpt lat="52.00127333" lon="-1.576618333"><ele>129.000000</ele><time>2010-07-07T09:34:49Z</time></trkpt>
	<trkpt lat="52.00130167" lon="-1.576558333"><ele>129.000000</ele><time>2010-07-07T09:34:54Z</time></trkpt>
	<trkpt lat="52.00132" lon="-1.5765"><ele>130.000000</ele><time>2010-07-07T09:34:59Z</time></trkpt>
	<trkpt lat="52.00134" lon="-1.576441667"><ele>129.000000</ele><time>2010-07-07T09:35:04Z</time></trkpt>
	<trkpt lat="52.00137167" lon="-1.576385"><ele>131.000000</ele><time>2010-07-07T09:35:09Z</time></trkpt>
	<trkpt lat="52.001405" lon="-1.576328333"><ele>133.000000</ele><time>2010-07-07T09:35:14Z</time></trkpt>
	<trkpt lat="52.001435" lon="-1.576266667"><ele>133.000000</ele><time>2010-07-07T09:35:19Z</time></trkpt>
	<trkpt lat="52.00145833" lon="-1.576213333"><ele>132.000000</ele><time>2010-07-07T09:35:24Z</time></trkpt>
	<trkpt lat="52.00149" lon="-1.576165"><ele>133.000000</ele><time>2010-07-07T09:35:29Z</time></trkpt>
	<trkpt lat="52.00152167" lon="-1.576123333"><ele>134.000000</ele><time>2010-07-07T09:35:34Z</time></trkpt>
	<trkpt lat="52.00155333" lon="-1.576056667"><ele>134.000000</ele><time>2010-07-07T09:35:39Z</time></trkpt>
	<trkpt lat="52.00158333" lon="-1.575983333"><ele>134.000000</ele><time>2010-07-07T09:35:44Z</time></trkpt>
	<trkpt lat="52.00161333" lon="-1.575913333"><ele>135.000000</ele><time>2010-07-07T09:35:49Z</time></trkpt>
	<trkpt lat="52.00164" lon="-1.575851667"><ele>136.000000</ele><time>2010-07-07T09:35:54Z</time></trkpt>
	<trkpt lat="52.00167333" lon="-1.575796667"><ele>137.000000</ele><time>2010-07-07T09:35:59Z</time></trkpt>
	<trkpt lat="52.00170333" lon="-1.57573"><ele>137.000000</ele><time>2010-07-07T09:36:04Z</time></trkpt>
	<trkpt lat="52.00173833" lon="-1.575663333"><ele>137.000000</ele><time>2010-07-07T09:36:09Z</time></trkpt>
	<trkpt lat="52.00177167" lon="-1.575605"><ele>138.000000</ele><time>2010-07-07T09:36:14Z</time></trkpt>
	<trkpt lat="52.00181167" lon="-1.57556"><ele>138.000000</ele><time>2010-07-07T09:36:19Z</time></trkpt>
	<trkpt lat="52.00185833" lon="-1.575528333"><ele>139.000000</ele><time>2010-07-07T09:36:24Z</time></trkpt>
	<trkpt lat="52.00192" lon="-1.575485"><ele>136.000000</ele><time>2010-07-07T09:36:29Z</time></trkpt>
	<trkpt lat="52.00195833" lon="-1.575445"><ele>137.000000</ele><time>2010-07-07T09:36:34Z</time></trkpt>
	<trkpt lat="52.00200333" lon="-1.575395"><ele>137.000000</ele><time>2010-07-07T09:36:39Z</time></trkpt>
	<trkpt lat="52.002045" lon="-1.575353333"><ele>138.000000</ele><time>2010-07-07T09:36:44Z</time></trkpt>
	<trkpt lat="52.00208167" lon="-1.575306667"><ele>139.000000</ele><time>2010-07-07T09:36:49Z</time></trkpt>
	<trkpt lat="52.00211667" lon="-1.575248333"><ele>138.000000</ele><time>2010-07-07T09:36:54Z</time></trkpt>
	<trkpt lat="52.00214667" lon="-1.575196667"><ele>138.000000</ele><time>2010-07-07T09:36:59Z</time></trkpt>
	<trkpt lat="52.002175" lon="-1.575146667"><ele>138.000000</ele><time>2010-07-07T09:37:04Z</time></trkpt>
	<trkpt lat="52.00219833" lon="-1.5751"><ele>140.000000</ele><time>2010-07-07T09:37:09Z</time></trkpt>
	<trkpt lat="52.00222833" lon="-1.575045"><ele>141.000000</ele><time>2010-07-07T09:37:14Z</time></trkpt>
	<trkpt lat="52.00226167" lon="-1.574988333"><ele>142.000000</ele><time>2010-07-07T09:37:19Z</time></trkpt>
	<trkpt lat="52.00230333" lon="-1.57494"><ele>143.000000</ele><time>2010-07-07T09:37:24Z</time></trkpt>
	<trkpt lat="52.00233167" lon="-1.574863333"><ele>144.000000</ele><time>2010-07-07T09:37:29Z</time></trkpt>
	<trkpt lat="52.00237333" lon="-1.574813333"><ele>143.000000</ele><time>2010-07-07T09:37:34Z</time></trkpt>
	<trkpt lat="52.00241667" lon="-1.574763333"><ele>143.000000</ele><time>2010-07-07T09:37:39Z</time></trkpt>
	<trkpt lat="52.00245833" lon="-1.574705"><ele>141.000000</ele><time>2010-07-07T09:37:44Z</time></trkpt>
	<trkpt lat="52.00248667" lon="-1.574646667"><ele>141.000000</ele><time>2010-07-07T09:37:49Z</time></trkpt>
	<trkpt lat="52.00251833" lon="-1.574598333"><ele>141.000000</ele><time>2010-07-07T09:37:54Z</time></trkpt>
	<trkpt lat="52.00255167" lon="-1.574545"><ele>142.000000</ele><time>2010-07-07T09:37:59Z</time></trkpt>
	<trkpt lat="52.00258167" lon="-1.574483333"><ele>143.000000</ele><time>2010-07-07T09:38:04Z</time></trkpt>
	<trkpt lat="52.00262" lon="-1.574406667"><ele>141.000000</ele><time>2010-07-07T09:38:09Z</time></trkpt>
	<trkpt lat="52.00265" lon="-1.57436"><ele>142.000000</ele><time>2010-07-07T09:38:14Z</time></trkpt>
	<trkpt lat="52.00268" lon="-1.574305"><ele>143.000000</ele><time>2010-07-07T09:38:19Z</time></trkpt>
	<trkpt lat="52.00271167" lon="-1.574253333"><ele>143.000000</ele><time>2010-07-07T09:38:24Z</time></trkpt>
	<trkpt lat="52.00274333" lon="-1.574198333"><ele>144.000000</ele><time>2010-07-07T09:38:29Z</time></trkpt>
	<trkpt lat="52.00277167" lon="-1.574143333"><ele>145.000000</ele><time>2010-07-07T09:38:34Z</time></trkpt>
	<trkpt lat="52.002805" lon="-1.57409"><ele>145.000000</ele><time>2010-07-07T09:38:39Z</time></trkpt>
	<trkpt lat="52.002835" lon="-1.57404"><ele>145.000000</ele><time>2010-07-07T09:38:44Z</time></trkpt>
	<trkpt lat="52.00286833" lon="-1.573993333"><ele>145.000000</ele><time>2010-07-07T09:38:49Z</time></trkpt>
	<trkpt lat="52.00290167" lon="-1.573946667"><ele>145.000000</ele><time>2010-07-07T09:38:54Z</time></trkpt>
	<trkpt lat="52.00293667" lon="-1.57389"><ele>144.000000</ele><time>2010-07-07T09:38:59Z</time></trkpt>
	<trkpt lat="52.00297667" lon="-1.573845"><ele>142.000000</ele><time>2010-07-07T09:39:04Z</time></trkpt>
	<trkpt lat="52.003015" lon="-1.573808333"><ele>141.000000</ele><time>2010-07-07T09:39:09Z</time></trkpt>
	<trkpt lat="52.00305833" lon="-1.573768333"><ele>140.000000</ele><time>2010-07-07T09:39:14Z</time></trkpt>
	<trkpt lat="52.003085" lon="-1.573718333"><ele>142.000000</ele><time>2010-07-07T09:39:19Z</time></trkpt>
	<trkpt lat="52.00311667" lon="-1.573686667"><ele>143.000000</ele><time>2010-07-07T09:39:24Z</time></trkpt>
	<trkpt lat="52.00314167" lon="-1.573636667"><ele>146.000000</ele><time>2010-07-07T09:39:29Z</time></trkpt>
	<trkpt lat="52.00317667" lon="-1.573585"><ele>146.000000</ele><time>2010-07-07T09:39:34Z</time></trkpt>
	<trkpt lat="52.00321" lon="-1.573525"><ele>145.000000</ele><time>2010-07-07T09:39:39Z</time></trkpt>
	<trkpt lat="52.00325167" lon="-1.573493333"><ele>144.000000</ele><time>2010-07-07T09:39:44Z</time></trkpt>
	<trkpt lat="52.00328167" lon="-1.573463333"><ele>144.000000</ele><time>2010-07-07T09:39:49Z</time></trkpt>
	<trkpt lat="52.003315" lon="-1.573413333"><ele>143.000000</ele><time>2010-07-07T09:39:54Z</time></trkpt>
	<trkpt lat="52.00333333" lon="-1.573348333"><ele>145.000000</ele><time>2010-07-07T09:39:59Z</time></trkpt>
	<trkpt lat="52.00336333" lon="-1.573291667"><ele>147.000000</ele><time>2010-07-07T09:40:04Z</time></trkpt>
	<trkpt lat="52.00339333" lon="-1.573226667"><ele>148.000000</ele><time>2010-07-07T09:40:09Z</time></trkpt>
	<trkpt lat="52.00342333" lon="-1.57316"><ele>149.000000</ele><time>2010-07-07T09:40:14Z</time></trkpt>
	<trkpt lat="52.003455" lon="-1.573091667"><ele>148.000000</ele><time>2010-07-07T09:40:19Z</time></trkpt>
	<trkpt lat="52.003485" lon="-1.573033333"><ele>148.000000</ele><time>2010-07-07T09:40:24Z</time></trkpt>
	<trkpt lat="52.00351333" lon="-1.572988333"><ele>149.000000</ele><time>2010-07-07T09:40:29Z</time></trkpt>
	<trkpt lat="52.00354333" lon="-1.57293"><ele>150.000000</ele><time>2010-07-07T09:40:34Z</time></trkpt>
	<trkpt lat="52.00357333" lon="-1.572876667"><ele>151.000000</ele><time>2010-07-07T09:40:39Z</time></trkpt>
	<trkpt lat="52.00360667" lon="-1.57283"><ele>151.000000</ele><time>2010-07-07T09:40:44Z</time></trkpt>
	<trkpt lat="52.00364" lon="-1.57278"><ele>151.000000</ele><time>2010-07-07T09:40:49Z</time></trkpt>
	<trkpt lat="52.00367167" lon="-1.572723333"><ele>153.000000</ele><time>2010-07-07T09:40:54Z</time></trkpt>
	<trkpt lat="52.00370833" lon="-1.572661667"><ele>152.000000</ele><time>2010-07-07T09:40:59Z</time></trkpt>
	<trkpt lat="52.003735" lon="-1.572593333"><ele>151.000000</ele><time>2010-07-07T09:41:04Z</time></trkpt>
	<trkpt lat="52.00376833" lon="-1.572523333"><ele>152.000000</ele><time>2010-07-07T09:41:09Z</time></trkpt>
	<trkpt lat="52.003805" lon="-1.572473333"><ele>155.000000</ele><time>2010-07-07T09:41:14Z</time></trkpt>
	<trkpt lat="52.003845" lon="-1.57242"><ele>157.000000</ele><time>2010-07-07T09:41:19Z</time></trkpt>
	<trkpt lat="52.00387667" lon="-1.572356667"><ele>159.000000</ele><time>2010-07-07T09:41:24Z</time></trkpt>
	<trkpt lat="52.00391167" lon="-1.572308333"><ele>160.000000</ele><time>2010-07-07T09:41:29Z</time></trkpt>
	<trkpt lat="52.00395" lon="-1.572265"><ele>158.000000</ele><time>2010-07-07T09:41:34Z</time></trkpt>
	<trkpt lat="52.003985" lon="-1.572216667"><ele>156.000000</ele><time>2010-07-07T09:41:39Z</time></trkpt>
	<trkpt lat="52.00402" lon="-1.572155"><ele>156.000000</ele><time>2010-07-07T09:41:44Z</time></trkpt>
	<trkpt lat="52.00405167" lon="-1.572101667"><ele>156.000000</ele><time>2010-07-07T09:41:49Z</time></trkpt>
	<trkpt lat="52.00408667" lon="-1.572046667"><ele>157.000000</ele><time>2010-07-07T09:41:54Z</time></trkpt>
	<trkpt lat="52.00412" lon="-1.571986667"><ele>157.000000</ele><time>2010-07-07T09:41:59Z</time></trkpt>
	<trkpt lat="52.00415333" lon="-1.571926667"><ele>156.000000</ele><time>2010-07-07T09:42:04Z</time></trkpt>
	<trkpt lat="52.00418333" lon="-1.571866667"><ele>157.000000</ele><time>2010-07-07T09:42:09Z</time></trkpt>
	<trkpt lat="52.00422" lon="-1.57181"><ele>157.000000</ele><time>2010-07-07T09:42:14Z</time></trkpt>
	<trkpt lat="52.00425167" lon="-1.571763333"><ele>156.000000</ele><time>2010-07-07T09:42:19Z</time></trkpt>
	<trkpt lat="52.00428167" lon="-1.57171"><ele>155.000000</ele><time>2010-07-07T09:42:24Z</time></trkpt>
	<trkpt lat="52.004315" lon="-1.571663333"><ele>156.000000</ele><time>2010-07-07T09:42:29Z</time></trkpt>
	<trkpt lat="52.00434167" lon="-1.571608333"><ele>156.000000</ele><time>2010-07-07T09:42:34Z</time></trkpt>
	<trkpt lat="52.00434167" lon="-1.571615"><ele>157.000000</ele><time>2010-07-07T09:42:39Z</time></trkpt>
	<trkpt lat="52.00436667" lon="-1.571591667"><ele>158.000000</ele><time>2010-07-07T09:42:44Z</time></trkpt>
	<trkpt lat="52.00439333" lon="-1.571578333"><ele>159.000000</ele><time>2010-07-07T09:42:49Z</time></trkpt>
	<trkpt lat="52.00441" lon="-1.571525"><ele>161.000000</ele><time>2010-07-07T09:42:54Z</time></trkpt>
	<trkpt lat="52.00443" lon="-1.571453333"><ele>160.000000</ele><time>2010-07-07T09:42:59Z</time></trkpt>
	<trkpt lat="52.00444667" lon="-1.571395"><ele>159.000000</ele><time>2010-07-07T09:43:04Z</time></trkpt>
	<trkpt lat="52.00449" lon="-1.571338333"><ele>157.000000</ele><time>2010-07-07T09:43:09Z</time></trkpt>
	<trkpt lat="52.00451333" lon="-1.571293333"><ele>157.000000</ele><time>2010-07-07T09:43:14Z</time></trkpt>
	<trkpt lat="52.00453167" lon="-1.571271667"><ele>161.000000</ele><time>2010-07-07T09:43:19Z</time></trkpt>
	<trkpt lat="52.00454333" lon="-1.571216667"><ele>160.000000</ele><time>2010-07-07T09:43:24Z</time></trkpt>
	<trkpt lat="52.00456833" lon="-1.571273333"><ele>168.000000</ele><time>2010-07-07T09:43:29Z</time></trkpt>
	<trkpt lat="52.00455" lon="-1.571301667"><ele>172.000000</ele><time>2010-07-07T09:43:34Z</time></trkpt>
	<trkpt lat="52.004565" lon="-1.57131"><ele>173.000000</ele><time>2010-07-07T09:43:39Z</time></trkpt>
	<trkpt lat="52.00458667" lon="-1.571325"><ele>177.000000</ele><time>2010-07-07T09:43:44Z</time></trkpt>
	<trkpt lat="52.00462333" lon="-1.57132"><ele>174.000000</ele><time>2010-07-07T09:43:49Z</time></trkpt>
	<trkpt lat="52.00468833" lon="-1.57133"><ele>167.000000</ele><time>2010-07-07T09:43:54Z</time></trkpt>
	<trkpt lat="52.00468167" lon="-1.57127"><ele>167.000000</ele><time>2010-07-07T09:43:59Z</time></trkpt>
	<trkpt lat="52.00466" lon="-1.5712"><ele>161.000000</ele><time>2010-07-07T09:44:04Z</time></trkpt>
	<trkpt lat="52.00466833" lon="-1.571173333"><ele>157.000000</ele><time>2010-07-07T09:44:09Z</time></trkpt>
	<trkpt lat="52.004655" lon="-1.571188333"><ele>157.000000</ele><time>2010-07-07T09:44:14Z</time></trkpt>
	<trkpt lat="52.00464333" lon="-1.571223333"><ele>159.000000</ele><time>2010-07-07T09:44:19Z</time></trkpt>
	<trkpt lat="52.004605" lon="-1.571216667"><ele>161.000000</ele><time>2010-07-07T09:44:24Z</time></trkpt>
	<trkpt lat="52.00460667" lon="-1.571191667"><ele>161.000000</ele><time>2010-07-07T09:44:29Z</time></trkpt>
	<trkpt lat="52.00462833" lon="-1.571121667"><ele>160.000000</ele><time>2010-07-07T09:44:34Z</time></trkpt>
	<trkpt lat="52.00465833" lon="-1.571048333"><ele>163.000000</ele><time>2010-07-07T09:44:39Z</time></trkpt>
	<trkpt lat="52.004685" lon="-1.570986667"><ele>165.000000</ele><time>2010-07-07T09:44:44Z</time></trkpt>
	<trkpt lat="52.00471667" lon="-1.570933333"><ele>168.000000</ele><time>2010-07-07T09:44:49Z</time></trkpt>
	<trkpt lat="52.00474667" lon="-1.57089"><ele>169.000000</ele><time>2010-07-07T09:44:54Z</time></trkpt>
	<trkpt lat="52.00478167" lon="-1.570848333"><ele>171.000000</ele><time>2010-07-07T09:44:59Z</time></trkpt>
	<trkpt lat="52.00481333" lon="-1.570808333"><ele>175.000000</ele><time>2010-07-07T09:45:04Z</time></trkpt>
	<trkpt lat="52.00485333" lon="-1.57073"><ele>174.000000</ele><time>2010-07-07T09:45:09Z</time></trkpt>
	<trkpt lat="52.00487167" lon="-1.570665"><ele>175.000000</ele><time>2010-07-07T09:45:14Z</time></trkpt>
	<trkpt lat="52.00488833" lon="-1.570628333"><ele>177.000000</ele><time>2010-07-07T09:45:19Z</time></trkpt>
	<trkpt lat="52.00491833" lon="-1.570578333"><ele>181.000000</ele><time>2010-07-07T09:45:24Z</time></trkpt>
	<trkpt lat="52.00494167" lon="-1.570518333"><ele>179.000000</ele><time>2010-07-07T09:45:29Z</time></trkpt>
	<trkpt lat="52.00497833" lon="-1.570475"><ele>177.000000</ele><time>2010-07-07T09:45:34Z</time></trkpt>
	<trkpt lat="52.00500333" lon="-1.570411667"><ele>174.000000</ele><time>2010-07-07T09:45:39Z</time></trkpt>
	<trkpt lat="52.00503667" lon="-1.570346667"><ele>173.000000</ele><time>2010-07-07T09:45:44Z</time></trkpt>
	<trkpt lat="52.00507667" lon="-1.570296667"><ele>171.000000</ele><time>2010-07-07T09:45:49Z</time></trkpt>
	<trkpt lat="52.00510333" lon="-1.570231667"><ele>168.000000</ele><time>2010-07-07T09:45:54Z</time></trkpt>
	<trkpt lat="52.00512" lon="-1.570155"><ele>167.000000</ele><time>2010-07-07T09:45:59Z</time></trkpt>
	<trkpt lat="52.00514167" lon="-1.570108333"><ele>168.000000</ele><time>2010-07-07T09:46:04Z</time></trkpt>
	<trkpt lat="52.00516333" lon="-1.570055"><ele>168.000000</ele><time>2010-07-07T09:46:09Z</time></trkpt>
	<trkpt lat="52.00518333" lon="-1.569996667"><ele>169.000000</ele><time>2010-07-07T09:46:14Z</time></trkpt>
	<trkpt lat="52.00519833" lon="-1.569953333"><ele>171.000000</ele><time>2010-07-07T09:46:19Z</time></trkpt>
	<trkpt lat="52.005225" lon="-1.56991"><ele>172.000000</ele><time>2010-07-07T09:46:24Z</time></trkpt>
	<trkpt lat="52.005255" lon="-1.569868333"><ele>177.000000</ele><time>2010-07-07T09:46:29Z</time></trkpt>
	<trkpt lat="52.00527833" lon="-1.569826667"><ele>180.000000</ele><time>2010-07-07T09:46:34Z</time></trkpt>
	<trkpt lat="52.0053" lon="-1.569773333"><ele>178.000000</ele><time>2010-07-07T09:46:39Z</time></trkpt>
	<trkpt lat="52.00531667" lon="-1.569721667"><ele>179.000000</ele><time>2010-07-07T09:46:44Z</time></trkpt>
	<trkpt lat="52.00533667" lon="-1.569683333"><ele>181.000000</ele><time>2010-07-07T09:46:49Z</time></trkpt>
	<trkpt lat="52.00535333" lon="-1.569653333"><ele>181.000000</ele><time>2010-07-07T09:46:54Z</time></trkpt>
	<trkpt lat="52.00537333" lon="-1.569616667"><ele>182.000000</ele><time>2010-07-07T09:46:59Z</time></trkpt>
	<trkpt lat="52.00539667" lon="-1.569581667"><ele>185.000000</ele><time>2010-07-07T09:47:04Z</time></trkpt>
	<trkpt lat="52.00541833" lon="-1.56953"><ele>185.000000</ele><time>2010-07-07T09:47:09Z</time></trkpt>
	<trkpt lat="52.00542833" lon="-1.569476667"><ele>188.000000</ele><time>2010-07-07T09:47:14Z</time></trkpt>
	<trkpt lat="52.00545333" lon="-1.569435"><ele>190.000000</ele><time>2010-07-07T09:47:19Z</time></trkpt>
	<trkpt lat="52.00548833" lon="-1.56939"><ele>186.000000</ele><time>2010-07-07T09:47:24Z</time></trkpt>
	<trkpt lat="52.00550333" lon="-1.569355"><ele>184.000000</ele><time>2010-07-07T09:47:29Z</time></trkpt>
	<trkpt lat="52.00552667" lon="-1.569326667"><ele>185.000000</ele><time>2010-07-07T09:47:34Z</time></trkpt>
	<trkpt lat="52.005545" lon="-1.569286667"><ele>184.000000</ele><time>2010-07-07T09:47:39Z</time></trkpt>
	<trkpt lat="52.00557167" lon="-1.56924"><ele>184.000000</ele><time>2010-07-07T09:47:44Z</time></trkpt>
	<trkpt lat="52.00558833" lon="-1.569195"><ele>186.000000</ele><time>2010-07-07T09:47:49Z</time></trkpt>
	<trkpt lat="52.00560833" lon="-1.569145"><ele>188.000000</ele><time>2010-07-07T09:47:54Z</time></trkpt>
	<trkpt lat="52.005635" lon="-1.569088333"><ele>187.000000</ele><time>2010-07-07T09:47:59Z</time></trkpt>
	<trkpt lat="52.00565" lon="-1.569036667"><ele>185.000000</ele><time>2010-07-07T09:48:04Z</time></trkpt>
	<trkpt lat="52.00564833" lon="-1.569005"><ele>182.000000</ele><time>2010-07-07T09:48:09Z</time></trkpt>
	<trkpt lat="52.00563833" lon="-1.56899"><ele>178.000000</ele><time>2010-07-07T09:48:14Z</time></trkpt>
	<trkpt lat="52.00562833" lon="-1.568985"><ele>175.000000</ele><time>2010-07-07T09:48:19Z</time></trkpt>
	<trkpt lat="52.00562333" lon="-1.568973333"><ele>173.000000</ele><time>2010-07-07T09:48:24Z</time></trkpt>
	<trkpt lat="52.00562667" lon="-1.568968333"><ele>171.000000</ele><time>2010-07-07T09:48:29Z</time></trkpt>
	<trkpt lat="52.00563333" lon="-1.568965"><ele>170.000000</ele><time>2010-07-07T09:48:34Z</time></trkpt>
	<trkpt lat="52.00563667" lon="-1.568956667"><ele>169.000000</ele><time>2010-07-07T09:48:39Z</time></trkpt>
	<trkpt lat="52.00564" lon="-1.568961667"><ele>169.000000</ele><time>2010-07-07T09:48:44Z</time></trkpt>
	<trkpt lat="52.00564667" lon="-1.568966667"><ele>171.000000</ele><time>2010-07-07T09:48:49Z</time></trkpt>
	<trkpt lat="52.00564667" lon="-1.568965"><ele>172.000000</ele><time>2010-07-07T09:48:54Z</time></trkpt>
	<trkpt lat="52.00565333" lon="-1.568963333"><ele>172.000000</ele><time>2010-07-07T09:48:59Z</time></trkpt>
	<trkpt lat="52.00564833" lon="-1.56897"><ele>173.000000</ele><time>2010-07-07T09:49:04Z</time></trkpt>
	<trkpt lat="52.00564333" lon="-1.568956667"><ele>175.000000</ele><time>2010-07-07T09:49:09Z</time></trkpt>
	<trkpt lat="52.00565" lon="-1.568953333"><ele>176.000000</ele><time>2010-07-07T09:49:14Z</time></trkpt>
	<trkpt lat="52.00568333" lon="-1.568958333"><ele>179.000000</ele><time>2010-07-07T09:49:19Z</time></trkpt>
	<trkpt lat="52.00571167" lon="-1.56897"><ele>179.000000</ele><time>2010-07-07T09:49:24Z</time></trkpt>
	<trkpt lat="52.00574833" lon="-1.56897"><ele>182.000000</ele><time>2010-07-07T09:49:29Z</time></trkpt>
	<trkpt lat="52.00578833" lon="-1.56901"><ele>183.000000</ele><time>2010-07-07T09:49:34Z</time></trkpt>
	<trkpt lat="52.00581333" lon="-1.569016667"><ele>184.000000</ele><time>2010-07-07T09:49:39Z</time></trkpt>
	<trkpt lat="52.005845" lon="-1.569056667"><ele>186.000000</ele><time>2010-07-07T09:49:44Z</time></trkpt>
	<trkpt lat="52.00586667" lon="-1.569056667"><ele>188.000000</ele><time>2010-07-07T09:49:49Z</time></trkpt>
	<trkpt lat="52.0059" lon="-1.569125"><ele>190.000000</ele><time>2010-07-07T09:49:54Z</time></trkpt>
	<trkpt lat="52.005925" lon="-1.569203333"><ele>190.000000</ele><time>2010-07-07T09:49:59Z</time></trkpt>
	<trkpt lat="52.005945" lon="-1.569261667"><ele>191.000000</ele><time>2010-07-07T09:50:04Z</time></trkpt>
	<trkpt lat="52.00596667" lon="-1.56931"><ele>191.000000</ele><time>2010-07-07T09:50:09Z</time></trkpt>
	<trkpt lat="52.00598667" lon="-1.569345"><ele>193.000000</ele><time>2010-07-07T09:50:14Z</time></trkpt>
	<trkpt lat="52.00601333" lon="-1.569406667"><ele>195.000000</ele><time>2010-07-07T09:50:19Z</time></trkpt>
	<trkpt lat="52.00603833" lon="-1.569455"><ele>197.000000</ele><time>2010-07-07T09:50:24Z</time></trkpt>
	<trkpt lat="52.00607" lon="-1.569521667"><ele>195.000000</ele><time>2010-07-07T09:50:29Z</time></trkpt>
	<trkpt lat="52.00609167" lon="-1.569586667"><ele>195.000000</ele><time>2010-07-07T09:50:34Z</time></trkpt>
	<trkpt lat="52.00609833" lon="-1.569623333"><ele>196.000000</ele><time>2010-07-07T09:50:39Z</time></trkpt>
	<trkpt lat="52.00611333" lon="-1.569663333"><ele>198.000000</ele><time>2010-07-07T09:50:44Z</time></trkpt>
	<trkpt lat="52.00613167" lon="-1.569696667"><ele>197.000000</ele><time>2010-07-07T09:50:49Z</time></trkpt>
	<trkpt lat="52.00616" lon="-1.569748333"><ele>197.000000</ele><time>2010-07-07T09:50:54Z</time></trkpt>
	<trkpt lat="52.00617667" lon="-1.569795"><ele>196.000000</ele><time>2010-07-07T09:50:59Z</time></trkpt>
	<trkpt lat="52.006195" lon="-1.569843333"><ele>195.000000</ele><time>2010-07-07T09:51:04Z</time></trkpt>
	<trkpt lat="52.00622167" lon="-1.569903333"><ele>196.000000</ele><time>2010-07-07T09:51:09Z</time></trkpt>
	<trkpt lat="52.00625" lon="-1.569953333"><ele>196.000000</ele><time>2010-07-07T09:51:14Z</time></trkpt>
	<trkpt lat="52.00627833" lon="-1.570016667"><ele>196.000000</ele><time>2010-07-07T09:51:19Z</time></trkpt>
	<trkpt lat="52.006295" lon="-1.570055"><ele>196.000000</ele><time>2010-07-07T09:51:24Z</time></trkpt>
	<trkpt lat="52.00631" lon="-1.570093333"><ele>197.000000</ele><time>2010-07-07T09:51:29Z</time></trkpt>
	<trkpt lat="52.00632667" lon="-1.570135"><ele>197.000000</ele><time>2010-07-07T09:51:34Z</time></trkpt>
	<trkpt lat="52.00634667" lon="-1.570176667"><ele>197.000000</ele><time>2010-07-07T09:51:39Z</time></trkpt>
	<trkpt lat="52.00636167" lon="-1.570228333"><ele>197.000000</ele><time>2010-07-07T09:51:44Z</time></trkpt>
	<trkpt lat="52.00637167" lon="-1.570231667"><ele>199.000000</ele><time>2010-07-07T09:51:49Z</time></trkpt>
	<trkpt lat="52.00637" lon="-1.57024"><ele>201.000000</ele><time>2010-07-07T09:51:54Z</time></trkpt>
	<trkpt lat="52.00638" lon="-1.570215"><ele>202.000000</ele><time>2010-07-07T09:51:59Z</time></trkpt>
	<trkpt lat="52.00639333" lon="-1.570218333"><ele>202.000000</ele><time>2010-07-07T09:52:04Z</time></trkpt>
	<trkpt lat="52.00641333" lon="-1.570258333"><ele>202.000000</ele><time>2010-07-07T09:52:09Z</time></trkpt>
	<trkpt lat="52.006445" lon="-1.57033"><ele>201.000000</ele><time>2010-07-07T09:52:14Z</time></trkpt>
	<trkpt lat="52.00646667" lon="-1.570383333"><ele>200.000000</ele><time>2010-07-07T09:52:19Z</time></trkpt>
	<trkpt lat="52.00648333" lon="-1.570425"><ele>199.000000</ele><time>2010-07-07T09:52:24Z</time></trkpt>
	<trkpt lat="52.00649333" lon="-1.570438333"><ele>199.000000</ele><time>2010-07-07T09:52:29Z</time></trkpt>
	<trkpt lat="52.00648833" lon="-1.57045"><ele>198.000000</ele><time>2010-07-07T09:52:34Z</time></trkpt>
	<trkpt lat="52.0065" lon="-1.570481667"><ele>198.000000</ele><time>2010-07-07T09:52:39Z</time></trkpt>
	<trkpt lat="52.00652833" lon="-1.570546667"><ele>198.000000</ele><time>2010-07-07T09:52:44Z</time></trkpt>
	<trkpt lat="52.00655833" lon="-1.570625"><ele>198.000000</ele><time>2010-07-07T09:52:49Z</time></trkpt>
	<trkpt lat="52.00658" lon="-1.570696667"><ele>197.000000</ele><time>2010-07-07T09:52:54Z</time></trkpt>
	<trkpt lat="52.00659333" lon="-1.57074"><ele>197.000000</ele><time>2010-07-07T09:52:59Z</time></trkpt>
	<trkpt lat="52.00660833" lon="-1.57074"><ele>197.000000</ele><time>2010-07-07T09:53:04Z</time></trkpt>
	<trkpt lat="52.00663333" lon="-1.570753333"><ele>198.000000</ele><time>2010-07-07T09:53:09Z</time></trkpt>
	<trkpt lat="52.00666667" lon="-1.570748333"><ele>199.000000</ele><time>2010-07-07T09:53:14Z</time></trkpt>
	<trkpt lat="52.00669167" lon="-1.570683333"><ele>199.000000</ele><time>2010-07-07T09:53:19Z</time></trkpt>
	<trkpt lat="52.00671333" lon="-1.570608333"><ele>200.000000</ele><time>2010-07-07T09:53:24Z</time></trkpt>
	<trkpt lat="52.00673333" lon="-1.570533333"><ele>201.000000</ele><time>2010-07-07T09:53:29Z</time></trkpt>
	<trkpt lat="52.00675667" lon="-1.570456667"><ele>202.000000</ele><time>2010-07-07T09:53:34Z</time></trkpt>
	<trkpt lat="52.00678167" lon="-1.570376667"><ele>202.000000</ele><time>2010-07-07T09:53:39Z</time></trkpt>
	<trkpt lat="52.006805" lon="-1.570295"><ele>202.000000</ele><time>2010-07-07T09:53:44Z</time></trkpt>
	<trkpt lat="52.00682833" lon="-1.570211667"><ele>203.000000</ele><time>2010-07-07T09:53:49Z</time></trkpt>
	<trkpt lat="52.00685167" lon="-1.570131667"><ele>203.000000</ele><time>2010-07-07T09:53:54Z</time></trkpt>
	<trkpt lat="52.00687333" lon="-1.570058333"><ele>203.000000</ele><time>2010-07-07T09:53:59Z</time></trkpt>
	<trkpt lat="52.00689333" lon="-1.56998"><ele>203.000000</ele><time>2010-07-07T09:54:04Z</time></trkpt>
	<trkpt lat="52.00691667" lon="-1.569908333"><ele>203.000000</ele><time>2010-07-07T09:54:09Z</time></trkpt>
	<trkpt lat="52.00693833" lon="-1.569835"><ele>204.000000</ele><time>2010-07-07T09:54:14Z</time></trkpt>
	<trkpt lat="52.00695667" lon="-1.56976"><ele>205.000000</ele><time>2010-07-07T09:54:19Z</time></trkpt>
	<trkpt lat="52.00698333" lon="-1.569683333"><ele>205.000000</ele><time>2010-07-07T09:54:24Z</time></trkpt>
	<trkpt lat="52.007005" lon="-1.569601667"><ele>204.000000</ele><time>2010-07-07T09:54:29Z</time></trkpt>
	<trkpt lat="52.00703833" lon="-1.569525"><ele>204.000000</ele><time>2010-07-07T09:54:34Z</time></trkpt>
	<trkpt lat="52.007075" lon="-1.569461667"><ele>204.000000</ele><time>2010-07-07T09:54:39Z</time></trkpt>
	<trkpt lat="52.0071" lon="-1.56938"><ele>204.000000</ele><time>2010-07-07T09:54:44Z</time></trkpt>
	<trkpt lat="52.007125" lon="-1.569295"><ele>204.000000</ele><time>2010-07-07T09:54:49Z</time></trkpt>
	<trkpt lat="52.00714833" lon="-1.569216667"><ele>203.000000</ele><time>2010-07-07T09:54:54Z</time></trkpt>
	<trkpt lat="52.00719667" lon="-1.569178333"><ele>203.000000</ele><time>2010-07-07T09:54:59Z</time></trkpt>
	<trkpt lat="52.007235" lon="-1.56918"><ele>203.000000</ele><time>2010-07-07T09:55:04Z</time></trkpt>
	<trkpt lat="52.007285" lon="-1.569223333"><ele>203.000000</ele><time>2010-07-07T09:55:09Z</time></trkpt>
	<trkpt lat="52.00733" lon="-1.56927"><ele>203.000000</ele><time>2010-07-07T09:55:14Z</time></trkpt>
	<trkpt lat="52.00737" lon="-1.569325"><ele>202.000000</ele><time>2010-07-07T09:55:19Z</time></trkpt>
	<trkpt lat="52.00741167" lon="-1.569381667"><ele>202.000000</ele><time>2010-07-07T09:55:24Z</time></trkpt>
	<trkpt lat="52.00745167" lon="-1.569436667"><ele>202.000000</ele><time>2010-07-07T09:55:29Z</time></trkpt>
	<trkpt lat="52.00749167" lon="-1.569496667"><ele>202.000000</ele><time>2010-07-07T09:55:34Z</time></trkpt>
	<trkpt lat="52.00753167" lon="-1.569551667"><ele>202.000000</ele><time>2010-07-07T09:55:39Z</time></trkpt>
	<trkpt lat="52.00756833" lon="-1.569608333"><ele>203.000000</ele><time>2010-07-07T09:55:44Z</time></trkpt>
	<trkpt lat="52.007605" lon="-1.569658333"><ele>203.000000</ele><time>2010-07-07T09:55:49Z</time></trkpt>
	<trkpt lat="52.00764167" lon="-1.569711667"><ele>204.000000</ele><time>2010-07-07T09:55:54Z</time></trkpt>
	<trkpt lat="52.00768167" lon="-1.569761667"><ele>205.000000</ele><time>2010-07-07T09:55:59Z</time></trkpt>
	<trkpt lat="52.00772333" lon="-1.56981"><ele>205.000000</ele><time>2010-07-07T09:56:04Z</time></trkpt>
	<trkpt lat="52.007765" lon="-1.569855"><ele>206.000000</ele><time>2010-07-07T09:56:09Z</time></trkpt>
	<trkpt lat="52.00781167" lon="-1.569896667"><ele>206.000000</ele><time>2010-07-07T09:56:14Z</time></trkpt>
	<trkpt lat="52.00785833" lon="-1.569936667"><ele>206.000000</ele><time>2010-07-07T09:56:19Z</time></trkpt>
	<trkpt lat="52.00790667" lon="-1.569973333"><ele>206.000000</ele><time>2010-07-07T09:56:24Z</time></trkpt>
	<trkpt lat="52.00795667" lon="-1.570005"><ele>205.000000</ele><time>2010-07-07T09:56:29Z</time></trkpt>
	<trkpt lat="52.00800833" lon="-1.570035"><ele>205.000000</ele><time>2010-07-07T09:56:34Z</time></trkpt>
	<trkpt lat="52.00805833" lon="-1.570055"><ele>205.000000</ele><time>2010-07-07T09:56:39Z</time></trkpt>
	<trkpt lat="52.00811" lon="-1.570078333"><ele>205.000000</ele><time>2010-07-07T09:56:44Z</time></trkpt>
	<trkpt lat="52.00816" lon="-1.570093333"><ele>205.000000</ele><time>2010-07-07T09:56:49Z</time></trkpt>
	<trkpt lat="52.00820833" lon="-1.570111667"><ele>205.000000</ele><time>2010-07-07T09:56:54Z</time></trkpt>
	<trkpt lat="52.00826333" lon="-1.570123333"><ele>204.000000</ele><time>2010-07-07T09:56:59Z</time></trkpt>
	<trkpt lat="52.00831167" lon="-1.570136667"><ele>204.000000</ele><time>2010-07-07T09:57:04Z</time></trkpt>
	<trkpt lat="52.008365" lon="-1.570153333"><ele>204.000000</ele><time>2010-07-07T09:57:09Z</time></trkpt>
	<trkpt lat="52.00841833" lon="-1.570168333"><ele>204.000000</ele><time>2010-07-07T09:57:14Z</time></trkpt>
	<trkpt lat="52.00847167" lon="-1.57018"><ele>204.000000</ele><time>2010-07-07T09:57:19Z</time></trkpt>
	<trkpt lat="52.00852167" lon="-1.570196667"><ele>204.000000</ele><time>2010-07-07T09:57:24Z</time></trkpt>
	<trkpt lat="52.00857333" lon="-1.57021"><ele>204.000000</ele><time>2010-07-07T09:57:29Z</time></trkpt>
	<trkpt lat="52.00862167" lon="-1.570223333"><ele>204.000000</ele><time>2010-07-07T09:57:34Z</time></trkpt>
	<trkpt lat="52.008675" lon="-1.570238333"><ele>204.000000</ele><time>2010-07-07T09:57:39Z</time></trkpt>
	<trkpt lat="52.00872667" lon="-1.570255"><ele>204.000000</ele><time>2010-07-07T09:57:44Z</time></trkpt>
	<trkpt lat="52.00878" lon="-1.570268333"><ele>204.000000</ele><time>2010-07-07T09:57:49Z</time></trkpt>
	<trkpt lat="52.00883667" lon="-1.570283333"><ele>204.000000</ele><time>2010-07-07T09:57:54Z</time></trkpt>
	<trkpt lat="52.00888833" lon="-1.570301667"><ele>204.000000</ele><time>2010-07-07T09:57:59Z</time></trkpt>
	<trkpt lat="52.00893833" lon="-1.570318333"><ele>204.000000</ele><time>2010-07-07T09:58:04Z</time></trkpt>
	<trkpt lat="52.00899167" lon="-1.570331667"><ele>205.000000</ele><time>2010-07-07T09:58:09Z</time></trkpt>
	<trkpt lat="52.00904333" lon="-1.570348333"><ele>205.000000</ele><time>2010-07-07T09:58:14Z</time></trkpt>
	<trkpt lat="52.0091" lon="-1.570368333"><ele>205.000000</ele><time>2010-07-07T09:58:19Z</time></trkpt>
	<trkpt lat="52.00915" lon="-1.570383333"><ele>205.000000</ele><time>2010-07-07T09:58:24Z</time></trkpt>
	<trkpt lat="52.0092" lon="-1.570403333"><ele>205.000000</ele><time>2010-07-07T09:58:29Z</time></trkpt>
	<trkpt lat="52.00924833" lon="-1.570423333"><ele>205.000000</ele><time>2010-07-07T09:58:34Z</time></trkpt>
	<trkpt lat="52.00929833" lon="-1.57044"><ele>205.000000</ele><time>2010-07-07T09:58:39Z</time></trkpt>
	<trkpt lat="52.00934833" lon="-1.570466667"><ele>205.000000</ele><time>2010-07-07T09:58:44Z</time></trkpt>
	<trkpt lat="52.0094" lon="-1.570496667"><ele>206.000000</ele><time>2010-07-07T09:58:49Z</time></trkpt>
	<trkpt lat="52.00945167" lon="-1.570531667"><ele>206.000000</ele><time>2010-07-07T09:58:54Z</time></trkpt>
	<trkpt lat="52.00949333" lon="-1.570551667"><ele>206.000000</ele><time>2010-07-07T09:58:59Z</time></trkpt>
	<trkpt lat="52.00952667" lon="-1.57058"><ele>206.000000</ele><time>2010-07-07T09:59:04Z</time></trkpt>
	<trkpt lat="52.00956167" lon="-1.570601667"><ele>206.000000</ele><time>2010-07-07T09:59:09Z</time></trkpt>
	<trkpt lat="52.00960333" lon="-1.57064"><ele>206.000000</ele><time>2010-07-07T09:59:14Z</time></trkpt>
	<trkpt lat="52.00964833" lon="-1.570678333"><ele>206.000000</ele><time>2010-07-07T09:59:19Z</time></trkpt>
	<trkpt lat="52.00969333" lon="-1.570715"><ele>206.000000</ele><time>2010-07-07T09:59:24Z</time></trkpt>
	<trkpt lat="52.00974" lon="-1.570758333"><ele>206.000000</ele><time>2010-07-07T09:59:29Z</time></trkpt>
	<trkpt lat="52.00979333" lon="-1.570805"><ele>206.000000</ele><time>2010-07-07T09:59:34Z</time></trkpt>
	<trkpt lat="52.00983833" lon="-1.570843333"><ele>206.000000</ele><time>2010-07-07T09:59:39Z</time></trkpt>
	<trkpt lat="52.00988333" lon="-1.570873333"><ele>207.000000</ele><time>2010-07-07T09:59:44Z</time></trkpt>
	<trkpt lat="52.00996167" lon="-1.570895"><ele>205.000000</ele><time>2010-07-07T09:59:49Z</time></trkpt>
	<trkpt lat="52.01000333" lon="-1.570993333"><ele>204.000000</ele><time>2010-07-07T09:59:54Z</time></trkpt>
	<trkpt lat="52.010045" lon="-1.571053333"><ele>200.000000</ele><time>2010-07-07T09:59:59Z</time></trkpt>
	<trkpt lat="52.01009667" lon="-1.571021667"><ele>199.000000</ele><time>2010-07-07T10:00:04Z</time></trkpt>
	<trkpt lat="52.01009" lon="-1.571063333"><ele>198.000000</ele><time>2010-07-07T10:00:09Z</time></trkpt>
	<trkpt lat="52.01009167" lon="-1.571096667"><ele>200.000000</ele><time>2010-07-07T10:00:14Z</time></trkpt>
	<trkpt lat="52.009885" lon="-1.571315"><ele>66.000000</ele><time>2010-07-07T10:00:28Z</time></trkpt>
	<trkpt lat="52.01058333" lon="-1.571675"><ele>203.000000</ele><time>2010-07-07T10:01:35Z</time></trkpt>
	<trkpt lat="52.010775" lon="-1.572161667"><ele>262.000000</ele><time>2010-07-07T10:01:40Z</time></trkpt>
	<trkpt lat="52.01081833" lon="-1.572121667"><ele>240.000000</ele><time>2010-07-07T10:01:45Z</time></trkpt>
	<trkpt lat="52.01087667" lon="-1.572033333"><ele>216.000000</ele><time>2010-07-07T10:01:50Z</time></trkpt>
	<trkpt lat="52.01091" lon="-1.572023333"><ele>207.000000</ele><time>2010-07-07T10:01:55Z</time></trkpt>
	<trkpt lat="52.01094833" lon="-1.572058333"><ele>209.000000</ele><time>2010-07-07T10:02:00Z</time></trkpt>
	<trkpt lat="52.01098833" lon="-1.572101667"><ele>209.000000</ele><time>2010-07-07T10:02:05Z</time></trkpt>
	<trkpt lat="52.01102667" lon="-1.572145"><ele>209.000000</ele><time>2010-07-07T10:02:10Z</time></trkpt>
	<trkpt lat="52.01106667" lon="-1.572193333"><ele>208.000000</ele><time>2010-07-07T10:02:15Z</time></trkpt>
	<trkpt lat="52.0111" lon="-1.572243333"><ele>209.000000</ele><time>2010-07-07T10:02:20Z</time></trkpt>
	<trkpt lat="52.01112333" lon="-1.572298333"><ele>209.000000</ele><time>2010-07-07T10:02:25Z</time></trkpt>
	<trkpt lat="52.01115333" lon="-1.572343333"><ele>209.000000</ele><time>2010-07-07T10:02:30Z</time></trkpt>
	<trkpt lat="52.01118667" lon="-1.572391667"><ele>208.000000</ele><time>2010-07-07T10:02:35Z</time></trkpt>
	<trkpt lat="52.01121167" lon="-1.572451667"><ele>207.000000</ele><time>2010-07-07T10:02:40Z</time></trkpt>
	<trkpt lat="52.01124" lon="-1.572508333"><ele>208.000000</ele><time>2010-07-07T10:02:45Z</time></trkpt>
	<trkpt lat="52.011265" lon="-1.572561667"><ele>207.000000</ele><time>2010-07-07T10:02:50Z</time></trkpt>
	<trkpt lat="52.01128333" lon="-1.572608333"><ele>206.000000</ele><time>2010-07-07T10:02:55Z</time></trkpt>
	<trkpt lat="52.01130667" lon="-1.572661667"><ele>206.000000</ele><time>2010-07-07T10:03:00Z</time></trkpt>
	<trkpt lat="52.01133333" lon="-1.572733333"><ele>206.000000</ele><time>2010-07-07T10:03:05Z</time></trkpt>
	<trkpt lat="52.01136667" lon="-1.572785"><ele>205.000000</ele><time>2010-07-07T10:03:10Z</time></trkpt>
	<trkpt lat="52.01140833" lon="-1.572848333"><ele>202.000000</ele><time>2010-07-07T10:03:15Z</time></trkpt>
	<trkpt lat="52.01144167" lon="-1.572891667"><ele>201.000000</ele><time>2010-07-07T10:03:20Z</time></trkpt>
	<trkpt lat="52.01148333" lon="-1.572948333"><ele>201.000000</ele><time>2010-07-07T10:03:25Z</time></trkpt>
	<trkpt lat="52.01152833" lon="-1.573"><ele>200.000000</ele><time>2010-07-07T10:03:30Z</time></trkpt>
	<trkpt lat="52.01157833" lon="-1.573046667"><ele>200.000000</ele><time>2010-07-07T10:03:35Z</time></trkpt>
	<trkpt lat="52.011625" lon="-1.57309"><ele>200.000000</ele><time>2010-07-07T10:03:40Z</time></trkpt>
	<trkpt lat="52.01166333" lon="-1.573136667"><ele>198.000000</ele><time>2010-07-07T10:03:45Z</time></trkpt>
	<trkpt lat="52.01171167" lon="-1.573158333"><ele>197.000000</ele><time>2010-07-07T10:03:50Z</time></trkpt>
	<trkpt lat="52.01173333" lon="-1.573186667"><ele>197.000000</ele><time>2010-07-07T10:03:55Z</time></trkpt>
	<trkpt lat="52.01173167" lon="-1.573188333"><ele>196.000000</ele><time>2010-07-07T10:04:00Z</time></trkpt>
	<trkpt lat="52.011735" lon="-1.57319"><ele>196.000000</ele><time>2010-07-07T10:04:05Z</time></trkpt>
	<trkpt lat="52.01173833" lon="-1.5732"><ele>196.000000</ele><time>2010-07-07T10:04:10Z</time></trkpt>
	<trkpt lat="52.01176833" lon="-1.573215"><ele>195.000000</ele><time>2010-07-07T10:04:15Z</time></trkpt>
	<trkpt lat="52.01181667" lon="-1.573255"><ele>195.000000</ele><time>2010-07-07T10:04:20Z</time></trkpt>
	<trkpt lat="52.01185333" lon="-1.573305"><ele>195.000000</ele><time>2010-07-07T10:04:25Z</time></trkpt>
	<trkpt lat="52.01186333" lon="-1.573308333"><ele>195.000000</ele><time>2010-07-07T10:04:30Z</time></trkpt>
	<trkpt lat="52.01187" lon="-1.573318333"><ele>195.000000</ele><time>2010-07-07T10:04:35Z</time></trkpt>
	<trkpt lat="52.01187333" lon="-1.573328333"><ele>195.000000</ele><time>2010-07-07T10:04:40Z</time></trkpt>
	<trkpt lat="52.01187833" lon="-1.573335"><ele>195.000000</ele><time>2010-07-07T10:04:45Z</time></trkpt>
	<trkpt lat="52.01188333" lon="-1.573361667"><ele>195.000000</ele><time>2010-07-07T10:04:50Z</time></trkpt>
	<trkpt lat="52.01186667" lon="-1.573418333"><ele>195.000000</ele><time>2010-07-07T10:04:55Z</time></trkpt>
	<trkpt lat="52.01187333" lon="-1.573428333"><ele>195.000000</ele><time>2010-07-07T10:05:00Z</time></trkpt>
	<trkpt lat="52.01190333" lon="-1.573406667"><ele>194.000000</ele><time>2010-07-07T10:05:05Z</time></trkpt>
	<trkpt lat="52.01193167" lon="-1.573393333"><ele>195.000000</ele><time>2010-07-07T10:05:10Z</time></trkpt>
	<trkpt lat="52.01194667" lon="-1.573401667"><ele>194.000000</ele><time>2010-07-07T10:05:15Z</time></trkpt>
	<trkpt lat="52.01194667" lon="-1.573403333"><ele>194.000000</ele><time>2010-07-07T10:05:20Z</time></trkpt>
	<trkpt lat="52.01194333" lon="-1.573405"><ele>193.000000</ele><time>2010-07-07T10:05:25Z</time></trkpt>
	<trkpt lat="52.01194333" lon="-1.573416667"><ele>193.000000</ele><time>2010-07-07T10:05:30Z</time></trkpt>
	<trkpt lat="52.01193" lon="-1.573428333"><ele>193.000000</ele><time>2010-07-07T10:05:35Z</time></trkpt>
	<trkpt lat="52.01193833" lon="-1.573433333"><ele>193.000000</ele><time>2010-07-07T10:05:40Z</time></trkpt>
	<trkpt lat="52.01194" lon="-1.573435"><ele>193.000000</ele><time>2010-07-07T10:05:45Z</time></trkpt>
	<trkpt lat="52.01194" lon="-1.573435"><ele>193.000000</ele><time>2010-07-07T10:05:50Z</time></trkpt>
	<trkpt lat="52.01193833" lon="-1.573435"><ele>193.000000</ele><time>2010-07-07T10:05:55Z</time></trkpt>
	<trkpt lat="52.01194" lon="-1.573436667"><ele>193.000000</ele><time>2010-07-07T10:06:00Z</time></trkpt>
	<trkpt lat="52.01194167" lon="-1.573435"><ele>193.000000</ele><time>2010-07-07T10:06:05Z</time></trkpt>
	<trkpt lat="52.01194" lon="-1.573435"><ele>193.000000</ele><time>2010-07-07T10:06:10Z</time></trkpt>
	<trkpt lat="52.01193833" lon="-1.573433333"><ele>193.000000</ele><time>2010-07-07T10:06:15Z</time></trkpt>
	<trkpt lat="52.01194" lon="-1.573431667"><ele>193.000000</ele><time>2010-07-07T10:06:20Z</time></trkpt>
	<trkpt lat="52.011935" lon="-1.573435"><ele>193.000000</ele><time>2010-07-07T10:06:25Z</time></trkpt>
	<trkpt lat="52.01193333" lon="-1.573431667"><ele>193.000000</ele><time>2010-07-07T10:06:30Z</time></trkpt>
	<trkpt lat="52.01193167" lon="-1.573431667"><ele>192.000000</ele><time>2010-07-07T10:06:35Z</time></trkpt>
	<trkpt lat="52.01192833" lon="-1.573433333"><ele>191.000000</ele><time>2010-07-07T10:06:40Z</time></trkpt>
	<trkpt lat="52.01192833" lon="-1.573431667"><ele>190.000000</ele><time>2010-07-07T10:06:45Z</time></trkpt>
	<trkpt lat="52.01193167" lon="-1.573431667"><ele>190.000000</ele><time>2010-07-07T10:06:50Z</time></trkpt>
	<trkpt lat="52.011935" lon="-1.573426667"><ele>190.000000</ele><time>2010-07-07T10:06:55Z</time></trkpt>
	<trkpt lat="52.01193333" lon="-1.573425"><ele>190.000000</ele><time>2010-07-07T10:07:00Z</time></trkpt>
	<trkpt lat="52.01193167" lon="-1.573421667"><ele>190.000000</ele><time>2010-07-07T10:07:05Z</time></trkpt>
	<trkpt lat="52.011925" lon="-1.573421667"><ele>191.000000</ele><time>2010-07-07T10:07:10Z</time></trkpt>
	<trkpt lat="52.01191833" lon="-1.573421667"><ele>192.000000</ele><time>2010-07-07T10:07:15Z</time></trkpt>
	<trkpt lat="52.01192" lon="-1.57342"><ele>191.000000</ele><time>2010-07-07T10:07:20Z</time></trkpt>
	<trkpt lat="52.011915" lon="-1.57342"><ele>192.000000</ele><time>2010-07-07T10:07:25Z</time></trkpt>
	<trkpt lat="52.01192" lon="-1.573421667"><ele>192.000000</ele><time>2010-07-07T10:07:30Z</time></trkpt>
	<trkpt lat="52.01192333" lon="-1.573425"><ele>192.000000</ele><time>2010-07-07T10:07:35Z</time></trkpt>
	<trkpt lat="52.011925" lon="-1.573425"><ele>191.000000</ele><time>2010-07-07T10:07:40Z</time></trkpt>
	<trkpt lat="52.01192667" lon="-1.573425"><ele>191.000000</ele><time>2010-07-07T10:07:45Z</time></trkpt>
	<trkpt lat="52.01192667" lon="-1.573428333"><ele>191.000000</ele><time>2010-07-07T10:07:50Z</time></trkpt>
	<trkpt lat="52.01192667" lon="-1.573428333"><ele>191.000000</ele><time>2010-07-07T10:07:55Z</time></trkpt>
	<trkpt lat="52.01192833" lon="-1.573428333"><ele>191.000000</ele><time>2010-07-07T10:08:00Z</time></trkpt>
	<trkpt lat="52.01192667" lon="-1.573425"><ele>191.000000</ele><time>2010-07-07T10:08:05Z</time></trkpt>
	<trkpt lat="52.011925" lon="-1.573421667"><ele>191.000000</ele><time>2010-07-07T10:08:10Z</time></trkpt>
	<trkpt lat="52.011925" lon="-1.573421667"><ele>192.000000</ele><time>2010-07-07T10:08:15Z</time></trkpt>
	<trkpt lat="52.01192667" lon="-1.573421667"><ele>192.000000</ele><time>2010-07-07T10:08:20Z</time></trkpt>
	<trkpt lat="52.01192833" lon="-1.57342"><ele>192.000000</ele><time>2010-07-07T10:08:25Z</time></trkpt>
	<trkpt lat="52.01193" lon="-1.573426667"><ele>192.000000</ele><time>2010-07-07T10:08:30Z</time></trkpt>
	<trkpt lat="52.01193" lon="-1.573426667"><ele>192.000000</ele><time>2010-07-07T10:08:35Z</time></trkpt>
	<trkpt lat="52.01192833" lon="-1.57342"><ele>192.000000</ele><time>2010-07-07T10:08:40Z</time></trkpt>
	<trkpt lat="52.01193167" lon="-1.573418333"><ele>192.000000</ele><time>2010-07-07T10:08:45Z</time></trkpt>
	<trkpt lat="52.01193333" lon="-1.573416667"><ele>192.000000</ele><time>2010-07-07T10:08:50Z</time></trkpt>
	<trkpt lat="52.01193667" lon="-1.573411667"><ele>193.000000</ele><time>2010-07-07T10:08:55Z</time></trkpt>
	<trkpt lat="52.01193667" lon="-1.573408333"><ele>192.000000</ele><time>2010-07-07T10:09:00Z</time></trkpt>
	<trkpt lat="52.011935" lon="-1.573408333"><ele>192.000000</ele><time>2010-07-07T10:09:05Z</time></trkpt>
	<trkpt lat="52.01193667" lon="-1.573411667"><ele>192.000000</ele><time>2010-07-07T10:09:10Z</time></trkpt>
	<trkpt lat="52.01193667" lon="-1.573408333"><ele>192.000000</ele><time>2010-07-07T10:09:15Z</time></trkpt>
	<trkpt lat="52.011935" lon="-1.573408333"><ele>192.000000</ele><time>2010-07-07T10:09:20Z</time></trkpt>
	<trkpt lat="52.01192833" lon="-1.573405"><ele>191.000000</ele><time>2010-07-07T10:09:25Z</time></trkpt>
	<trkpt lat="52.01193667" lon="-1.573408333"><ele>193.000000</ele><time>2010-07-07T10:09:30Z</time></trkpt>
	<trkpt lat="52.01193667" lon="-1.573408333"><ele>193.000000</ele><time>2010-07-07T10:09:35Z</time></trkpt>
	<trkpt lat="52.01193333" lon="-1.573408333"><ele>193.000000</ele><time>2010-07-07T10:09:40Z</time></trkpt>
	<trkpt lat="52.01193333" lon="-1.573411667"><ele>193.000000</ele><time>2010-07-07T10:09:45Z</time></trkpt>
	<trkpt lat="52.01193167" lon="-1.573408333"><ele>193.000000</ele><time>2010-07-07T10:09:50Z</time></trkpt>
	<trkpt lat="52.01193" lon="-1.573411667"><ele>193.000000</ele><time>2010-07-07T10:09:55Z</time></trkpt>
	<trkpt lat="52.01193" lon="-1.573408333"><ele>194.000000</ele><time>2010-07-07T10:10:00Z</time></trkpt>
	<trkpt lat="52.01193333" lon="-1.573408333"><ele>194.000000</ele><time>2010-07-07T10:10:05Z</time></trkpt>
	<trkpt lat="52.011935" lon="-1.573411667"><ele>194.000000</ele><time>2010-07-07T10:10:10Z</time></trkpt>
	<trkpt lat="52.011935" lon="-1.573415"><ele>194.000000</ele><time>2010-07-07T10:10:15Z</time></trkpt>
	<trkpt lat="52.01193333" lon="-1.573416667"><ele>194.000000</ele><time>2010-07-07T10:10:20Z</time></trkpt>
	<trkpt lat="52.011935" lon="-1.573413333"><ele>194.000000</ele><time>2010-07-07T10:10:25Z</time></trkpt>
	<trkpt lat="52.01193833" lon="-1.573411667"><ele>194.000000</ele><time>2010-07-07T10:10:30Z</time></trkpt>
	<trkpt lat="52.01194167" lon="-1.573413333"><ele>193.000000</ele><time>2010-07-07T10:10:35Z</time></trkpt>
	<trkpt lat="52.01194" lon="-1.573408333"><ele>193.000000</ele><time>2010-07-07T10:10:40Z</time></trkpt>
	<trkpt lat="52.01194167" lon="-1.573406667"><ele>193.000000</ele><time>2010-07-07T10:10:45Z</time></trkpt>
	<trkpt lat="52.011945" lon="-1.573408333"><ele>193.000000</ele><time>2010-07-07T10:10:50Z</time></trkpt>
	<trkpt lat="52.01194333" lon="-1.573408333"><ele>193.000000</ele><time>2010-07-07T10:10:55Z</time></trkpt>
	<trkpt lat="52.01194333" lon="-1.573405"><ele>193.000000</ele><time>2010-07-07T10:11:00Z</time></trkpt>
	<trkpt lat="52.011945" lon="-1.573406667"><ele>193.000000</ele><time>2010-07-07T10:11:05Z</time></trkpt>
	<trkpt lat="52.011945" lon="-1.573405"><ele>193.000000</ele><time>2010-07-07T10:11:10Z</time></trkpt>
	<trkpt lat="52.01194333" lon="-1.573398333"><ele>193.000000</ele><time>2010-07-07T10:11:15Z</time></trkpt>
	<trkpt lat="52.011945" lon="-1.5734"><ele>193.000000</ele><time>2010-07-07T10:11:21Z</time></trkpt>
	<trkpt lat="52.011945" lon="-1.5734"><ele>193.000000</ele><time>2010-07-07T10:11:26Z</time></trkpt>
	<trkpt lat="52.01194167" lon="-1.573398333"><ele>192.000000</ele><time>2010-07-07T10:11:31Z</time></trkpt>
	<trkpt lat="52.01193833" lon="-1.573396667"><ele>192.000000</ele><time>2010-07-07T10:11:36Z</time></trkpt>
	<trkpt lat="52.01193833" lon="-1.5734"><ele>192.000000</ele><time>2010-07-07T10:11:41Z</time></trkpt>
	<trkpt lat="52.01194" lon="-1.573405"><ele>191.000000</ele><time>2010-07-07T10:11:46Z</time></trkpt>
	<trkpt lat="52.01193833" lon="-1.573408333"><ele>192.000000</ele><time>2010-07-07T10:11:51Z</time></trkpt>
	<trkpt lat="52.01194" lon="-1.573411667"><ele>192.000000</ele><time>2010-07-07T10:11:56Z</time></trkpt>
	<trkpt lat="52.01193667" lon="-1.573413333"><ele>192.000000</ele><time>2010-07-07T10:12:01Z</time></trkpt>
	<trkpt lat="52.01193333" lon="-1.573408333"><ele>192.000000</ele><time>2010-07-07T10:12:06Z</time></trkpt>
	<trkpt lat="52.01193667" lon="-1.573408333"><ele>192.000000</ele><time>2010-07-07T10:12:11Z</time></trkpt>
	<trkpt lat="52.01193833" lon="-1.573406667"><ele>192.000000</ele><time>2010-07-07T10:12:16Z</time></trkpt>
	<trkpt lat="52.01193667" lon="-1.573401667"><ele>192.000000</ele><time>2010-07-07T10:12:21Z</time></trkpt>
	<trkpt lat="52.01194" lon="-1.5734"><ele>192.000000</ele><time>2010-07-07T10:12:26Z</time></trkpt>
	<trkpt lat="52.01194167" lon="-1.573398333"><ele>192.000000</ele><time>2010-07-07T10:12:31Z</time></trkpt>
	<trkpt lat="52.01194167" lon="-1.573396667"><ele>192.000000</ele><time>2010-07-07T10:12:36Z</time></trkpt>
	<trkpt lat="52.01194167" lon="-1.573396667"><ele>192.000000</ele><time>2010-07-07T10:12:41Z</time></trkpt>
	<trkpt lat="52.01194" lon="-1.573396667"><ele>192.000000</ele><time>2010-07-07T10:12:46Z</time></trkpt>
	<trkpt lat="52.01193833" lon="-1.573393333"><ele>192.000000</ele><time>2010-07-07T10:12:51Z</time></trkpt>
	<trkpt lat="52.01194167" lon="-1.573393333"><ele>192.000000</ele><time>2010-07-07T10:12:56Z</time></trkpt>
	<trkpt lat="52.01194" lon="-1.573393333"><ele>192.000000</ele><time>2010-07-07T10:13:01Z</time></trkpt>
	<trkpt lat="52.01194" lon="-1.573391667"><ele>192.000000</ele><time>2010-07-07T10:13:06Z</time></trkpt>
	<trkpt lat="52.01194" lon="-1.573391667"><ele>192.000000</ele><time>2010-07-07T10:13:11Z</time></trkpt>
	<trkpt lat="52.01194333" lon="-1.5734"><ele>192.000000</ele><time>2010-07-07T10:13:16Z</time></trkpt>
	<trkpt lat="52.01194167" lon="-1.573408333"><ele>192.000000</ele><time>2010-07-07T10:13:21Z</time></trkpt>
	<trkpt lat="52.01194333" lon="-1.573408333"><ele>192.000000</ele><time>2010-07-07T10:13:26Z</time></trkpt>
	<trkpt lat="52.01194167" lon="-1.573408333"><ele>193.000000</ele><time>2010-07-07T10:13:31Z</time></trkpt>
	<trkpt lat="52.01194" lon="-1.573408333"><ele>193.000000</ele><time>2010-07-07T10:13:36Z</time></trkpt>
	<trkpt lat="52.01194" lon="-1.573411667"><ele>193.000000</ele><time>2010-07-07T10:13:41Z</time></trkpt>
	<trkpt lat="52.01193833" lon="-1.573413333"><ele>193.000000</ele><time>2010-07-07T10:13:46Z</time></trkpt>
	<trkpt lat="52.01193833" lon="-1.573413333"><ele>193.000000</ele><time>2010-07-07T10:13:51Z</time></trkpt>
	<trkpt lat="52.01193833" lon="-1.573413333"><ele>193.000000</ele><time>2010-07-07T10:13:56Z</time></trkpt>
	<trkpt lat="52.01193833" lon="-1.573413333"><ele>193.000000</ele><time>2010-07-07T10:14:01Z</time></trkpt>
	<trkpt lat="52.01193833" lon="-1.573413333"><ele>193.000000</ele><time>2010-07-07T10:14:06Z</time></trkpt>
	<trkpt lat="52.01193833" lon="-1.573413333"><ele>193.000000</ele><time>2010-07-07T10:14:11Z</time></trkpt>
	<trkpt lat="52.01194" lon="-1.573415"><ele>193.000000</ele><time>2010-07-07T10:14:16Z</time></trkpt>
	<trkpt lat="52.01194" lon="-1.573413333"><ele>193.000000</ele><time>2010-07-07T10:14:21Z</time></trkpt>
	<trkpt lat="52.01194" lon="-1.573415"><ele>193.000000</ele><time>2010-07-07T10:14:26Z</time></trkpt>
	<trkpt lat="52.01194167" lon="-1.573416667"><ele>193.000000</ele><time>2010-07-07T10:14:31Z</time></trkpt>
	<trkpt lat="52.01194167" lon="-1.573416667"><ele>193.000000</ele><time>2010-07-07T10:14:36Z</time></trkpt>
	<trkpt lat="52.01194" lon="-1.573416667"><ele>193.000000</ele><time>2010-07-07T10:14:41Z</time></trkpt>
	<trkpt lat="52.01193833" lon="-1.573415"><ele>193.000000</ele><time>2010-07-07T10:14:46Z</time></trkpt>
	<trkpt lat="52.01193833" lon="-1.573415"><ele>193.000000</ele><time>2010-07-07T10:14:51Z</time></trkpt>
	<trkpt lat="52.01193833" lon="-1.573415"><ele>193.000000</ele><time>2010-07-07T10:14:56Z</time></trkpt>
	<trkpt lat="52.01193833" lon="-1.573413333"><ele>192.000000</ele><time>2010-07-07T10:15:01Z</time></trkpt>
	<trkpt lat="52.01193833" lon="-1.573413333"><ele>192.000000</ele><time>2010-07-07T10:15:06Z</time></trkpt>
	<trkpt lat="52.01193667" lon="-1.573413333"><ele>193.000000</ele><time>2010-07-07T10:15:11Z</time></trkpt>
	<trkpt lat="52.01193667" lon="-1.573413333"><ele>193.000000</ele><time>2010-07-07T10:15:16Z</time></trkpt>
	<trkpt lat="52.01193667" lon="-1.573413333"><ele>193.000000</ele><time>2010-07-07T10:15:21Z</time></trkpt>
	<trkpt lat="52.011935" lon="-1.573415"><ele>193.000000</ele><time>2010-07-07T10:15:26Z</time></trkpt>
	<trkpt lat="52.011935" lon="-1.573415"><ele>193.000000</ele><time>2010-07-07T10:15:31Z</time></trkpt>
	<trkpt lat="52.011935" lon="-1.573413333"><ele>193.000000</ele><time>2010-07-07T10:15:36Z</time></trkpt>
	<trkpt lat="52.01193333" lon="-1.573413333"><ele>193.000000</ele><time>2010-07-07T10:15:41Z</time></trkpt>
	<trkpt lat="52.01193333" lon="-1.573415"><ele>193.000000</ele><time>2010-07-07T10:15:46Z</time></trkpt>
	<trkpt lat="52.01193333" lon="-1.573415"><ele>193.000000</ele><time>2010-07-07T10:15:51Z</time></trkpt>
	<trkpt lat="52.01193167" lon="-1.573416667"><ele>193.000000</ele><time>2010-07-07T10:15:56Z</time></trkpt>
	<trkpt lat="52.01193167" lon="-1.573416667"><ele>192.000000</ele><time>2010-07-07T10:16:01Z</time></trkpt>
	<trkpt lat="52.01193167" lon="-1.573416667"><ele>192.000000</ele><time>2010-07-07T10:16:06Z</time></trkpt>
	<trkpt lat="52.01192833" lon="-1.573416667"><ele>192.000000</ele><time>2010-07-07T10:16:11Z</time></trkpt>
	<trkpt lat="52.01193167" lon="-1.573416667"><ele>192.000000</ele><time>2010-07-07T10:16:16Z</time></trkpt>
	<trkpt lat="52.01193333" lon="-1.573416667"><ele>193.000000</ele><time>2010-07-07T10:16:21Z</time></trkpt>
	<trkpt lat="52.01193333" lon="-1.573416667"><ele>192.000000</ele><time>2010-07-07T10:16:26Z</time></trkpt>
	<trkpt lat="52.01193333" lon="-1.573416667"><ele>192.000000</ele><time>2010-07-07T10:16:31Z</time></trkpt>
	<trkpt lat="52.01193333" lon="-1.573418333"><ele>192.000000</ele><time>2010-07-07T10:16:36Z</time></trkpt>
	<trkpt lat="52.01193167" lon="-1.573415"><ele>192.000000</ele><time>2010-07-07T10:16:41Z</time></trkpt>
	<trkpt lat="52.01193333" lon="-1.573416667"><ele>192.000000</ele><time>2010-07-07T10:16:46Z</time></trkpt>
	<trkpt lat="52.01193167" lon="-1.573415"><ele>192.000000</ele><time>2010-07-07T10:16:51Z</time></trkpt>
	<trkpt lat="52.01193167" lon="-1.573415"><ele>192.000000</ele><time>2010-07-07T10:16:56Z</time></trkpt>
	<trkpt lat="52.01193" lon="-1.573413333"><ele>192.000000</ele><time>2010-07-07T10:17:01Z</time></trkpt>
	<trkpt lat="52.01193167" lon="-1.573413333"><ele>192.000000</ele><time>2010-07-07T10:17:06Z</time></trkpt>
	<trkpt lat="52.01193167" lon="-1.573411667"><ele>192.000000</ele><time>2010-07-07T10:17:11Z</time></trkpt>
	<trkpt lat="52.01193167" lon="-1.573411667"><ele>192.000000</ele><time>2010-07-07T10:17:16Z</time></trkpt>
	<trkpt lat="52.01193333" lon="-1.573408333"><ele>192.000000</ele><time>2010-07-07T10:17:21Z</time></trkpt>
	<trkpt lat="52.01193333" lon="-1.573408333"><ele>192.000000</ele><time>2010-07-07T10:17:26Z</time></trkpt>
	<trkpt lat="52.01193333" lon="-1.573408333"><ele>192.000000</ele><time>2010-07-07T10:17:31Z</time></trkpt>
	<trkpt lat="52.011935" lon="-1.573408333"><ele>192.000000</ele><time>2010-07-07T10:17:36Z</time></trkpt>
	<trkpt lat="52.01193667" lon="-1.573411667"><ele>192.000000</ele><time>2010-07-07T10:17:41Z</time></trkpt>
	<trkpt lat="52.01194167" lon="-1.573411667"><ele>192.000000</ele><time>2010-07-07T10:17:46Z</time></trkpt>
	<trkpt lat="52.01194" lon="-1.573411667"><ele>192.000000</ele><time>2010-07-07T10:17:51Z</time></trkpt>
	<trkpt lat="52.01194167" lon="-1.573411667"><ele>192.000000</ele><time>2010-07-07T10:17:56Z</time></trkpt>
	<trkpt lat="52.01194333" lon="-1.573413333"><ele>192.000000</ele><time>2010-07-07T10:18:01Z</time></trkpt>
	<trkpt lat="52.01194167" lon="-1.573408333"><ele>192.000000</ele><time>2010-07-07T10:18:06Z</time></trkpt>
	<trkpt lat="52.01194167" lon="-1.573411667"><ele>192.000000</ele><time>2010-07-07T10:18:11Z</time></trkpt>
	<trkpt lat="52.01194167" lon="-1.573408333"><ele>192.000000</ele><time>2010-07-07T10:18:16Z</time></trkpt>
	<trkpt lat="52.01194167" lon="-1.573408333"><ele>192.000000</ele><time>2010-07-07T10:18:21Z</time></trkpt>
	<trkpt lat="52.01194" lon="-1.573408333"><ele>192.000000</ele><time>2010-07-07T10:18:26Z</time></trkpt>
	<trkpt lat="52.01193667" lon="-1.573406667"><ele>191.000000</ele><time>2010-07-07T10:18:31Z</time></trkpt>
	<trkpt lat="52.01193167" lon="-1.573405"><ele>191.000000</ele><time>2010-07-07T10:18:36Z</time></trkpt>
	<trkpt lat="52.01193" lon="-1.573408333"><ele>191.000000</ele><time>2010-07-07T10:18:41Z</time></trkpt>
	<trkpt lat="52.01193333" lon="-1.573408333"><ele>191.000000</ele><time>2010-07-07T10:18:46Z</time></trkpt>
	<trkpt lat="52.01193" lon="-1.573416667"><ele>191.000000</ele><time>2010-07-07T10:18:51Z</time></trkpt>
	<trkpt lat="52.01193333" lon="-1.573418333"><ele>191.000000</ele><time>2010-07-07T10:18:56Z</time></trkpt>
	<trkpt lat="52.01193333" lon="-1.573418333"><ele>192.000000</ele><time>2010-07-07T10:19:01Z</time></trkpt>
	<trkpt lat="52.01193833" lon="-1.573421667"><ele>192.000000</ele><time>2010-07-07T10:19:06Z</time></trkpt>
	<trkpt lat="52.01194167" lon="-1.573421667"><ele>193.000000</ele><time>2010-07-07T10:19:11Z</time></trkpt>
	<trkpt lat="52.011945" lon="-1.573421667"><ele>193.000000</ele><time>2010-07-07T10:19:16Z</time></trkpt>
	<trkpt lat="52.011945" lon="-1.573421667"><ele>193.000000</ele><time>2010-07-07T10:19:21Z</time></trkpt>
	<trkpt lat="52.01194667" lon="-1.57342"><ele>193.000000</ele><time>2010-07-07T10:19:26Z</time></trkpt>
	<trkpt lat="52.01195" lon="-1.57342"><ele>194.000000</ele><time>2010-07-07T10:19:31Z</time></trkpt>
	<trkpt lat="52.011955" lon="-1.57342"><ele>194.000000</ele><time>2010-07-07T10:19:36Z</time></trkpt>
	<trkpt lat="52.01196" lon="-1.573421667"><ele>195.000000</ele><time>2010-07-07T10:19:41Z</time></trkpt>
	<trkpt lat="52.01196333" lon="-1.573425"><ele>195.000000</ele><time>2010-07-07T10:19:46Z</time></trkpt>
	<trkpt lat="52.01196" lon="-1.573421667"><ele>195.000000</ele><time>2010-07-07T10:19:51Z</time></trkpt>
	<trkpt lat="52.01195833" lon="-1.573421667"><ele>194.000000</ele><time>2010-07-07T10:19:56Z</time></trkpt>
	<trkpt lat="52.011955" lon="-1.573421667"><ele>194.000000</ele><time>2010-07-07T10:20:01Z</time></trkpt>
	<trkpt lat="52.01195667" lon="-1.573421667"><ele>194.000000</ele><time>2010-07-07T10:20:06Z</time></trkpt>
	<trkpt lat="52.01196" lon="-1.573421667"><ele>194.000000</ele><time>2010-07-07T10:20:11Z</time></trkpt>
	<trkpt lat="52.01196167" lon="-1.573421667"><ele>194.000000</ele><time>2010-07-07T10:20:16Z</time></trkpt>
	<trkpt lat="52.01196333" lon="-1.573421667"><ele>194.000000</ele><time>2010-07-07T10:20:21Z</time></trkpt>
	<trkpt lat="52.01196167" lon="-1.573421667"><ele>194.000000</ele><time>2010-07-07T10:20:26Z</time></trkpt>
	<trkpt lat="52.01196" lon="-1.573421667"><ele>194.000000</ele><time>2010-07-07T10:20:31Z</time></trkpt>
	<trkpt lat="52.01195833" lon="-1.573421667"><ele>194.000000</ele><time>2010-07-07T10:20:36Z</time></trkpt>
	<trkpt lat="52.01195833" lon="-1.57342"><ele>194.000000</ele><time>2010-07-07T10:20:41Z</time></trkpt>
	<trkpt lat="52.01195833" lon="-1.57342"><ele>194.000000</ele><time>2010-07-07T10:20:46Z</time></trkpt>
	<trkpt lat="52.01195667" lon="-1.573421667"><ele>194.000000</ele><time>2010-07-07T10:20:51Z</time></trkpt>
	<trkpt lat="52.011955" lon="-1.573421667"><ele>194.000000</ele><time>2010-07-07T10:20:56Z</time></trkpt>
	<trkpt lat="52.01195667" lon="-1.573421667"><ele>194.000000</ele><time>2010-07-07T10:21:01Z</time></trkpt>
	<trkpt lat="52.01195667" lon="-1.573421667"><ele>194.000000</ele><time>2010-07-07T10:21:06Z</time></trkpt>
	<trkpt lat="52.01195667" lon="-1.573421667"><ele>194.000000</ele><time>2010-07-07T10:21:11Z</time></trkpt>
	<trkpt lat="52.01195667" lon="-1.57342"><ele>194.000000</ele><time>2010-07-07T10:21:16Z</time></trkpt>
	<trkpt lat="52.01195833" lon="-1.573418333"><ele>194.000000</ele><time>2010-07-07T10:21:21Z</time></trkpt>
	<trkpt lat="52.011955" lon="-1.573418333"><ele>194.000000</ele><time>2010-07-07T10:21:26Z</time></trkpt>
	<trkpt lat="52.01194667" lon="-1.573416667"><ele>193.000000</ele><time>2010-07-07T10:21:31Z</time></trkpt>
	<trkpt lat="52.01194167" lon="-1.573418333"><ele>193.000000</ele><time>2010-07-07T10:21:36Z</time></trkpt>
	<trkpt lat="52.01194167" lon="-1.57342"><ele>193.000000</ele><time>2010-07-07T10:21:41Z</time></trkpt>
	<trkpt lat="52.01194" lon="-1.57342"><ele>192.000000</ele><time>2010-07-07T10:21:46Z</time></trkpt>
	<trkpt lat="52.011945" lon="-1.57342"><ele>193.000000</ele><time>2010-07-07T10:21:51Z</time></trkpt>
	<trkpt lat="52.011945" lon="-1.57342"><ele>193.000000</ele><time>2010-07-07T10:21:56Z</time></trkpt>
	<trkpt lat="52.011945" lon="-1.573418333"><ele>192.000000</ele><time>2010-07-07T10:22:01Z</time></trkpt>
	<trkpt lat="52.01194" lon="-1.573413333"><ele>190.000000</ele><time>2010-07-07T10:22:06Z</time></trkpt>
	<trkpt lat="52.01193667" lon="-1.573415"><ele>189.000000</ele><time>2010-07-07T10:22:11Z</time></trkpt>
	<trkpt lat="52.01193833" lon="-1.573413333"><ele>189.000000</ele><time>2010-07-07T10:22:16Z</time></trkpt>
	<trkpt lat="52.01193833" lon="-1.573411667"><ele>189.000000</ele><time>2010-07-07T10:22:21Z</time></trkpt>
	<trkpt lat="52.01193833" lon="-1.573408333"><ele>189.000000</ele><time>2010-07-07T10:22:26Z</time></trkpt>
	<trkpt lat="52.01194167" lon="-1.573408333"><ele>189.000000</ele><time>2010-07-07T10:22:31Z</time></trkpt>
	<trkpt lat="52.011945" lon="-1.573408333"><ele>190.000000</ele><time>2010-07-07T10:22:36Z</time></trkpt>
	<trkpt lat="52.01195" lon="-1.573408333"><ele>190.000000</ele><time>2010-07-07T10:22:41Z</time></trkpt>
	<trkpt lat="52.01195" lon="-1.573405"><ele>190.000000</ele><time>2010-07-07T10:22:46Z</time></trkpt>
	<trkpt lat="52.01195" lon="-1.573403333"><ele>190.000000</ele><time>2010-07-07T10:22:51Z</time></trkpt>
	<trkpt lat="52.01195167" lon="-1.573396667"><ele>190.000000</ele><time>2010-07-07T10:22:56Z</time></trkpt>
	<trkpt lat="52.01195333" lon="-1.573396667"><ele>190.000000</ele><time>2010-07-07T10:23:01Z</time></trkpt>
	<trkpt lat="52.01195333" lon="-1.573398333"><ele>190.000000</ele><time>2010-07-07T10:23:06Z</time></trkpt>
	<trkpt lat="52.01194167" lon="-1.573393333"><ele>189.000000</ele><time>2010-07-07T10:23:11Z</time></trkpt>
	<trkpt lat="52.01194167" lon="-1.57338"><ele>190.000000</ele><time>2010-07-07T10:23:16Z</time></trkpt>
	<trkpt lat="52.01193833" lon="-1.573386667"><ele>190.000000</ele><time>2010-07-07T10:23:21Z</time></trkpt>
	<trkpt lat="52.01193667" lon="-1.573386667"><ele>190.000000</ele><time>2010-07-07T10:23:26Z</time></trkpt>
	<trkpt lat="52.011935" lon="-1.57339"><ele>190.000000</ele><time>2010-07-07T10:23:31Z</time></trkpt>
	<trkpt lat="52.011935" lon="-1.573391667"><ele>191.000000</ele><time>2010-07-07T10:23:36Z</time></trkpt>
	<trkpt lat="52.01193" lon="-1.573393333"><ele>191.000000</ele><time>2010-07-07T10:23:41Z</time></trkpt>
	<trkpt lat="52.01192833" lon="-1.573396667"><ele>191.000000</ele><time>2010-07-07T10:23:46Z</time></trkpt>
	<trkpt lat="52.01192833" lon="-1.573393333"><ele>191.000000</ele><time>2010-07-07T10:23:51Z</time></trkpt>
	<trkpt lat="52.01192833" lon="-1.573388333"><ele>192.000000</ele><time>2010-07-07T10:23:56Z</time></trkpt>
	<trkpt lat="52.011925" lon="-1.57339"><ele>192.000000</ele><time>2010-07-07T10:24:01Z</time></trkpt>
	<trkpt lat="52.011925" lon="-1.573388333"><ele>193.000000</ele><time>2010-07-07T10:24:06Z</time></trkpt>
	<trkpt lat="52.01193" lon="-1.57339"><ele>193.000000</ele><time>2010-07-07T10:24:11Z</time></trkpt>
	<trkpt lat="52.01195" lon="-1.573401667"><ele>193.000000</ele><time>2010-07-07T10:24:16Z</time></trkpt>
	<trkpt lat="52.01197167" lon="-1.57343"><ele>194.000000</ele><time>2010-07-07T10:24:21Z</time></trkpt>
	<trkpt lat="52.011995" lon="-1.57346"><ele>194.000000</ele><time>2010-07-07T10:24:26Z</time></trkpt>
	<trkpt lat="52.01202333" lon="-1.573498333"><ele>194.000000</ele><time>2010-07-07T10:24:31Z</time></trkpt>
	<trkpt lat="52.01205333" lon="-1.573535"><ele>195.000000</ele><time>2010-07-07T10:24:36Z</time></trkpt>
	<trkpt lat="52.012085" lon="-1.573575"><ele>195.000000</ele><time>2010-07-07T10:24:41Z</time></trkpt>
	<trkpt lat="52.01211667" lon="-1.573615"><ele>194.000000</ele><time>2010-07-07T10:24:46Z</time></trkpt>
	<trkpt lat="52.01215333" lon="-1.57365"><ele>194.000000</ele><time>2010-07-07T10:24:51Z</time></trkpt>
	<trkpt lat="52.01219" lon="-1.573691667"><ele>194.000000</ele><time>2010-07-07T10:24:56Z</time></trkpt>
	<trkpt lat="52.01222167" lon="-1.573731667"><ele>194.000000</ele><time>2010-07-07T10:25:01Z</time></trkpt>
	<trkpt lat="52.01225833" lon="-1.573773333"><ele>194.000000</ele><time>2010-07-07T10:25:06Z</time></trkpt>
	<trkpt lat="52.01229167" lon="-1.573813333"><ele>194.000000</ele><time>2010-07-07T10:25:11Z</time></trkpt>
	<trkpt lat="52.01232833" lon="-1.573853333"><ele>194.000000</ele><time>2010-07-07T10:25:16Z</time></trkpt>
	<trkpt lat="52.01236" lon="-1.573893333"><ele>194.000000</ele><time>2010-07-07T10:25:21Z</time></trkpt>
	<trkpt lat="52.0124" lon="-1.573933333"><ele>194.000000</ele><time>2010-07-07T10:25:26Z</time></trkpt>
	<trkpt lat="52.012435" lon="-1.573978333"><ele>193.000000</ele><time>2010-07-07T10:25:31Z</time></trkpt>
	<trkpt lat="52.012475" lon="-1.574021667"><ele>193.000000</ele><time>2010-07-07T10:25:36Z</time></trkpt>
	<trkpt lat="52.012515" lon="-1.574065"><ele>193.000000</ele><time>2010-07-07T10:25:41Z</time></trkpt>
	<trkpt lat="52.012555" lon="-1.574106667"><ele>193.000000</ele><time>2010-07-07T10:25:46Z</time></trkpt>
	<trkpt lat="52.012595" lon="-1.574148333"><ele>193.000000</ele><time>2010-07-07T10:25:51Z</time></trkpt>
	<trkpt lat="52.012635" lon="-1.574191667"><ele>192.000000</ele><time>2010-07-07T10:25:56Z</time></trkpt>
	<trkpt lat="52.01267333" lon="-1.574238333"><ele>192.000000</ele><time>2010-07-07T10:26:01Z</time></trkpt>
	<trkpt lat="52.01271333" lon="-1.574278333"><ele>192.000000</ele><time>2010-07-07T10:26:06Z</time></trkpt>
	<trkpt lat="52.01275" lon="-1.574318333"><ele>192.000000</ele><time>2010-07-07T10:26:11Z</time></trkpt>
	<trkpt lat="52.01279" lon="-1.574365"><ele>191.000000</ele><time>2010-07-07T10:26:16Z</time></trkpt>
	<trkpt lat="52.012825" lon="-1.574411667"><ele>191.000000</ele><time>2010-07-07T10:26:21Z</time></trkpt>
	<trkpt lat="52.01286333" lon="-1.574455"><ele>191.000000</ele><time>2010-07-07T10:26:26Z</time></trkpt>
	<trkpt lat="52.01290167" lon="-1.5745"><ele>190.000000</ele><time>2010-07-07T10:26:31Z</time></trkpt>
	<trkpt lat="52.01293833" lon="-1.574545"><ele>189.000000</ele><time>2010-07-07T10:26:36Z</time></trkpt>
	<trkpt lat="52.01297333" lon="-1.574585"><ele>188.000000</ele><time>2010-07-07T10:26:41Z</time></trkpt>
	<trkpt lat="52.01300333" lon="-1.574625"><ele>188.000000</ele><time>2010-07-07T10:26:46Z</time></trkpt>
	<trkpt lat="52.01302667" lon="-1.57467"><ele>188.000000</ele><time>2010-07-07T10:26:51Z</time></trkpt>
	<trkpt lat="52.013045" lon="-1.574705"><ele>188.000000</ele><time>2010-07-07T10:26:56Z</time></trkpt>
	<trkpt lat="52.01306667" lon="-1.574741667"><ele>187.000000</ele><time>2010-07-07T10:27:01Z</time></trkpt>
	<trkpt lat="52.01308167" lon="-1.574778333"><ele>186.000000</ele><time>2010-07-07T10:27:06Z</time></trkpt>
	<trkpt lat="52.01309167" lon="-1.5748"><ele>186.000000</ele><time>2010-07-07T10:27:11Z</time></trkpt>
	<trkpt lat="52.01311667" lon="-1.574826667"><ele>186.000000</ele><time>2010-07-07T10:27:16Z</time></trkpt>
	<trkpt lat="52.013135" lon="-1.574841667"><ele>185.000000</ele><time>2010-07-07T10:27:21Z</time></trkpt>
	<trkpt lat="52.013175" lon="-1.574868333"><ele>185.000000</ele><time>2010-07-07T10:27:26Z</time></trkpt>
	<trkpt lat="52.01321167" lon="-1.574901667"><ele>184.000000</ele><time>2010-07-07T10:27:31Z</time></trkpt>
	<trkpt lat="52.01324" lon="-1.57493"><ele>183.000000</ele><time>2010-07-07T10:27:36Z</time></trkpt>
	<trkpt lat="52.013255" lon="-1.574956667"><ele>183.000000</ele><time>2010-07-07T10:27:41Z</time></trkpt>
	<trkpt lat="52.013255" lon="-1.574955"><ele>183.000000</ele><time>2010-07-07T10:27:46Z</time></trkpt>
	<trkpt lat="52.01326" lon="-1.574961667"><ele>183.000000</ele><time>2010-07-07T10:27:51Z</time></trkpt>
	<trkpt lat="52.01326" lon="-1.574963333"><ele>183.000000</ele><time>2010-07-07T10:27:56Z</time></trkpt>
	<trkpt lat="52.01326" lon="-1.574963333"><ele>183.000000</ele><time>2010-07-07T10:28:01Z</time></trkpt>
	<trkpt lat="52.01327667" lon="-1.574971667"><ele>183.000000</ele><time>2010-07-07T10:28:06Z</time></trkpt>
	<trkpt lat="52.01331833" lon="-1.574966667"><ele>183.000000</ele><time>2010-07-07T10:28:11Z</time></trkpt>
	<trkpt lat="52.01333" lon="-1.574978333"><ele>182.000000</ele><time>2010-07-07T10:28:16Z</time></trkpt>
	<trkpt lat="52.01337167" lon="-1.575025"><ele>182.000000</ele><time>2010-07-07T10:28:21Z</time></trkpt>
	<trkpt lat="52.01341167" lon="-1.575075"><ele>181.000000</ele><time>2010-07-07T10:28:26Z</time></trkpt>
	<trkpt lat="52.013455" lon="-1.575116667"><ele>180.000000</ele><time>2010-07-07T10:28:31Z</time></trkpt>
	<trkpt lat="52.013505" lon="-1.575163333"><ele>179.000000</ele><time>2010-07-07T10:28:36Z</time></trkpt>
	<trkpt lat="52.01359167" lon="-1.575248333"><ele>177.000000</ele><time>2010-07-07T10:28:41Z</time></trkpt>
	<trkpt lat="52.01369833" lon="-1.575348333"><ele>176.000000</ele><time>2010-07-07T10:28:46Z</time></trkpt>
	<trkpt lat="52.01375" lon="-1.57539"><ele>174.000000</ele><time>2010-07-07T10:28:51Z</time></trkpt>
	<trkpt lat="52.0138" lon="-1.57542"><ele>173.000000</ele><time>2010-07-07T10:28:56Z</time></trkpt>
	<trkpt lat="52.013845" lon="-1.575461667"><ele>172.000000</ele><time>2010-07-07T10:29:01Z</time></trkpt>
	<trkpt lat="52.01389333" lon="-1.57551"><ele>171.000000</ele><time>2010-07-07T10:29:06Z</time></trkpt>
	<trkpt lat="52.01393833" lon="-1.575573333"><ele>170.000000</ele><time>2010-07-07T10:29:11Z</time></trkpt>
	<trkpt lat="52.01398" lon="-1.575631667"><ele>169.000000</ele><time>2010-07-07T10:29:16Z</time></trkpt>
	<trkpt lat="52.01402833" lon="-1.575676667"><ele>168.000000</ele><time>2010-07-07T10:29:21Z</time></trkpt>
	<trkpt lat="52.01406833" lon="-1.575708333"><ele>167.000000</ele><time>2010-07-07T10:29:26Z</time></trkpt>
	<trkpt lat="52.014105" lon="-1.575746667"><ele>167.000000</ele><time>2010-07-07T10:29:31Z</time></trkpt>
	<trkpt lat="52.01414167" lon="-1.575785"><ele>166.000000</ele><time>2010-07-07T10:29:36Z</time></trkpt>
	<trkpt lat="52.01417333" lon="-1.575823333"><ele>165.000000</ele><time>2010-07-07T10:29:41Z</time></trkpt>
	<trkpt lat="52.01420667" lon="-1.575876667"><ele>164.000000</ele><time>2010-07-07T10:29:46Z</time></trkpt>
	<trkpt lat="52.01423667" lon="-1.57591"><ele>162.000000</ele><time>2010-07-07T10:29:51Z</time></trkpt>
	<trkpt lat="52.01425833" lon="-1.575943333"><ele>162.000000</ele><time>2010-07-07T10:29:56Z</time></trkpt>
	<trkpt lat="52.01427667" lon="-1.576001667"><ele>161.000000</ele><time>2010-07-07T10:30:01Z</time></trkpt>
	<trkpt lat="52.01429" lon="-1.576068333"><ele>161.000000</ele><time>2010-07-07T10:30:06Z</time></trkpt>
	<trkpt lat="52.0143" lon="-1.576093333"><ele>160.000000</ele><time>2010-07-07T10:30:11Z</time></trkpt>
	<trkpt lat="52.01430833" lon="-1.576111667"><ele>160.000000</ele><time>2010-07-07T10:30:16Z</time></trkpt>
	<trkpt lat="52.01431833" lon="-1.576133333"><ele>160.000000</ele><time>2010-07-07T10:30:21Z</time></trkpt>
	<trkpt lat="52.01433333" lon="-1.576236667"><ele>159.000000</ele><time>2010-07-07T10:30:26Z</time></trkpt>
	<trkpt lat="52.01436" lon="-1.576338333"><ele>159.000000</ele><time>2010-07-07T10:30:31Z</time></trkpt>
	<trkpt lat="52.01441167" lon="-1.576468333"><ele>158.000000</ele><time>2010-07-07T10:30:36Z</time></trkpt>
	<trkpt lat="52.01443167" lon="-1.576533333"><ele>156.000000</ele><time>2010-07-07T10:30:41Z</time></trkpt>
	<trkpt lat="52.01445333" lon="-1.576583333"><ele>155.000000</ele><time>2010-07-07T10:30:46Z</time></trkpt>
	<trkpt lat="52.01444333" lon="-1.576608333"><ele>155.000000</ele><time>2010-07-07T10:30:51Z</time></trkpt>
	<trkpt lat="52.01442833" lon="-1.576623333"><ele>154.000000</ele><time>2010-07-07T10:30:56Z</time></trkpt>
	<trkpt lat="52.01443167" lon="-1.576621667"><ele>153.000000</ele><time>2010-07-07T10:31:01Z</time></trkpt>
	<trkpt lat="52.01443167" lon="-1.576618333"><ele>152.000000</ele><time>2010-07-07T10:31:06Z</time></trkpt>
	<trkpt lat="52.014435" lon="-1.576618333"><ele>151.000000</ele><time>2010-07-07T10:31:11Z</time></trkpt>
	<trkpt lat="52.014425" lon="-1.57661"><ele>151.000000</ele><time>2010-07-07T10:31:16Z</time></trkpt>
	<trkpt lat="52.01438333" lon="-1.576625"><ele>152.000000</ele><time>2010-07-07T10:31:21Z</time></trkpt>
	<trkpt lat="52.01435167" lon="-1.576665"><ele>152.000000</ele><time>2010-07-07T10:31:26Z</time></trkpt>
	<trkpt lat="52.014315" lon="-1.57667"><ele>153.000000</ele><time>2010-07-07T10:31:31Z</time></trkpt>
	<trkpt lat="52.01426833" lon="-1.576645"><ele>154.000000</ele><time>2010-07-07T10:31:36Z</time></trkpt>
	<trkpt lat="52.01422333" lon="-1.576633333"><ele>155.000000</ele><time>2010-07-07T10:31:41Z</time></trkpt>
	<trkpt lat="52.01418833" lon="-1.576661667"><ele>156.000000</ele><time>2010-07-07T10:31:46Z</time></trkpt>
	<trkpt lat="52.01416333" lon="-1.576728333"><ele>156.000000</ele><time>2010-07-07T10:31:51Z</time></trkpt>
	<trkpt lat="52.01414167" lon="-1.576788333"><ele>156.000000</ele><time>2010-07-07T10:31:56Z</time></trkpt>
	<trkpt lat="52.01413333" lon="-1.576825"><ele>156.000000</ele><time>2010-07-07T10:32:01Z</time></trkpt>
	<trkpt lat="52.014125" lon="-1.576833333"><ele>156.000000</ele><time>2010-07-07T10:32:06Z</time></trkpt>
	<trkpt lat="52.01409833" lon="-1.576871667"><ele>157.000000</ele><time>2010-07-07T10:32:11Z</time></trkpt>
	<trkpt lat="52.014075" lon="-1.576933333"><ele>157.000000</ele><time>2010-07-07T10:32:16Z</time></trkpt>
	<trkpt lat="52.014045" lon="-1.576996667"><ele>157.000000</ele><time>2010-07-07T10:32:21Z</time></trkpt>
	<trkpt lat="52.01401833" lon="-1.57706"><ele>157.000000</ele><time>2010-07-07T10:32:26Z</time></trkpt>
	<trkpt lat="52.01398667" lon="-1.577128333"><ele>156.000000</ele><time>2010-07-07T10:32:31Z</time></trkpt>
	<trkpt lat="52.01396" lon="-1.577198333"><ele>156.000000</ele><time>2010-07-07T10:32:36Z</time></trkpt>
	<trkpt lat="52.01393333" lon="-1.577275"><ele>156.000000</ele><time>2010-07-07T10:32:41Z</time></trkpt>
	<trkpt lat="52.01390667" lon="-1.577351667"><ele>155.000000</ele><time>2010-07-07T10:32:46Z</time></trkpt>
	<trkpt lat="52.01387833" lon="-1.577421667"><ele>155.000000</ele><time>2010-07-07T10:32:51Z</time></trkpt>
	<trkpt lat="52.01385167" lon="-1.57749"><ele>155.000000</ele><time>2010-07-07T10:32:56Z</time></trkpt>
	<trkpt lat="52.01382833" lon="-1.577555"><ele>155.000000</ele><time>2010-07-07T10:33:01Z</time></trkpt>
	<trkpt lat="52.01380333" lon="-1.577618333"><ele>155.000000</ele><time>2010-07-07T10:33:06Z</time></trkpt>
	<trkpt lat="52.013775" lon="-1.577675"><ele>154.000000</ele><time>2010-07-07T10:33:11Z</time></trkpt>
	<trkpt lat="52.01375167" lon="-1.577703333"><ele>154.000000</ele><time>2010-07-07T10:33:16Z</time></trkpt>
	<trkpt lat="52.01375167" lon="-1.577696667"><ele>154.000000</ele><time>2010-07-07T10:33:21Z</time></trkpt>
	<trkpt lat="52.013745" lon="-1.5777"><ele>154.000000</ele><time>2010-07-07T10:33:26Z</time></trkpt>
	<trkpt lat="52.01373667" lon="-1.577756667"><ele>154.000000</ele><time>2010-07-07T10:33:31Z</time></trkpt>
	<trkpt lat="52.01370667" lon="-1.577835"><ele>154.000000</ele><time>2010-07-07T10:33:36Z</time></trkpt>
	<trkpt lat="52.01368167" lon="-1.577903333"><ele>154.000000</ele><time>2010-07-07T10:33:41Z</time></trkpt>
	<trkpt lat="52.01365333" lon="-1.577975"><ele>155.000000</ele><time>2010-07-07T10:33:46Z</time></trkpt>
	<trkpt lat="52.01362167" lon="-1.578038333"><ele>155.000000</ele><time>2010-07-07T10:33:51Z</time></trkpt>
	<trkpt lat="52.013595" lon="-1.578108333"><ele>155.000000</ele><time>2010-07-07T10:33:56Z</time></trkpt>
	<trkpt lat="52.01357" lon="-1.578178333"><ele>155.000000</ele><time>2010-07-07T10:34:01Z</time></trkpt>
	<trkpt lat="52.013545" lon="-1.578243333"><ele>155.000000</ele><time>2010-07-07T10:34:06Z</time></trkpt>
	<trkpt lat="52.013515" lon="-1.578313333"><ele>155.000000</ele><time>2010-07-07T10:34:11Z</time></trkpt>
	<trkpt lat="52.013485" lon="-1.578381667"><ele>155.000000</ele><time>2010-07-07T10:34:16Z</time></trkpt>
	<trkpt lat="52.01345333" lon="-1.578456667"><ele>154.000000</ele><time>2010-07-07T10:34:21Z</time></trkpt>
	<trkpt lat="52.013425" lon="-1.57853"><ele>154.000000</ele><time>2010-07-07T10:34:26Z</time></trkpt>
	<trkpt lat="52.013395" lon="-1.5786"><ele>154.000000</ele><time>2010-07-07T10:34:31Z</time></trkpt>
	<trkpt lat="52.01336333" lon="-1.578666667"><ele>154.000000</ele><time>2010-07-07T10:34:36Z</time></trkpt>
	<trkpt lat="52.013335" lon="-1.57873"><ele>153.000000</ele><time>2010-07-07T10:34:41Z</time></trkpt>
	<trkpt lat="52.013305" lon="-1.578791667"><ele>153.000000</ele><time>2010-07-07T10:34:46Z</time></trkpt>
	<trkpt lat="52.01326667" lon="-1.578848333"><ele>152.000000</ele><time>2010-07-07T10:34:51Z</time></trkpt>
	<trkpt lat="52.013255" lon="-1.578873333"><ele>152.000000</ele><time>2010-07-07T10:34:56Z</time></trkpt>
	<trkpt lat="52.013245" lon="-1.578895"><ele>152.000000</ele><time>2010-07-07T10:35:01Z</time></trkpt>
	<trkpt lat="52.01323333" lon="-1.578951667"><ele>152.000000</ele><time>2010-07-07T10:35:06Z</time></trkpt>
	<trkpt lat="52.01322167" lon="-1.57902"><ele>153.000000</ele><time>2010-07-07T10:35:11Z</time></trkpt>
	<trkpt lat="52.01321667" lon="-1.579056667"><ele>153.000000</ele><time>2010-07-07T10:35:16Z</time></trkpt>
	<trkpt lat="52.01322167" lon="-1.579061667"><ele>153.000000</ele><time>2010-07-07T10:35:21Z</time></trkpt>
	<trkpt lat="52.01324" lon="-1.579066667"><ele>153.000000</ele><time>2010-07-07T10:35:26Z</time></trkpt>
	<trkpt lat="52.01323167" lon="-1.57909"><ele>153.000000</ele><time>2010-07-07T10:35:31Z</time></trkpt>
	<trkpt lat="52.01322167" lon="-1.579116667"><ele>152.000000</ele><time>2010-07-07T10:35:36Z</time></trkpt>
	<trkpt lat="52.01319167" lon="-1.579176667"><ele>151.000000</ele><time>2010-07-07T10:35:41Z</time></trkpt>
	<trkpt lat="52.01317167" lon="-1.579193333"><ele>152.000000</ele><time>2010-07-07T10:35:46Z</time></trkpt>
	<trkpt lat="52.01316833" lon="-1.579178333"><ele>151.000000</ele><time>2010-07-07T10:35:51Z</time></trkpt>
	<trkpt lat="52.01315167" lon="-1.5792"><ele>152.000000</ele><time>2010-07-07T10:35:56Z</time></trkpt>
	<trkpt lat="52.01312" lon="-1.57923"><ele>152.000000</ele><time>2010-07-07T10:36:01Z</time></trkpt>
	<trkpt lat="52.01308333" lon="-1.579248333"><ele>152.000000</ele><time>2010-07-07T10:36:06Z</time></trkpt>
	<trkpt lat="52.01305333" lon="-1.579243333"><ele>152.000000</ele><time>2010-07-07T10:36:11Z</time></trkpt>
	<trkpt lat="52.013045" lon="-1.579263333"><ele>153.000000</ele><time>2010-07-07T10:36:16Z</time></trkpt>
	<trkpt lat="52.013005" lon="-1.579291667"><ele>154.000000</ele><time>2010-07-07T10:36:21Z</time></trkpt>
	<trkpt lat="52.01296667" lon="-1.579301667"><ele>155.000000</ele><time>2010-07-07T10:36:26Z</time></trkpt>
	<trkpt lat="52.01292667" lon="-1.579311667"><ele>155.000000</ele><time>2010-07-07T10:36:31Z</time></trkpt>
	<trkpt lat="52.01288833" lon="-1.579318333"><ele>155.000000</ele><time>2010-07-07T10:36:36Z</time></trkpt>
	<trkpt lat="52.01284667" lon="-1.57933"><ele>155.000000</ele><time>2010-07-07T10:36:41Z</time></trkpt>
	<trkpt lat="52.01280833" lon="-1.579343333"><ele>156.000000</ele><time>2010-07-07T10:36:46Z</time></trkpt>
	<trkpt lat="52.01276167" lon="-1.579355"><ele>156.000000</ele><time>2010-07-07T10:36:51Z</time></trkpt>
	<trkpt lat="52.01271667" lon="-1.57937"><ele>156.000000</ele><time>2010-07-07T10:36:56Z</time></trkpt>
	<trkpt lat="52.01267" lon="-1.579396667"><ele>156.000000</ele><time>2010-07-07T10:37:01Z</time></trkpt>
	<trkpt lat="52.01263333" lon="-1.579405"><ele>156.000000</ele><time>2010-07-07T10:37:06Z</time></trkpt>
	<trkpt lat="52.01263" lon="-1.579405"><ele>156.000000</ele><time>2010-07-07T10:37:11Z</time></trkpt>
	<trkpt lat="52.01262833" lon="-1.579405"><ele>156.000000</ele><time>2010-07-07T10:37:16Z</time></trkpt>
	<trkpt lat="52.012625" lon="-1.579401667"><ele>156.000000</ele><time>2010-07-07T10:37:21Z</time></trkpt>
	<trkpt lat="52.0126" lon="-1.579411667"><ele>156.000000</ele><time>2010-07-07T10:37:26Z</time></trkpt>
	<trkpt lat="52.012575" lon="-1.579433333"><ele>155.000000</ele><time>2010-07-07T10:37:31Z</time></trkpt>
	<trkpt lat="52.01253167" lon="-1.579451667"><ele>155.000000</ele><time>2010-07-07T10:37:36Z</time></trkpt>
	<trkpt lat="52.01252167" lon="-1.579453333"><ele>155.000000</ele><time>2010-07-07T10:37:41Z</time></trkpt>
	<trkpt lat="52.012495" lon="-1.579475"><ele>154.000000</ele><time>2010-07-07T10:37:46Z</time></trkpt>
	<trkpt lat="52.012465" lon="-1.579481667"><ele>154.000000</ele><time>2010-07-07T10:37:51Z</time></trkpt>
	<trkpt lat="52.01246167" lon="-1.579481667"><ele>154.000000</ele><time>2010-07-07T10:37:56Z</time></trkpt>
	<trkpt lat="52.01246" lon="-1.579481667"><ele>154.000000</ele><time>2010-07-07T10:38:01Z</time></trkpt>
	<trkpt lat="52.01245667" lon="-1.579483333"><ele>153.000000</ele><time>2010-07-07T10:38:06Z</time></trkpt>
	<trkpt lat="52.012455" lon="-1.579483333"><ele>153.000000</ele><time>2010-07-07T10:38:11Z</time></trkpt>
	<trkpt lat="52.01245333" lon="-1.579483333"><ele>153.000000</ele><time>2010-07-07T10:38:16Z</time></trkpt>
	<trkpt lat="52.01245333" lon="-1.579483333"><ele>153.000000</ele><time>2010-07-07T10:38:21Z</time></trkpt>
	<trkpt lat="52.01245333" lon="-1.579483333"><ele>153.000000</ele><time>2010-07-07T10:38:26Z</time></trkpt>
	<trkpt lat="52.01245333" lon="-1.579483333"><ele>153.000000</ele><time>2010-07-07T10:38:31Z</time></trkpt>
	<trkpt lat="52.01245" lon="-1.579485"><ele>153.000000</ele><time>2010-07-07T10:38:36Z</time></trkpt>
	<trkpt lat="52.01245" lon="-1.579483333"><ele>153.000000</ele><time>2010-07-07T10:38:41Z</time></trkpt>
	<trkpt lat="52.01245" lon="-1.579481667"><ele>154.000000</ele><time>2010-07-07T10:38:46Z</time></trkpt>
	<trkpt lat="52.01245" lon="-1.579481667"><ele>154.000000</ele><time>2010-07-07T10:38:51Z</time></trkpt>
	<trkpt lat="52.01244833" lon="-1.579481667"><ele>154.000000</ele><time>2010-07-07T10:38:56Z</time></trkpt>
	<trkpt lat="52.012445" lon="-1.57948"><ele>155.000000</ele><time>2010-07-07T10:39:01Z</time></trkpt>
	<trkpt lat="52.01244333" lon="-1.579478333"><ele>155.000000</ele><time>2010-07-07T10:39:06Z</time></trkpt>
	<trkpt lat="52.01244" lon="-1.579476667"><ele>155.000000</ele><time>2010-07-07T10:39:11Z</time></trkpt>
	<trkpt lat="52.012435" lon="-1.579473333"><ele>156.000000</ele><time>2010-07-07T10:39:16Z</time></trkpt>
	<trkpt lat="52.01243833" lon="-1.579475"><ele>156.000000</ele><time>2010-07-07T10:39:21Z</time></trkpt>
	<trkpt lat="52.01243833" lon="-1.579471667"><ele>156.000000</ele><time>2010-07-07T10:39:26Z</time></trkpt>
	<trkpt lat="52.012435" lon="-1.579471667"><ele>156.000000</ele><time>2010-07-07T10:39:31Z</time></trkpt>
	<trkpt lat="52.01243333" lon="-1.579473333"><ele>157.000000</ele><time>2010-07-07T10:39:36Z</time></trkpt>
	<trkpt lat="52.01243333" lon="-1.57947"><ele>157.000000</ele><time>2010-07-07T10:39:41Z</time></trkpt>
	<trkpt lat="52.01244833" lon="-1.579493333"><ele>157.000000</ele><time>2010-07-07T10:39:46Z</time></trkpt>
	<trkpt lat="52.01248" lon="-1.57953"><ele>158.000000</ele><time>2010-07-07T10:39:51Z</time></trkpt>
	<trkpt lat="52.01251" lon="-1.579575"><ele>158.000000</ele><time>2010-07-07T10:39:56Z</time></trkpt>
	<trkpt lat="52.01255167" lon="-1.579615"><ele>158.000000</ele><time>2010-07-07T10:40:01Z</time></trkpt>
	<trkpt lat="52.01259333" lon="-1.579663333"><ele>158.000000</ele><time>2010-07-07T10:40:06Z</time></trkpt>
	<trkpt lat="52.012635" lon="-1.57971"><ele>158.000000</ele><time>2010-07-07T10:40:11Z</time></trkpt>
	<trkpt lat="52.012675" lon="-1.579761667"><ele>157.000000</ele><time>2010-07-07T10:40:16Z</time></trkpt>
	<trkpt lat="52.01271" lon="-1.579811667"><ele>157.000000</ele><time>2010-07-07T10:40:21Z</time></trkpt>
	<trkpt lat="52.01274167" lon="-1.579846667"><ele>158.000000</ele><time>2010-07-07T10:40:26Z</time></trkpt>
	<trkpt lat="52.01277667" lon="-1.579893333"><ele>157.000000</ele><time>2010-07-07T10:40:31Z</time></trkpt>
	<trkpt lat="52.01282" lon="-1.579926667"><ele>157.000000</ele><time>2010-07-07T10:40:36Z</time></trkpt>
	<trkpt lat="52.01286" lon="-1.579958333"><ele>157.000000</ele><time>2010-07-07T10:40:41Z</time></trkpt>
	<trkpt lat="52.0129" lon="-1.579983333"><ele>157.000000</ele><time>2010-07-07T10:40:46Z</time></trkpt>
	<trkpt lat="52.01294" lon="-1.580015"><ele>156.000000</ele><time>2010-07-07T10:40:51Z</time></trkpt>
	<trkpt lat="52.012985" lon="-1.580038333"><ele>155.000000</ele><time>2010-07-07T10:40:56Z</time></trkpt>
	<trkpt lat="52.01303" lon="-1.580066667"><ele>155.000000</ele><time>2010-07-07T10:41:01Z</time></trkpt>
	<trkpt lat="52.01307167" lon="-1.580095"><ele>154.000000</ele><time>2010-07-07T10:41:06Z</time></trkpt>
	<trkpt lat="52.01310667" lon="-1.580123333"><ele>153.000000</ele><time>2010-07-07T10:41:11Z</time></trkpt>
	<trkpt lat="52.01315" lon="-1.580151667"><ele>153.000000</ele><time>2010-07-07T10:41:16Z</time></trkpt>
	<trkpt lat="52.01319" lon="-1.58018"><ele>152.000000</ele><time>2010-07-07T10:41:21Z</time></trkpt>
	<trkpt lat="52.013235" lon="-1.580211667"><ele>151.000000</ele><time>2010-07-07T10:41:26Z</time></trkpt>
	<trkpt lat="52.01328" lon="-1.580243333"><ele>151.000000</ele><time>2010-07-07T10:41:31Z</time></trkpt>
	<trkpt lat="52.013325" lon="-1.580288333"><ele>151.000000</ele><time>2010-07-07T10:41:36Z</time></trkpt>
	<trkpt lat="52.01337667" lon="-1.580333333"><ele>151.000000</ele><time>2010-07-07T10:41:41Z</time></trkpt>
	<trkpt lat="52.01342167" lon="-1.580396667"><ele>150.000000</ele><time>2010-07-07T10:41:46Z</time></trkpt>
	<trkpt lat="52.01345333" lon="-1.580476667"><ele>150.000000</ele><time>2010-07-07T10:41:51Z</time></trkpt>
	<trkpt lat="52.01347667" lon="-1.580546667"><ele>150.000000</ele><time>2010-07-07T10:41:56Z</time></trkpt>
	<trkpt lat="52.01349667" lon="-1.580623333"><ele>149.000000</ele><time>2010-07-07T10:42:01Z</time></trkpt>
	<trkpt lat="52.01351833" lon="-1.5807"><ele>149.000000</ele><time>2010-07-07T10:42:06Z</time></trkpt>
	<trkpt lat="52.01354" lon="-1.580776667"><ele>149.000000</ele><time>2010-07-07T10:42:11Z</time></trkpt>
	<trkpt lat="52.013565" lon="-1.580855"><ele>148.000000</ele><time>2010-07-07T10:42:16Z</time></trkpt>
	<trkpt lat="52.01359" lon="-1.580935"><ele>147.000000</ele><time>2010-07-07T10:42:21Z</time></trkpt>
	<trkpt lat="52.01361167" lon="-1.581003333"><ele>147.000000</ele><time>2010-07-07T10:42:26Z</time></trkpt>
	<trkpt lat="52.01363667" lon="-1.581078333"><ele>146.000000</ele><time>2010-07-07T10:42:31Z</time></trkpt>
	<trkpt lat="52.01366333" lon="-1.581156667"><ele>146.000000</ele><time>2010-07-07T10:42:36Z</time></trkpt>
	<trkpt lat="52.01368667" lon="-1.581235"><ele>145.000000</ele><time>2010-07-07T10:42:41Z</time></trkpt>
	<trkpt lat="52.01371667" lon="-1.581313333"><ele>144.000000</ele><time>2010-07-07T10:42:46Z</time></trkpt>
	<trkpt lat="52.01374167" lon="-1.581388333"><ele>144.000000</ele><time>2010-07-07T10:42:51Z</time></trkpt>
	<trkpt lat="52.01376833" lon="-1.581466667"><ele>143.000000</ele><time>2010-07-07T10:42:56Z</time></trkpt>
	<trkpt lat="52.01379167" lon="-1.58154"><ele>142.000000</ele><time>2010-07-07T10:43:01Z</time></trkpt>
	<trkpt lat="52.01382167" lon="-1.581616667"><ele>142.000000</ele><time>2010-07-07T10:43:06Z</time></trkpt>
	<trkpt lat="52.01385" lon="-1.581698333"><ele>141.000000</ele><time>2010-07-07T10:43:11Z</time></trkpt>
	<trkpt lat="52.01388333" lon="-1.581783333"><ele>139.000000</ele><time>2010-07-07T10:43:16Z</time></trkpt>
	<trkpt lat="52.01391667" lon="-1.581863333"><ele>138.000000</ele><time>2010-07-07T10:43:21Z</time></trkpt>
	<trkpt lat="52.01395167" lon="-1.581941667"><ele>138.000000</ele><time>2010-07-07T10:43:26Z</time></trkpt>
	<trkpt lat="52.013985" lon="-1.582026667"><ele>137.000000</ele><time>2010-07-07T10:43:31Z</time></trkpt>
	<trkpt lat="52.014015" lon="-1.582106667"><ele>136.000000</ele><time>2010-07-07T10:43:36Z</time></trkpt>
	<trkpt lat="52.01405" lon="-1.58219"><ele>134.000000</ele><time>2010-07-07T10:43:41Z</time></trkpt>
	<trkpt lat="52.01409" lon="-1.582265"><ele>134.000000</ele><time>2010-07-07T10:43:46Z</time></trkpt>
	<trkpt lat="52.01412667" lon="-1.582331667"><ele>134.000000</ele><time>2010-07-07T10:43:51Z</time></trkpt>
	<trkpt lat="52.01415667" lon="-1.582388333"><ele>135.000000</ele><time>2010-07-07T10:43:56Z</time></trkpt>
	<trkpt lat="52.01416667" lon="-1.582396667"><ele>134.000000</ele><time>2010-07-07T10:44:01Z</time></trkpt>
	<trkpt lat="52.01417333" lon="-1.582403333"><ele>133.000000</ele><time>2010-07-07T10:44:06Z</time></trkpt>
	<trkpt lat="52.01421" lon="-1.582455"><ele>135.000000</ele><time>2010-07-07T10:44:11Z</time></trkpt>
	<trkpt lat="52.01423333" lon="-1.582511667"><ele>134.000000</ele><time>2010-07-07T10:44:16Z</time></trkpt>
	<trkpt lat="52.01424" lon="-1.582525"><ele>134.000000</ele><time>2010-07-07T10:44:21Z</time></trkpt>
	<trkpt lat="52.01425833" lon="-1.582573333"><ele>135.000000</ele><time>2010-07-07T10:44:26Z</time></trkpt>
	<trkpt lat="52.014275" lon="-1.582635"><ele>136.000000</ele><time>2010-07-07T10:44:31Z</time></trkpt>
	<trkpt lat="52.01428167" lon="-1.58269"><ele>136.000000</ele><time>2010-07-07T10:44:36Z</time></trkpt>
	<trkpt lat="52.01430167" lon="-1.582755"><ele>138.000000</ele><time>2010-07-07T10:44:41Z</time></trkpt>
	<trkpt lat="52.01435833" lon="-1.582805"><ele>140.000000</ele><time>2010-07-07T10:44:46Z</time></trkpt>
	<trkpt lat="52.01439" lon="-1.582856667"><ele>141.000000</ele><time>2010-07-07T10:44:51Z</time></trkpt>
	<trkpt lat="52.01440667" lon="-1.582893333"><ele>142.000000</ele><time>2010-07-07T10:44:56Z</time></trkpt>
	<trkpt lat="52.01442" lon="-1.58293"><ele>139.000000</ele><time>2010-07-07T10:45:01Z</time></trkpt>
	<trkpt lat="52.014425" lon="-1.582995"><ele>136.000000</ele><time>2010-07-07T10:45:06Z</time></trkpt>
	<trkpt lat="52.01444" lon="-1.583056667"><ele>133.000000</ele><time>2010-07-07T10:45:11Z</time></trkpt>
	<trkpt lat="52.01443833" lon="-1.583101667"><ele>132.000000</ele><time>2010-07-07T10:45:16Z</time></trkpt>
	<trkpt lat="52.01444833" lon="-1.583153333"><ele>129.000000</ele><time>2010-07-07T10:45:21Z</time></trkpt>
	<trkpt lat="52.01445833" lon="-1.5832"><ele>129.000000</ele><time>2010-07-07T10:45:26Z</time></trkpt>
	<trkpt lat="52.01448" lon="-1.583225"><ele>132.000000</ele><time>2010-07-07T10:45:31Z</time></trkpt>
	<trkpt lat="52.01448833" lon="-1.583266667"><ele>135.000000</ele><time>2010-07-07T10:45:36Z</time></trkpt>
	<trkpt lat="52.01450167" lon="-1.583308333"><ele>136.000000</ele><time>2010-07-07T10:45:41Z</time></trkpt>
	<trkpt lat="52.01452833" lon="-1.583345"><ele>138.000000</ele><time>2010-07-07T10:45:46Z</time></trkpt>
	<trkpt lat="52.014525" lon="-1.583395"><ele>133.000000</ele><time>2010-07-07T10:45:51Z</time></trkpt>
	<trkpt lat="52.01456333" lon="-1.58345"><ele>134.000000</ele><time>2010-07-07T10:45:56Z</time></trkpt>
	<trkpt lat="52.01458833" lon="-1.583486667"><ele>139.000000</ele><time>2010-07-07T10:46:01Z</time></trkpt>
	<trkpt lat="52.01463167" lon="-1.583546667"><ele>140.000000</ele><time>2010-07-07T10:46:06Z</time></trkpt>
	<trkpt lat="52.01466" lon="-1.583615"><ele>139.000000</ele><time>2010-07-07T10:46:11Z</time></trkpt>
	<trkpt lat="52.01471" lon="-1.58371"><ele>139.000000</ele><time>2010-07-07T10:46:16Z</time></trkpt>
	<trkpt lat="52.01476833" lon="-1.583808333"><ele>139.000000</ele><time>2010-07-07T10:46:21Z</time></trkpt>
	<trkpt lat="52.01480167" lon="-1.583895"><ele>140.000000</ele><time>2010-07-07T10:46:26Z</time></trkpt>
	<trkpt lat="52.01480333" lon="-1.58399"><ele>138.000000</ele><time>2010-07-07T10:46:31Z</time></trkpt>
	<trkpt lat="52.01484" lon="-1.584071667"><ele>138.000000</ele><time>2010-07-07T10:46:36Z</time></trkpt>
	<trkpt lat="52.01485333" lon="-1.584136667"><ele>139.000000</ele><time>2010-07-07T10:46:41Z</time></trkpt>
	<trkpt lat="52.01486667" lon="-1.584205"><ele>139.000000</ele><time>2010-07-07T10:46:46Z</time></trkpt>
	<trkpt lat="52.01484833" lon="-1.584278333"><ele>138.000000</ele><time>2010-07-07T10:46:51Z</time></trkpt>
	<trkpt lat="52.01485667" lon="-1.584346667"><ele>138.000000</ele><time>2010-07-07T10:46:56Z</time></trkpt>
	<trkpt lat="52.01484833" lon="-1.584373333"><ele>136.000000</ele><time>2010-07-07T10:47:01Z</time></trkpt>
	<trkpt lat="52.01483333" lon="-1.584395"><ele>132.000000</ele><time>2010-07-07T10:47:06Z</time></trkpt>
	<trkpt lat="52.014795" lon="-1.58442"><ele>127.000000</ele><time>2010-07-07T10:47:11Z</time></trkpt>
	<trkpt lat="52.01472833" lon="-1.584495"><ele>121.000000</ele><time>2010-07-07T10:47:16Z</time></trkpt>
	<trkpt lat="52.01471667" lon="-1.58459"><ele>119.000000</ele><time>2010-07-07T10:47:21Z</time></trkpt>
	<trkpt lat="52.01470167" lon="-1.584691667"><ele>118.000000</ele><time>2010-07-07T10:47:26Z</time></trkpt>
	<trkpt lat="52.01469333" lon="-1.584788333"><ele>118.000000</ele><time>2010-07-07T10:47:31Z</time></trkpt>
	<trkpt lat="52.01471" lon="-1.584871667"><ele>119.000000</ele><time>2010-07-07T10:47:36Z</time></trkpt>
	<trkpt lat="52.01474333" lon="-1.58493"><ele>120.000000</ele><time>2010-07-07T10:47:41Z</time></trkpt>
	<trkpt lat="52.01478833" lon="-1.58498"><ele>120.000000</ele><time>2010-07-07T10:47:46Z</time></trkpt>
	<trkpt lat="52.01483333" lon="-1.585028333"><ele>120.000000</ele><time>2010-07-07T10:47:51Z</time></trkpt>
	<trkpt lat="52.01487833" lon="-1.585071667"><ele>120.000000</ele><time>2010-07-07T10:47:56Z</time></trkpt>
	<trkpt lat="52.01492333" lon="-1.585106667"><ele>120.000000</ele><time>2010-07-07T10:48:01Z</time></trkpt>
	<trkpt lat="52.01497" lon="-1.585136667"><ele>120.000000</ele><time>2010-07-07T10:48:06Z</time></trkpt>
	<trkpt lat="52.01501333" lon="-1.585173333"><ele>120.000000</ele><time>2010-07-07T10:48:11Z</time></trkpt>
	<trkpt lat="52.01505833" lon="-1.585216667"><ele>120.000000</ele><time>2010-07-07T10:48:16Z</time></trkpt>
	<trkpt lat="52.0151" lon="-1.585256667"><ele>120.000000</ele><time>2010-07-07T10:48:21Z</time></trkpt>
	<trkpt lat="52.01513667" lon="-1.585295"><ele>120.000000</ele><time>2010-07-07T10:48:26Z</time></trkpt>
	<trkpt lat="52.01517667" lon="-1.585341667"><ele>119.000000</ele><time>2010-07-07T10:48:31Z</time></trkpt>
	<trkpt lat="52.01521" lon="-1.585388333"><ele>119.000000</ele><time>2010-07-07T10:48:36Z</time></trkpt>
	<trkpt lat="52.01525333" lon="-1.585441667"><ele>119.000000</ele><time>2010-07-07T10:48:41Z</time></trkpt>
	<trkpt lat="52.0153" lon="-1.585498333"><ele>119.000000</ele><time>2010-07-07T10:48:46Z</time></trkpt>
	<trkpt lat="52.01533833" lon="-1.585551667"><ele>119.000000</ele><time>2010-07-07T10:48:51Z</time></trkpt>
	<trkpt lat="52.01537333" lon="-1.585605"><ele>118.000000</ele><time>2010-07-07T10:48:56Z</time></trkpt>
	<trkpt lat="52.01540833" lon="-1.585656667"><ele>118.000000</ele><time>2010-07-07T10:49:01Z</time></trkpt>
	<trkpt lat="52.01544333" lon="-1.585708333"><ele>117.000000</ele><time>2010-07-07T10:49:06Z</time></trkpt>
	<trkpt lat="52.01548" lon="-1.58576"><ele>116.000000</ele><time>2010-07-07T10:49:11Z</time></trkpt>
	<trkpt lat="52.015515" lon="-1.585815"><ele>116.000000</ele><time>2010-07-07T10:49:16Z</time></trkpt>
	<trkpt lat="52.01555833" lon="-1.58588"><ele>116.000000</ele><time>2010-07-07T10:49:21Z</time></trkpt>
	<trkpt lat="52.0156" lon="-1.585953333"><ele>116.000000</ele><time>2010-07-07T10:49:26Z</time></trkpt>
	<trkpt lat="52.01563333" lon="-1.586021667"><ele>116.000000</ele><time>2010-07-07T10:49:31Z</time></trkpt>
	<trkpt lat="52.015665" lon="-1.586093333"><ele>116.000000</ele><time>2010-07-07T10:49:36Z</time></trkpt>
	<trkpt lat="52.0157" lon="-1.586175"><ele>115.000000</ele><time>2010-07-07T10:49:41Z</time></trkpt>
	<trkpt lat="52.015725" lon="-1.58625"><ele>115.000000</ele><time>2010-07-07T10:49:46Z</time></trkpt>
	<trkpt lat="52.01574667" lon="-1.586326667"><ele>115.000000</ele><time>2010-07-07T10:49:51Z</time></trkpt>
	<trkpt lat="52.01576667" lon="-1.586401667"><ele>115.000000</ele><time>2010-07-07T10:49:56Z</time></trkpt>
	<trkpt lat="52.01578" lon="-1.586476667"><ele>115.000000</ele><time>2010-07-07T10:50:01Z</time></trkpt>
	<trkpt lat="52.0158" lon="-1.586553333"><ele>115.000000</ele><time>2010-07-07T10:50:06Z</time></trkpt>
	<trkpt lat="52.01582" lon="-1.58663"><ele>115.000000</ele><time>2010-07-07T10:50:11Z</time></trkpt>
	<trkpt lat="52.01584" lon="-1.586671667"><ele>113.000000</ele><time>2010-07-07T10:50:16Z</time></trkpt>
	<trkpt lat="52.01585333" lon="-1.586693333"><ele>113.000000</ele><time>2010-07-07T10:50:21Z</time></trkpt>
	<trkpt lat="52.01586833" lon="-1.586775"><ele>113.000000</ele><time>2010-07-07T10:50:26Z</time></trkpt>
	<trkpt lat="52.01588667" lon="-1.586858333"><ele>114.000000</ele><time>2010-07-07T10:50:31Z</time></trkpt>
	<trkpt lat="52.015905" lon="-1.586941667"><ele>114.000000</ele><time>2010-07-07T10:50:36Z</time></trkpt>
	<trkpt lat="52.01592667" lon="-1.587021667"><ele>114.000000</ele><time>2010-07-07T10:50:41Z</time></trkpt>
	<trkpt lat="52.01594833" lon="-1.587111667"><ele>113.000000</ele><time>2010-07-07T10:50:46Z</time></trkpt>
	<trkpt lat="52.01596667" lon="-1.5872"><ele>113.000000</ele><time>2010-07-07T10:50:51Z</time></trkpt>
	<trkpt lat="52.01599167" lon="-1.587278333"><ele>113.000000</ele><time>2010-07-07T10:50:56Z</time></trkpt>
	<trkpt lat="52.01600667" lon="-1.587356667"><ele>113.000000</ele><time>2010-07-07T10:51:01Z</time></trkpt>
	<trkpt lat="52.01601167" lon="-1.587396667"><ele>112.000000</ele><time>2010-07-07T10:51:06Z</time></trkpt>
	<trkpt lat="52.01600833" lon="-1.587411667"><ele>111.000000</ele><time>2010-07-07T10:51:11Z</time></trkpt>
	<trkpt lat="52.01599333" lon="-1.58742"><ele>110.000000</ele><time>2010-07-07T10:51:16Z</time></trkpt>
	<trkpt lat="52.01595167" lon="-1.587425"><ele>110.000000</ele><time>2010-07-07T10:51:21Z</time></trkpt>
	<trkpt lat="52.015915" lon="-1.587411667"><ele>110.000000</ele><time>2010-07-07T10:51:26Z</time></trkpt>
	<trkpt lat="52.01587833" lon="-1.587396667"><ele>111.000000</ele><time>2010-07-07T10:51:31Z</time></trkpt>
	<trkpt lat="52.015845" lon="-1.587385"><ele>112.000000</ele><time>2010-07-07T10:51:36Z</time></trkpt>
	<trkpt lat="52.015815" lon="-1.587376667"><ele>114.000000</ele><time>2010-07-07T10:51:41Z</time></trkpt>
	<trkpt lat="52.01578333" lon="-1.58737"><ele>114.000000</ele><time>2010-07-07T10:51:46Z</time></trkpt>
	<trkpt lat="52.01575167" lon="-1.587363333"><ele>114.000000</ele><time>2010-07-07T10:51:51Z</time></trkpt>
	<trkpt lat="52.01570833" lon="-1.587341667"><ele>114.000000</ele><time>2010-07-07T10:51:56Z</time></trkpt>
	<trkpt lat="52.01563833" lon="-1.587325"><ele>113.000000</ele><time>2010-07-07T10:52:01Z</time></trkpt>
	<trkpt lat="52.01558667" lon="-1.587311667"><ele>113.000000</ele><time>2010-07-07T10:52:06Z</time></trkpt>
	<trkpt lat="52.015535" lon="-1.5873"><ele>113.000000</ele><time>2010-07-07T10:52:11Z</time></trkpt>
	<trkpt lat="52.01547667" lon="-1.587281667"><ele>112.000000</ele><time>2010-07-07T10:52:16Z</time></trkpt>
	<trkpt lat="52.01543" lon="-1.587273333"><ele>112.000000</ele><time>2010-07-07T10:52:21Z</time></trkpt>
	<trkpt lat="52.01538333" lon="-1.587261667"><ele>113.000000</ele><time>2010-07-07T10:52:26Z</time></trkpt>
	<trkpt lat="52.01532833" lon="-1.587245"><ele>113.000000</ele><time>2010-07-07T10:52:31Z</time></trkpt>
	<trkpt lat="52.01527833" lon="-1.587231667"><ele>113.000000</ele><time>2010-07-07T10:52:36Z</time></trkpt>
	<trkpt lat="52.01523" lon="-1.587215"><ele>114.000000</ele><time>2010-07-07T10:52:41Z</time></trkpt>
	<trkpt lat="52.01518333" lon="-1.5872"><ele>114.000000</ele><time>2010-07-07T10:52:46Z</time></trkpt>
	<trkpt lat="52.01514" lon="-1.587188333"><ele>115.000000</ele><time>2010-07-07T10:52:51Z</time></trkpt>
	<trkpt lat="52.01508667" lon="-1.587173333"><ele>115.000000</ele><time>2010-07-07T10:52:56Z</time></trkpt>
	<trkpt lat="52.01501833" lon="-1.587153333"><ele>113.000000</ele><time>2010-07-07T10:53:01Z</time></trkpt>
	<trkpt lat="52.01496167" lon="-1.587133333"><ele>112.000000</ele><time>2010-07-07T10:53:06Z</time></trkpt>
	<trkpt lat="52.01491333" lon="-1.587118333"><ele>111.000000</ele><time>2010-07-07T10:53:11Z</time></trkpt>
	<trkpt lat="52.01486333" lon="-1.587106667"><ele>110.000000</ele><time>2010-07-07T10:53:16Z</time></trkpt>
	<trkpt lat="52.01480833" lon="-1.587095"><ele>110.000000</ele><time>2010-07-07T10:53:21Z</time></trkpt>
	<trkpt lat="52.01476167" lon="-1.587075"><ele>110.000000</ele><time>2010-07-07T10:53:26Z</time></trkpt>
	<trkpt lat="52.01472667" lon="-1.58707"><ele>110.000000</ele><time>2010-07-07T10:53:31Z</time></trkpt>
	<trkpt lat="52.01467833" lon="-1.587055"><ele>111.000000</ele><time>2010-07-07T10:53:36Z</time></trkpt>
	<trkpt lat="52.01462833" lon="-1.587041667"><ele>111.000000</ele><time>2010-07-07T10:53:41Z</time></trkpt>
	<trkpt lat="52.01457667" lon="-1.587028333"><ele>112.000000</ele><time>2010-07-07T10:53:46Z</time></trkpt>
	<trkpt lat="52.01452667" lon="-1.587011667"><ele>112.000000</ele><time>2010-07-07T10:53:51Z</time></trkpt>
	<trkpt lat="52.01447333" lon="-1.586996667"><ele>112.000000</ele><time>2010-07-07T10:53:56Z</time></trkpt>
	<trkpt lat="52.01441667" lon="-1.586983333"><ele>112.000000</ele><time>2010-07-07T10:54:01Z</time></trkpt>
	<trkpt lat="52.01435833" lon="-1.586968333"><ele>112.000000</ele><time>2010-07-07T10:54:06Z</time></trkpt>
	<trkpt lat="52.01430333" lon="-1.58695"><ele>112.000000</ele><time>2010-07-07T10:54:11Z</time></trkpt>
	<trkpt lat="52.01424667" lon="-1.586933333"><ele>112.000000</ele><time>2010-07-07T10:54:16Z</time></trkpt>
	<trkpt lat="52.01419167" lon="-1.586915"><ele>112.000000</ele><time>2010-07-07T10:54:21Z</time></trkpt>
	<trkpt lat="52.01414" lon="-1.586901667"><ele>112.000000</ele><time>2010-07-07T10:54:26Z</time></trkpt>
	<trkpt lat="52.01408667" lon="-1.586886667"><ele>112.000000</ele><time>2010-07-07T10:54:31Z</time></trkpt>
	<trkpt lat="52.01403" lon="-1.586866667"><ele>112.000000</ele><time>2010-07-07T10:54:36Z</time></trkpt>
	<trkpt lat="52.01397667" lon="-1.58685"><ele>112.000000</ele><time>2010-07-07T10:54:41Z</time></trkpt>
	<trkpt lat="52.013925" lon="-1.586838333"><ele>112.000000</ele><time>2010-07-07T10:54:46Z</time></trkpt>
	<trkpt lat="52.01387" lon="-1.58682"><ele>112.000000</ele><time>2010-07-07T10:54:51Z</time></trkpt>
	<trkpt lat="52.013815" lon="-1.586803333"><ele>112.000000</ele><time>2010-07-07T10:54:56Z</time></trkpt>
	<trkpt lat="52.01376" lon="-1.586786667"><ele>112.000000</ele><time>2010-07-07T10:55:01Z</time></trkpt>
	<trkpt lat="52.01370667" lon="-1.58677"><ele>112.000000</ele><time>2010-07-07T10:55:06Z</time></trkpt>
	<trkpt lat="52.01365167" lon="-1.586755"><ele>112.000000</ele><time>2010-07-07T10:55:11Z</time></trkpt>
	<trkpt lat="52.01359667" lon="-1.58674"><ele>112.000000</ele><time>2010-07-07T10:55:16Z</time></trkpt>
	<trkpt lat="52.01354167" lon="-1.586721667"><ele>111.000000</ele><time>2010-07-07T10:55:21Z</time></trkpt>
	<trkpt lat="52.01349" lon="-1.586703333"><ele>111.000000</ele><time>2010-07-07T10:55:26Z</time></trkpt>
	<trkpt lat="52.01343833" lon="-1.58669"><ele>112.000000</ele><time>2010-07-07T10:55:31Z</time></trkpt>
	<trkpt lat="52.0134" lon="-1.586678333"><ele>113.000000</ele><time>2010-07-07T10:55:36Z</time></trkpt>
	<trkpt lat="52.01339333" lon="-1.586678333"><ele>113.000000</ele><time>2010-07-07T10:55:41Z</time></trkpt>
	<trkpt lat="52.013355" lon="-1.586666667"><ele>114.000000</ele><time>2010-07-07T10:55:46Z</time></trkpt>
	<trkpt lat="52.0133" lon="-1.586655"><ele>115.000000</ele><time>2010-07-07T10:55:51Z</time></trkpt>
	<trkpt lat="52.01323667" lon="-1.58664"><ele>115.000000</ele><time>2010-07-07T10:55:56Z</time></trkpt>
	<trkpt lat="52.01318167" lon="-1.586625"><ele>115.000000</ele><time>2010-07-07T10:56:01Z</time></trkpt>
	<trkpt lat="52.01313167" lon="-1.58661"><ele>116.000000</ele><time>2010-07-07T10:56:06Z</time></trkpt>
	<trkpt lat="52.01308333" lon="-1.58659"><ele>116.000000</ele><time>2010-07-07T10:56:11Z</time></trkpt>
	<trkpt lat="52.01303" lon="-1.586573333"><ele>116.000000</ele><time>2010-07-07T10:56:16Z</time></trkpt>
	<trkpt lat="52.012985" lon="-1.586561667"><ele>117.000000</ele><time>2010-07-07T10:56:21Z</time></trkpt>
	<trkpt lat="52.01293667" lon="-1.586546667"><ele>118.000000</ele><time>2010-07-07T10:56:26Z</time></trkpt>
	<trkpt lat="52.012885" lon="-1.586535"><ele>118.000000</ele><time>2010-07-07T10:56:31Z</time></trkpt>
	<trkpt lat="52.01283833" lon="-1.58652"><ele>119.000000</ele><time>2010-07-07T10:56:36Z</time></trkpt>
	<trkpt lat="52.01278333" lon="-1.58651"><ele>119.000000</ele><time>2010-07-07T10:56:41Z</time></trkpt>
	<trkpt lat="52.01273" lon="-1.586493333"><ele>118.000000</ele><time>2010-07-07T10:56:46Z</time></trkpt>
	<trkpt lat="52.01268" lon="-1.586476667"><ele>118.000000</ele><time>2010-07-07T10:56:51Z</time></trkpt>
	<trkpt lat="52.01263" lon="-1.586465"><ele>118.000000</ele><time>2010-07-07T10:56:56Z</time></trkpt>
	<trkpt lat="52.01258333" lon="-1.58645"><ele>119.000000</ele><time>2010-07-07T10:57:01Z</time></trkpt>
	<trkpt lat="52.01253833" lon="-1.586441667"><ele>119.000000</ele><time>2010-07-07T10:57:06Z</time></trkpt>
	<trkpt lat="52.01249167" lon="-1.586421667"><ele>119.000000</ele><time>2010-07-07T10:57:11Z</time></trkpt>
	<trkpt lat="52.012445" lon="-1.586413333"><ele>119.000000</ele><time>2010-07-07T10:57:16Z</time></trkpt>
	<trkpt lat="52.01240167" lon="-1.586398333"><ele>119.000000</ele><time>2010-07-07T10:57:21Z</time></trkpt>
	<trkpt lat="52.01235833" lon="-1.586385"><ele>120.000000</ele><time>2010-07-07T10:57:26Z</time></trkpt>
	<trkpt lat="52.01231833" lon="-1.586368333"><ele>120.000000</ele><time>2010-07-07T10:57:31Z</time></trkpt>
	<trkpt lat="52.01227333" lon="-1.586355"><ele>120.000000</ele><time>2010-07-07T10:57:36Z</time></trkpt>
	<trkpt lat="52.01223" lon="-1.586345"><ele>121.000000</ele><time>2010-07-07T10:57:41Z</time></trkpt>
	<trkpt lat="52.01218667" lon="-1.586328333"><ele>121.000000</ele><time>2010-07-07T10:57:46Z</time></trkpt>
	<trkpt lat="52.01214667" lon="-1.586313333"><ele>122.000000</ele><time>2010-07-07T10:57:51Z</time></trkpt>
	<trkpt lat="52.012105" lon="-1.586296667"><ele>122.000000</ele><time>2010-07-07T10:57:56Z</time></trkpt>
	<trkpt lat="52.012065" lon="-1.586278333"><ele>123.000000</ele><time>2010-07-07T10:58:01Z</time></trkpt>
	<trkpt lat="52.01203" lon="-1.586265"><ele>123.000000</ele><time>2010-07-07T10:58:06Z</time></trkpt>
	<trkpt lat="52.01199167" lon="-1.586245"><ele>124.000000</ele><time>2010-07-07T10:58:11Z</time></trkpt>
	<trkpt lat="52.01195333" lon="-1.586218333"><ele>124.000000</ele><time>2010-07-07T10:58:16Z</time></trkpt>
	<trkpt lat="52.01191833" lon="-1.586193333"><ele>125.000000</ele><time>2010-07-07T10:58:21Z</time></trkpt>
	<trkpt lat="52.01189" lon="-1.586168333"><ele>126.000000</ele><time>2010-07-07T10:58:26Z</time></trkpt>
	<trkpt lat="52.01186167" lon="-1.58615"><ele>127.000000</ele><time>2010-07-07T10:58:31Z</time></trkpt>
	<trkpt lat="52.01183167" lon="-1.586128333"><ele>129.000000</ele><time>2010-07-07T10:58:36Z</time></trkpt>
	<trkpt lat="52.011805" lon="-1.586106667"><ele>130.000000</ele><time>2010-07-07T10:58:41Z</time></trkpt>
	<trkpt lat="52.01181333" lon="-1.586083333"><ele>135.000000</ele><time>2010-07-07T10:58:46Z</time></trkpt>
	<trkpt lat="52.0118" lon="-1.58605"><ele>137.000000</ele><time>2010-07-07T10:58:51Z</time></trkpt>
	<trkpt lat="52.01175167" lon="-1.586025"><ele>136.000000</ele><time>2010-07-07T10:58:56Z</time></trkpt>
	<trkpt lat="52.011705" lon="-1.586005"><ele>135.000000</ele><time>2010-07-07T10:59:01Z</time></trkpt>
	<trkpt lat="52.01164833" lon="-1.585985"><ele>133.000000</ele><time>2010-07-07T10:59:06Z</time></trkpt>
	<trkpt lat="52.01158833" lon="-1.585956667"><ele>132.000000</ele><time>2010-07-07T10:59:11Z</time></trkpt>
	<trkpt lat="52.01157833" lon="-1.585921667"><ele>135.000000</ele><time>2010-07-07T10:59:16Z</time></trkpt>
	<trkpt lat="52.01154167" lon="-1.58589"><ele>136.000000</ele><time>2010-07-07T10:59:21Z</time></trkpt>
	<trkpt lat="52.01151" lon="-1.58586"><ele>137.000000</ele><time>2010-07-07T10:59:26Z</time></trkpt>
	<trkpt lat="52.011475" lon="-1.58584"><ele>136.000000</ele><time>2010-07-07T10:59:31Z</time></trkpt>
	<trkpt lat="52.01146667" lon="-1.585845"><ele>138.000000</ele><time>2010-07-07T10:59:36Z</time></trkpt>
	<trkpt lat="52.01149167" lon="-1.585843333"><ele>142.000000</ele><time>2010-07-07T10:59:41Z</time></trkpt>
	<trkpt lat="52.01145333" lon="-1.58582"><ele>142.000000</ele><time>2010-07-07T10:59:46Z</time></trkpt>
	<trkpt lat="52.01144167" lon="-1.585811667"><ele>142.000000</ele><time>2010-07-07T10:59:51Z</time></trkpt>
	<trkpt lat="52.01143" lon="-1.5858"><ele>143.000000</ele><time>2010-07-07T10:59:56Z</time></trkpt>
	<trkpt lat="52.01142333" lon="-1.585778333"><ele>145.000000</ele><time>2010-07-07T11:00:01Z</time></trkpt>
	<trkpt lat="52.01140333" lon="-1.585751667"><ele>147.000000</ele><time>2010-07-07T11:00:06Z</time></trkpt>
	<trkpt lat="52.01135667" lon="-1.585741667"><ele>147.000000</ele><time>2010-07-07T11:00:11Z</time></trkpt>
	<trkpt lat="52.01131333" lon="-1.58572"><ele>146.000000</ele><time>2010-07-07T11:00:16Z</time></trkpt>
	<trkpt lat="52.01128333" lon="-1.585698333"><ele>147.000000</ele><time>2010-07-07T11:00:21Z</time></trkpt>
	<trkpt lat="52.01125333" lon="-1.585673333"><ele>148.000000</ele><time>2010-07-07T11:00:26Z</time></trkpt>
	<trkpt lat="52.01120833" lon="-1.585608333"><ele>145.000000</ele><time>2010-07-07T11:00:31Z</time></trkpt>
	<trkpt lat="52.01117167" lon="-1.585561667"><ele>142.000000</ele><time>2010-07-07T11:00:36Z</time></trkpt>
	<trkpt lat="52.01113833" lon="-1.585536667"><ele>142.000000</ele><time>2010-07-07T11:00:41Z</time></trkpt>
	<trkpt lat="52.01110833" lon="-1.585496667"><ele>143.000000</ele><time>2010-07-07T11:00:46Z</time></trkpt>
	<trkpt lat="52.01106167" lon="-1.585451667"><ele>141.000000</ele><time>2010-07-07T11:00:51Z</time></trkpt>
	<trkpt lat="52.01101833" lon="-1.585408333"><ele>140.000000</ele><time>2010-07-07T11:00:56Z</time></trkpt>
	<trkpt lat="52.01099667" lon="-1.585356667"><ele>140.000000</ele><time>2010-07-07T11:01:01Z</time></trkpt>
	<trkpt lat="52.01095667" lon="-1.585303333"><ele>141.000000</ele><time>2010-07-07T11:01:06Z</time></trkpt>
	<trkpt lat="52.01091833" lon="-1.585273333"><ele>143.000000</ele><time>2010-07-07T11:01:11Z</time></trkpt>
	<trkpt lat="52.010885" lon="-1.585218333"><ele>143.000000</ele><time>2010-07-07T11:01:16Z</time></trkpt>
	<trkpt lat="52.01085167" lon="-1.585168333"><ele>143.000000</ele><time>2010-07-07T11:01:21Z</time></trkpt>
	<trkpt lat="52.010835" lon="-1.585138333"><ele>144.000000</ele><time>2010-07-07T11:01:26Z</time></trkpt>
	<trkpt lat="52.01081667" lon="-1.585083333"><ele>145.000000</ele><time>2010-07-07T11:01:31Z</time></trkpt>
	<trkpt lat="52.0108" lon="-1.585023333"><ele>148.000000</ele><time>2010-07-07T11:01:36Z</time></trkpt>
	<trkpt lat="52.01077667" lon="-1.58496"><ele>149.000000</ele><time>2010-07-07T11:01:41Z</time></trkpt>
	<trkpt lat="52.01075833" lon="-1.584893333"><ele>151.000000</ele><time>2010-07-07T11:01:46Z</time></trkpt>
	<trkpt lat="52.01072" lon="-1.584871667"><ele>150.000000</ele><time>2010-07-07T11:01:51Z</time></trkpt>
	<trkpt lat="52.01063667" lon="-1.584843333"><ele>146.000000</ele><time>2010-07-07T11:01:56Z</time></trkpt>
	<trkpt lat="52.01060667" lon="-1.584835"><ele>143.000000</ele><time>2010-07-07T11:02:01Z</time></trkpt>
	<trkpt lat="52.01058833" lon="-1.584845"><ele>143.000000</ele><time>2010-07-07T11:02:06Z</time></trkpt>
	<trkpt lat="52.01058833" lon="-1.584866667"><ele>143.000000</ele><time>2010-07-07T11:02:11Z</time></trkpt>
	<trkpt lat="52.010585" lon="-1.584873333"><ele>142.000000</ele><time>2010-07-07T11:02:16Z</time></trkpt>
	<trkpt lat="52.01059" lon="-1.584841667"><ele>141.000000</ele><time>2010-07-07T11:02:21Z</time></trkpt>
	<trkpt lat="52.01056833" lon="-1.584788333"><ele>143.000000</ele><time>2010-07-07T11:02:26Z</time></trkpt>
	<trkpt lat="52.01053167" lon="-1.584736667"><ele>144.000000</ele><time>2010-07-07T11:02:31Z</time></trkpt>
	<trkpt lat="52.01049833" lon="-1.584695"><ele>143.000000</ele><time>2010-07-07T11:02:36Z</time></trkpt>
	<trkpt lat="52.01045333" lon="-1.584655"><ele>142.000000</ele><time>2010-07-07T11:02:41Z</time></trkpt>
	<trkpt lat="52.01042333" lon="-1.584641667"><ele>142.000000</ele><time>2010-07-07T11:02:46Z</time></trkpt>
	<trkpt lat="52.010395" lon="-1.584618333"><ele>143.000000</ele><time>2010-07-07T11:02:51Z</time></trkpt>
	<trkpt lat="52.01035833" lon="-1.584583333"><ele>143.000000</ele><time>2010-07-07T11:02:56Z</time></trkpt>
	<trkpt lat="52.01032167" lon="-1.584545"><ele>144.000000</ele><time>2010-07-07T11:03:01Z</time></trkpt>
	<trkpt lat="52.01029167" lon="-1.58451"><ele>144.000000</ele><time>2010-07-07T11:03:06Z</time></trkpt>
	<trkpt lat="52.01026" lon="-1.584473333"><ele>144.000000</ele><time>2010-07-07T11:03:11Z</time></trkpt>
	<trkpt lat="52.01023" lon="-1.584436667"><ele>144.000000</ele><time>2010-07-07T11:03:16Z</time></trkpt>
	<trkpt lat="52.010205" lon="-1.584398333"><ele>145.000000</ele><time>2010-07-07T11:03:21Z</time></trkpt>
	<trkpt lat="52.01018" lon="-1.584363333"><ele>145.000000</ele><time>2010-07-07T11:03:26Z</time></trkpt>
	<trkpt lat="52.01016833" lon="-1.58433"><ele>145.000000</ele><time>2010-07-07T11:03:31Z</time></trkpt>
	<trkpt lat="52.01013333" lon="-1.584288333"><ele>144.000000</ele><time>2010-07-07T11:03:36Z</time></trkpt>
	<trkpt lat="52.01010333" lon="-1.584266667"><ele>145.000000</ele><time>2010-07-07T11:03:41Z</time></trkpt>
	<trkpt lat="52.01007667" lon="-1.584236667"><ele>146.000000</ele><time>2010-07-07T11:03:46Z</time></trkpt>
	<trkpt lat="52.01005" lon="-1.584205"><ele>146.000000</ele><time>2010-07-07T11:03:51Z</time></trkpt>
	<trkpt lat="52.01001" lon="-1.584166667"><ele>147.000000</ele><time>2010-07-07T11:03:56Z</time></trkpt>
	<trkpt lat="52.00996833" lon="-1.584123333"><ele>147.000000</ele><time>2010-07-07T11:04:01Z</time></trkpt>
	<trkpt lat="52.00993167" lon="-1.58409"><ele>148.000000</ele><time>2010-07-07T11:04:06Z</time></trkpt>
	<trkpt lat="52.00989667" lon="-1.584053333"><ele>148.000000</ele><time>2010-07-07T11:04:11Z</time></trkpt>
	<trkpt lat="52.00986167" lon="-1.584016667"><ele>149.000000</ele><time>2010-07-07T11:04:16Z</time></trkpt>
	<trkpt lat="52.00982833" lon="-1.583981667"><ele>149.000000</ele><time>2010-07-07T11:04:21Z</time></trkpt>
	<trkpt lat="52.009795" lon="-1.583948333"><ele>149.000000</ele><time>2010-07-07T11:04:26Z</time></trkpt>
	<trkpt lat="52.00976167" lon="-1.58391"><ele>149.000000</ele><time>2010-07-07T11:04:31Z</time></trkpt>
	<trkpt lat="52.009725" lon="-1.583871667"><ele>149.000000</ele><time>2010-07-07T11:04:36Z</time></trkpt>
	<trkpt lat="52.00969167" lon="-1.583835"><ele>150.000000</ele><time>2010-07-07T11:04:41Z</time></trkpt>
	<trkpt lat="52.009655" lon="-1.583795"><ele>150.000000</ele><time>2010-07-07T11:04:46Z</time></trkpt>
	<trkpt lat="52.00962167" lon="-1.583765"><ele>151.000000</ele><time>2010-07-07T11:04:51Z</time></trkpt>
	<trkpt lat="52.009585" lon="-1.583728333"><ele>151.000000</ele><time>2010-07-07T11:04:56Z</time></trkpt>
	<trkpt lat="52.009555" lon="-1.583713333"><ele>151.000000</ele><time>2010-07-07T11:05:01Z</time></trkpt>
	<trkpt lat="52.00952" lon="-1.583685"><ele>152.000000</ele><time>2010-07-07T11:05:06Z</time></trkpt>
	<trkpt lat="52.00947833" lon="-1.583673333"><ele>152.000000</ele><time>2010-07-07T11:05:11Z</time></trkpt>
	<trkpt lat="52.00943667" lon="-1.583663333"><ele>153.000000</ele><time>2010-07-07T11:05:16Z</time></trkpt>
	<trkpt lat="52.0094" lon="-1.583661667"><ele>153.000000</ele><time>2010-07-07T11:05:21Z</time></trkpt>
	<trkpt lat="52.009395" lon="-1.583653333"><ele>153.000000</ele><time>2010-07-07T11:05:26Z</time></trkpt>
	<trkpt lat="52.009385" lon="-1.583665"><ele>154.000000</ele><time>2010-07-07T11:05:31Z</time></trkpt>
	<trkpt lat="52.009345" lon="-1.583681667"><ele>154.000000</ele><time>2010-07-07T11:05:36Z</time></trkpt>
	<trkpt lat="52.00930333" lon="-1.583703333"><ele>155.000000</ele><time>2010-07-07T11:05:41Z</time></trkpt>
	<trkpt lat="52.00928" lon="-1.583721667"><ele>155.000000</ele><time>2010-07-07T11:05:46Z</time></trkpt>
	<trkpt lat="52.00927" lon="-1.58373"><ele>156.000000</ele><time>2010-07-07T11:05:51Z</time></trkpt>
	<trkpt lat="52.009235" lon="-1.583748333"><ele>156.000000</ele><time>2010-07-07T11:05:56Z</time></trkpt>
	<trkpt lat="52.00920333" lon="-1.583761667"><ele>156.000000</ele><time>2010-07-07T11:06:01Z</time></trkpt>
	<trkpt lat="52.00918667" lon="-1.583765"><ele>155.000000</ele><time>2010-07-07T11:06:06Z</time></trkpt>
	<trkpt lat="52.00916833" lon="-1.583775"><ele>155.000000</ele><time>2010-07-07T11:06:11Z</time></trkpt>
	<trkpt lat="52.00916833" lon="-1.583775"><ele>155.000000</ele><time>2010-07-07T11:06:16Z</time></trkpt>
	<trkpt lat="52.009155" lon="-1.583781667"><ele>156.000000</ele><time>2010-07-07T11:06:21Z</time></trkpt>
	<trkpt lat="52.00914" lon="-1.583768333"><ele>157.000000</ele><time>2010-07-07T11:06:26Z</time></trkpt>
	<trkpt lat="52.00912667" lon="-1.583748333"><ele>157.000000</ele><time>2010-07-07T11:06:31Z</time></trkpt>
	<trkpt lat="52.009115" lon="-1.583743333"><ele>157.000000</ele><time>2010-07-07T11:06:36Z</time></trkpt>
	<trkpt lat="52.00911333" lon="-1.583741667"><ele>157.000000</ele><time>2010-07-07T11:06:41Z</time></trkpt>
	<trkpt lat="52.00910833" lon="-1.583738333"><ele>156.000000</ele><time>2010-07-07T11:06:46Z</time></trkpt>
	<trkpt lat="52.00910333" lon="-1.583735"><ele>155.000000</ele><time>2010-07-07T11:06:51Z</time></trkpt>
	<trkpt lat="52.00910333" lon="-1.58375"><ele>155.000000</ele><time>2010-07-07T11:06:56Z</time></trkpt>
	<trkpt lat="52.00910333" lon="-1.58375"><ele>155.000000</ele><time>2010-07-07T11:07:01Z</time></trkpt>
	<trkpt lat="52.00910333" lon="-1.583751667"><ele>155.000000</ele><time>2010-07-07T11:07:06Z</time></trkpt>
	<trkpt lat="52.009105" lon="-1.583751667"><ele>155.000000</ele><time>2010-07-07T11:07:11Z</time></trkpt>
	<trkpt lat="52.00910333" lon="-1.583751667"><ele>155.000000</ele><time>2010-07-07T11:07:16Z</time></trkpt>
	<trkpt lat="52.0091" lon="-1.583751667"><ele>155.000000</ele><time>2010-07-07T11:07:21Z</time></trkpt>
	<trkpt lat="52.0091" lon="-1.58375"><ele>155.000000</ele><time>2010-07-07T11:07:26Z</time></trkpt>
	<trkpt lat="52.0091" lon="-1.583748333"><ele>155.000000</ele><time>2010-07-07T11:07:31Z</time></trkpt>
	<trkpt lat="52.0091" lon="-1.583746667"><ele>155.000000</ele><time>2010-07-07T11:07:36Z</time></trkpt>
	<trkpt lat="52.0091" lon="-1.58375"><ele>155.000000</ele><time>2010-07-07T11:07:41Z</time></trkpt>
	<trkpt lat="52.00909833" lon="-1.583753333"><ele>155.000000</ele><time>2010-07-07T11:07:46Z</time></trkpt>
	<trkpt lat="52.00907" lon="-1.583796667"><ele>155.000000</ele><time>2010-07-07T11:07:51Z</time></trkpt>
	<trkpt lat="52.00904" lon="-1.583861667"><ele>156.000000</ele><time>2010-07-07T11:07:56Z</time></trkpt>
	<trkpt lat="52.00900833" lon="-1.583918333"><ele>158.000000</ele><time>2010-07-07T11:08:01Z</time></trkpt>
	<trkpt lat="52.00896333" lon="-1.583973333"><ele>159.000000</ele><time>2010-07-07T11:08:06Z</time></trkpt>
	<trkpt lat="52.008915" lon="-1.584025"><ele>160.000000</ele><time>2010-07-07T11:08:11Z</time></trkpt>
	<trkpt lat="52.00886667" lon="-1.584076667"><ele>161.000000</ele><time>2010-07-07T11:08:16Z</time></trkpt>
	<trkpt lat="52.00881333" lon="-1.584118333"><ele>161.000000</ele><time>2010-07-07T11:08:21Z</time></trkpt>
	<trkpt lat="52.008775" lon="-1.584145"><ele>161.000000</ele><time>2010-07-07T11:08:26Z</time></trkpt>
	<trkpt lat="52.00874" lon="-1.584166667"><ele>162.000000</ele><time>2010-07-07T11:08:31Z</time></trkpt>
	<trkpt lat="52.0087" lon="-1.584198333"><ele>163.000000</ele><time>2010-07-07T11:08:36Z</time></trkpt>
	<trkpt lat="52.00865667" lon="-1.584231667"><ele>163.000000</ele><time>2010-07-07T11:08:41Z</time></trkpt>
	<trkpt lat="52.00860167" lon="-1.58428"><ele>162.000000</ele><time>2010-07-07T11:08:46Z</time></trkpt>
	<trkpt lat="52.00855167" lon="-1.584318333"><ele>163.000000</ele><time>2010-07-07T11:08:51Z</time></trkpt>
	<trkpt lat="52.00851167" lon="-1.584358333"><ele>164.000000</ele><time>2010-07-07T11:08:56Z</time></trkpt>
	<trkpt lat="52.00847833" lon="-1.584395"><ele>166.000000</ele><time>2010-07-07T11:09:01Z</time></trkpt>
	<trkpt lat="52.00843833" lon="-1.584433333"><ele>167.000000</ele><time>2010-07-07T11:09:06Z</time></trkpt>
	<trkpt lat="52.008385" lon="-1.584478333"><ele>168.000000</ele><time>2010-07-07T11:09:11Z</time></trkpt>
	<trkpt lat="52.00833167" lon="-1.584523333"><ele>168.000000</ele><time>2010-07-07T11:09:16Z</time></trkpt>
	<trkpt lat="52.008265" lon="-1.584585"><ele>168.000000</ele><time>2010-07-07T11:09:21Z</time></trkpt>
	<trkpt lat="52.00821333" lon="-1.584628333"><ele>168.000000</ele><time>2010-07-07T11:09:26Z</time></trkpt>
	<trkpt lat="52.00815333" lon="-1.584671667"><ele>168.000000</ele><time>2010-07-07T11:09:31Z</time></trkpt>
	<trkpt lat="52.00810167" lon="-1.584713333"><ele>168.000000</ele><time>2010-07-07T11:09:36Z</time></trkpt>
	<trkpt lat="52.00804" lon="-1.584765"><ele>167.000000</ele><time>2010-07-07T11:09:41Z</time></trkpt>
	<trkpt lat="52.00797833" lon="-1.584805"><ele>167.000000</ele><time>2010-07-07T11:09:46Z</time></trkpt>
	<trkpt lat="52.00792333" lon="-1.584855"><ele>167.000000</ele><time>2010-07-07T11:09:51Z</time></trkpt>
	<trkpt lat="52.00787167" lon="-1.5849"><ele>166.000000</ele><time>2010-07-07T11:09:56Z</time></trkpt>
	<trkpt lat="52.00781333" lon="-1.58494"><ele>166.000000</ele><time>2010-07-07T11:10:01Z</time></trkpt>
	<trkpt lat="52.00775333" lon="-1.584995"><ele>166.000000</ele><time>2010-07-07T11:10:06Z</time></trkpt>
	<trkpt lat="52.00770667" lon="-1.585045"><ele>167.000000</ele><time>2010-07-07T11:10:11Z</time></trkpt>
	<trkpt lat="52.00766167" lon="-1.585078333"><ele>167.000000</ele><time>2010-07-07T11:10:16Z</time></trkpt>
	<trkpt lat="52.007605" lon="-1.585121667"><ele>167.000000</ele><time>2010-07-07T11:10:21Z</time></trkpt>
	<trkpt lat="52.00754667" lon="-1.585165"><ele>166.000000</ele><time>2010-07-07T11:10:26Z</time></trkpt>
	<trkpt lat="52.00749" lon="-1.585208333"><ele>166.000000</ele><time>2010-07-07T11:10:31Z</time></trkpt>
	<trkpt lat="52.00744167" lon="-1.585251667"><ele>166.000000</ele><time>2010-07-07T11:10:36Z</time></trkpt>
	<trkpt lat="52.007405" lon="-1.585288333"><ele>166.000000</ele><time>2010-07-07T11:10:41Z</time></trkpt>
	<trkpt lat="52.007345" lon="-1.585331667"><ele>164.000000</ele><time>2010-07-07T11:10:46Z</time></trkpt>
	<trkpt lat="52.00730167" lon="-1.58536"><ele>164.000000</ele><time>2010-07-07T11:10:51Z</time></trkpt>
	<trkpt lat="52.00725333" lon="-1.585396667"><ele>164.000000</ele><time>2010-07-07T11:10:56Z</time></trkpt>
	<trkpt lat="52.00721167" lon="-1.585436667"><ele>164.000000</ele><time>2010-07-07T11:11:01Z</time></trkpt>
	<trkpt lat="52.00717" lon="-1.585486667"><ele>164.000000</ele><time>2010-07-07T11:11:06Z</time></trkpt>
	<trkpt lat="52.007135" lon="-1.585505"><ele>162.000000</ele><time>2010-07-07T11:11:11Z</time></trkpt>
	<trkpt lat="52.007115" lon="-1.585508333"><ele>161.000000</ele><time>2010-07-07T11:11:17Z</time></trkpt>
	<trkpt lat="52.00710333" lon="-1.5855"><ele>161.000000</ele><time>2010-07-07T11:11:22Z</time></trkpt>
	<trkpt lat="52.00709" lon="-1.585501667"><ele>161.000000</ele><time>2010-07-07T11:11:27Z</time></trkpt>
	<trkpt lat="52.00706667" lon="-1.585488333"><ele>161.000000</ele><time>2010-07-07T11:11:32Z</time></trkpt>
	<trkpt lat="52.00706" lon="-1.58548"><ele>160.000000</ele><time>2010-07-07T11:11:37Z</time></trkpt>
	<trkpt lat="52.007055" lon="-1.585475"><ele>159.000000</ele><time>2010-07-07T11:11:42Z</time></trkpt>
	<trkpt lat="52.007035" lon="-1.585488333"><ele>159.000000</ele><time>2010-07-07T11:11:47Z</time></trkpt>
	<trkpt lat="52.007025" lon="-1.585483333"><ele>158.000000</ele><time>2010-07-07T11:11:52Z</time></trkpt>
	<trkpt lat="52.00702" lon="-1.585476667"><ele>157.000000</ele><time>2010-07-07T11:11:57Z</time></trkpt>
	<trkpt lat="52.00701667" lon="-1.585471667"><ele>156.000000</ele><time>2010-07-07T11:12:02Z</time></trkpt>
	<trkpt lat="52.00701667" lon="-1.585471667"><ele>155.000000</ele><time>2010-07-07T11:12:07Z</time></trkpt>
	<trkpt lat="52.00701667" lon="-1.585473333"><ele>155.000000</ele><time>2010-07-07T11:12:12Z</time></trkpt>
	<trkpt lat="52.00702" lon="-1.585475"><ele>156.000000</ele><time>2010-07-07T11:12:17Z</time></trkpt>
	<trkpt lat="52.00702" lon="-1.585473333"><ele>155.000000</ele><time>2010-07-07T11:12:22Z</time></trkpt>
	<trkpt lat="52.00702" lon="-1.585468333"><ele>155.000000</ele><time>2010-07-07T11:12:27Z</time></trkpt>
	<trkpt lat="52.00701667" lon="-1.585465"><ele>154.000000</ele><time>2010-07-07T11:12:32Z</time></trkpt>
	<trkpt lat="52.00701667" lon="-1.585465"><ele>154.000000</ele><time>2010-07-07T11:12:37Z</time></trkpt>
	<trkpt lat="52.007015" lon="-1.585463333"><ele>153.000000</ele><time>2010-07-07T11:12:42Z</time></trkpt>
	<trkpt lat="52.00701" lon="-1.585465"><ele>153.000000</ele><time>2010-07-07T11:12:47Z</time></trkpt>
	<trkpt lat="52.007005" lon="-1.585461667"><ele>152.000000</ele><time>2010-07-07T11:12:52Z</time></trkpt>
	<trkpt lat="52.007" lon="-1.585485"><ele>153.000000</ele><time>2010-07-07T11:12:57Z</time></trkpt>
	<trkpt lat="52.00699833" lon="-1.585506667"><ele>154.000000</ele><time>2010-07-07T11:13:02Z</time></trkpt>
	<trkpt lat="52.00699667" lon="-1.585513333"><ele>154.000000</ele><time>2010-07-07T11:13:07Z</time></trkpt>
	<trkpt lat="52.00699667" lon="-1.585513333"><ele>154.000000</ele><time>2010-07-07T11:13:12Z</time></trkpt>
	<trkpt lat="52.00699833" lon="-1.585508333"><ele>154.000000</ele><time>2010-07-07T11:13:17Z</time></trkpt>
	<trkpt lat="52.007" lon="-1.585506667"><ele>154.000000</ele><time>2010-07-07T11:13:22Z</time></trkpt>
	<trkpt lat="52.007" lon="-1.585506667"><ele>154.000000</ele><time>2010-07-07T11:13:27Z</time></trkpt>
	<trkpt lat="52.00699833" lon="-1.585505"><ele>154.000000</ele><time>2010-07-07T11:13:32Z</time></trkpt>
	<trkpt lat="52.006995" lon="-1.585516667"><ele>154.000000</ele><time>2010-07-07T11:13:37Z</time></trkpt>
	<trkpt lat="52.00699" lon="-1.585515"><ele>153.000000</ele><time>2010-07-07T11:13:42Z</time></trkpt>
	<trkpt lat="52.00699333" lon="-1.585515"><ele>154.000000</ele><time>2010-07-07T11:13:47Z</time></trkpt>
	<trkpt lat="52.00699667" lon="-1.585513333"><ele>154.000000</ele><time>2010-07-07T11:13:52Z</time></trkpt>
	<trkpt lat="52.007" lon="-1.585513333"><ele>154.000000</ele><time>2010-07-07T11:13:57Z</time></trkpt>
	<trkpt lat="52.00700167" lon="-1.585513333"><ele>154.000000</ele><time>2010-07-07T11:14:02Z</time></trkpt>
	<trkpt lat="52.007005" lon="-1.585513333"><ele>154.000000</ele><time>2010-07-07T11:14:07Z</time></trkpt>
	<trkpt lat="52.00700833" lon="-1.585511667"><ele>154.000000</ele><time>2010-07-07T11:14:12Z</time></trkpt>
	<trkpt lat="52.00700667" lon="-1.585513333"><ele>155.000000</ele><time>2010-07-07T11:14:17Z</time></trkpt>
	<trkpt lat="52.00700667" lon="-1.585565"><ele>156.000000</ele><time>2010-07-07T11:14:22Z</time></trkpt>
	<trkpt lat="52.00697833" lon="-1.585603333"><ele>158.000000</ele><time>2010-07-07T11:14:27Z</time></trkpt>
	<trkpt lat="52.00694" lon="-1.585631667"><ele>158.000000</ele><time>2010-07-07T11:14:32Z</time></trkpt>
	<trkpt lat="52.00690667" lon="-1.585665"><ele>160.000000</ele><time>2010-07-07T11:14:37Z</time></trkpt>
	<trkpt lat="52.00688833" lon="-1.585665"><ele>159.000000</ele><time>2010-07-07T11:14:42Z</time></trkpt>
	<trkpt lat="52.00688667" lon="-1.585665"><ele>159.000000</ele><time>2010-07-07T11:14:47Z</time></trkpt>
	<trkpt lat="52.00688167" lon="-1.58565"><ele>161.000000</ele><time>2010-07-07T11:14:52Z</time></trkpt>
	<trkpt lat="52.00687833" lon="-1.585643333"><ele>162.000000</ele><time>2010-07-07T11:14:57Z</time></trkpt>
	<trkpt lat="52.006875" lon="-1.585643333"><ele>162.000000</ele><time>2010-07-07T11:15:02Z</time></trkpt>
	<trkpt lat="52.006865" lon="-1.585651667"><ele>161.000000</ele><time>2010-07-07T11:15:07Z</time></trkpt>
	<trkpt lat="52.00683667" lon="-1.585671667"><ele>162.000000</ele><time>2010-07-07T11:15:12Z</time></trkpt>
	<trkpt lat="52.00681" lon="-1.585698333"><ele>162.000000</ele><time>2010-07-07T11:15:17Z</time></trkpt>
	<trkpt lat="52.006775" lon="-1.585725"><ele>164.000000</ele><time>2010-07-07T11:15:22Z</time></trkpt>
	<trkpt lat="52.00673" lon="-1.585765"><ele>165.000000</ele><time>2010-07-07T11:15:27Z</time></trkpt>
	<trkpt lat="52.00668667" lon="-1.585811667"><ele>165.000000</ele><time>2010-07-07T11:15:32Z</time></trkpt>
	<trkpt lat="52.006625" lon="-1.585848333"><ele>165.000000</ele><time>2010-07-07T11:15:37Z</time></trkpt>
	<trkpt lat="52.006575" lon="-1.58589"><ele>165.000000</ele><time>2010-07-07T11:15:42Z</time></trkpt>
	<trkpt lat="52.00653667" lon="-1.585925"><ele>166.000000</ele><time>2010-07-07T11:15:47Z</time></trkpt>
	<trkpt lat="52.00649333" lon="-1.58595"><ele>165.000000</ele><time>2010-07-07T11:15:52Z</time></trkpt>
	<trkpt lat="52.00644667" lon="-1.585983333"><ele>166.000000</ele><time>2010-07-07T11:15:57Z</time></trkpt>
	<trkpt lat="52.00640667" lon="-1.586011667"><ele>166.000000</ele><time>2010-07-07T11:16:02Z</time></trkpt>
	<trkpt lat="52.00635667" lon="-1.586046667"><ele>167.000000</ele><time>2010-07-07T11:16:07Z</time></trkpt>
	<trkpt lat="52.00631333" lon="-1.586065"><ele>167.000000</ele><time>2010-07-07T11:16:12Z</time></trkpt>
	<trkpt lat="52.00626" lon="-1.586115"><ele>168.000000</ele><time>2010-07-07T11:16:17Z</time></trkpt>
	<trkpt lat="52.0062" lon="-1.586145"><ele>167.000000</ele><time>2010-07-07T11:16:22Z</time></trkpt>
	<trkpt lat="52.00614" lon="-1.586171667"><ele>167.000000</ele><time>2010-07-07T11:16:27Z</time></trkpt>
	<trkpt lat="52.006095" lon="-1.586193333"><ele>168.000000</ele><time>2010-07-07T11:16:32Z</time></trkpt>
	<trkpt lat="52.006035" lon="-1.58623"><ele>167.000000</ele><time>2010-07-07T11:16:37Z</time></trkpt>
	<trkpt lat="52.00598667" lon="-1.58625"><ele>168.000000</ele><time>2010-07-07T11:16:42Z</time></trkpt>
	<trkpt lat="52.005955" lon="-1.586261667"><ele>170.000000</ele><time>2010-07-07T11:16:47Z</time></trkpt>
	<trkpt lat="52.00591833" lon="-1.586278333"><ele>171.000000</ele><time>2010-07-07T11:16:52Z</time></trkpt>
	<trkpt lat="52.005875" lon="-1.586286667"><ele>171.000000</ele><time>2010-07-07T11:16:57Z</time></trkpt>
	<trkpt lat="52.00580833" lon="-1.5863"><ele>170.000000</ele><time>2010-07-07T11:17:02Z</time></trkpt>
	<trkpt lat="52.00574167" lon="-1.586315"><ele>169.000000</ele><time>2010-07-07T11:17:07Z</time></trkpt>
	<trkpt lat="52.00568167" lon="-1.586328333"><ele>169.000000</ele><time>2010-07-07T11:17:12Z</time></trkpt>
	<trkpt lat="52.00562167" lon="-1.586343333"><ele>168.000000</ele><time>2010-07-07T11:17:17Z</time></trkpt>
	<trkpt lat="52.005565" lon="-1.586355"><ele>168.000000</ele><time>2010-07-07T11:17:22Z</time></trkpt>
	<trkpt lat="52.00550333" lon="-1.586373333"><ele>167.000000</ele><time>2010-07-07T11:17:27Z</time></trkpt>
	<trkpt lat="52.00544333" lon="-1.586396667"><ele>167.000000</ele><time>2010-07-07T11:17:32Z</time></trkpt>
	<trkpt lat="52.00538167" lon="-1.586415"><ele>167.000000</ele><time>2010-07-07T11:17:37Z</time></trkpt>
	<trkpt lat="52.00532167" lon="-1.586428333"><ele>167.000000</ele><time>2010-07-07T11:17:42Z</time></trkpt>
	<trkpt lat="52.00526667" lon="-1.586436667"><ele>167.000000</ele><time>2010-07-07T11:17:47Z</time></trkpt>
	<trkpt lat="52.00521667" lon="-1.58645"><ele>168.000000</ele><time>2010-07-07T11:17:52Z</time></trkpt>
	<trkpt lat="52.00515" lon="-1.58647"><ele>167.000000</ele><time>2010-07-07T11:17:57Z</time></trkpt>
	<trkpt lat="52.00508333" lon="-1.586483333"><ele>166.000000</ele><time>2010-07-07T11:18:02Z</time></trkpt>
	<trkpt lat="52.00502333" lon="-1.586496667"><ele>165.000000</ele><time>2010-07-07T11:18:07Z</time></trkpt>
	<trkpt lat="52.00496833" lon="-1.58651"><ele>165.000000</ele><time>2010-07-07T11:18:12Z</time></trkpt>
	<trkpt lat="52.00491333" lon="-1.58652"><ele>165.000000</ele><time>2010-07-07T11:18:17Z</time></trkpt>
	<trkpt lat="52.00486167" lon="-1.586528333"><ele>166.000000</ele><time>2010-07-07T11:18:22Z</time></trkpt>
	<trkpt lat="52.00481333" lon="-1.58654"><ele>166.000000</ele><time>2010-07-07T11:18:27Z</time></trkpt>
	<trkpt lat="52.004765" lon="-1.586553333"><ele>166.000000</ele><time>2010-07-07T11:18:32Z</time></trkpt>
	<trkpt lat="52.004715" lon="-1.586561667"><ele>167.000000</ele><time>2010-07-07T11:18:37Z</time></trkpt>
	<trkpt lat="52.00466833" lon="-1.586568333"><ele>168.000000</ele><time>2010-07-07T11:18:42Z</time></trkpt>
	<trkpt lat="52.00463167" lon="-1.58657"><ele>169.000000</ele><time>2010-07-07T11:18:47Z</time></trkpt>
	<trkpt lat="52.00459167" lon="-1.586571667"><ele>169.000000</ele><time>2010-07-07T11:18:52Z</time></trkpt>
	<trkpt lat="52.00456667" lon="-1.586578333"><ele>168.000000</ele><time>2010-07-07T11:18:57Z</time></trkpt>
	<trkpt lat="52.004545" lon="-1.586576667"><ele>169.000000</ele><time>2010-07-07T11:19:02Z</time></trkpt>
	<trkpt lat="52.00450167" lon="-1.586578333"><ele>170.000000</ele><time>2010-07-07T11:19:07Z</time></trkpt>
	<trkpt lat="52.00445" lon="-1.586591667"><ele>171.000000</ele><time>2010-07-07T11:19:12Z</time></trkpt>
	<trkpt lat="52.004395" lon="-1.5866"><ele>172.000000</ele><time>2010-07-07T11:19:17Z</time></trkpt>
	<trkpt lat="52.00434167" lon="-1.586605"><ele>172.000000</ele><time>2010-07-07T11:19:22Z</time></trkpt>
	<trkpt lat="52.00429167" lon="-1.586625"><ele>174.000000</ele><time>2010-07-07T11:19:27Z</time></trkpt>
	<trkpt lat="52.00424667" lon="-1.586638333"><ele>175.000000</ele><time>2010-07-07T11:19:32Z</time></trkpt>
	<trkpt lat="52.00419833" lon="-1.586646667"><ele>176.000000</ele><time>2010-07-07T11:19:37Z</time></trkpt>
	<trkpt lat="52.00415" lon="-1.586646667"><ele>176.000000</ele><time>2010-07-07T11:19:42Z</time></trkpt>
	<trkpt lat="52.0041" lon="-1.586655"><ele>176.000000</ele><time>2010-07-07T11:19:47Z</time></trkpt>
	<trkpt lat="52.00404667" lon="-1.58665"><ele>175.000000</ele><time>2010-07-07T11:19:52Z</time></trkpt>
	<trkpt lat="52.00399333" lon="-1.586655"><ele>175.000000</ele><time>2010-07-07T11:19:57Z</time></trkpt>
	<trkpt lat="52.00394" lon="-1.586661667"><ele>175.000000</ele><time>2010-07-07T11:20:02Z</time></trkpt>
	<trkpt lat="52.00388167" lon="-1.58666"><ele>175.000000</ele><time>2010-07-07T11:20:07Z</time></trkpt>
	<trkpt lat="52.00382667" lon="-1.586653333"><ele>174.000000</ele><time>2010-07-07T11:20:12Z</time></trkpt>
	<trkpt lat="52.003775" lon="-1.58665"><ele>174.000000</ele><time>2010-07-07T11:20:17Z</time></trkpt>
	<trkpt lat="52.00372" lon="-1.586641667"><ele>173.000000</ele><time>2010-07-07T11:20:22Z</time></trkpt>
	<trkpt lat="52.00366667" lon="-1.58663"><ele>172.000000</ele><time>2010-07-07T11:20:27Z</time></trkpt>
	<trkpt lat="52.00361333" lon="-1.58662"><ele>172.000000</ele><time>2010-07-07T11:20:32Z</time></trkpt>
	<trkpt lat="52.00356833" lon="-1.58662"><ele>172.000000</ele><time>2010-07-07T11:20:37Z</time></trkpt>
	<trkpt lat="52.00352333" lon="-1.586606667"><ele>173.000000</ele><time>2010-07-07T11:20:42Z</time></trkpt>
	<trkpt lat="52.003475" lon="-1.586578333"><ele>171.000000</ele><time>2010-07-07T11:20:47Z</time></trkpt>
	<trkpt lat="52.003455" lon="-1.586573333"><ele>168.000000</ele><time>2010-07-07T11:20:52Z</time></trkpt>
	<trkpt lat="52.00340833" lon="-1.586573333"><ele>170.000000</ele><time>2010-07-07T11:20:57Z</time></trkpt>
	<trkpt lat="52.003375" lon="-1.586533333"><ele>170.000000</ele><time>2010-07-07T11:21:02Z</time></trkpt>
	<trkpt lat="52.003365" lon="-1.586526667"><ele>169.000000</ele><time>2010-07-07T11:21:07Z</time></trkpt>
	<trkpt lat="52.00332833" lon="-1.586536667"><ele>169.000000</ele><time>2010-07-07T11:21:12Z</time></trkpt>
	<trkpt lat="52.003315" lon="-1.586545"><ele>167.000000</ele><time>2010-07-07T11:21:17Z</time></trkpt>
	<trkpt lat="52.003315" lon="-1.58654"><ele>167.000000</ele><time>2010-07-07T11:21:22Z</time></trkpt>
	<trkpt lat="52.00330333" lon="-1.586533333"><ele>166.000000</ele><time>2010-07-07T11:21:27Z</time></trkpt>
	<trkpt lat="52.003255" lon="-1.586505"><ele>166.000000</ele><time>2010-07-07T11:21:32Z</time></trkpt>
	<trkpt lat="52.00321833" lon="-1.586478333"><ele>166.000000</ele><time>2010-07-07T11:21:37Z</time></trkpt>
	<trkpt lat="52.003185" lon="-1.586465"><ele>166.000000</ele><time>2010-07-07T11:21:42Z</time></trkpt>
	<trkpt lat="52.003135" lon="-1.586438333"><ele>167.000000</ele><time>2010-07-07T11:21:47Z</time></trkpt>
	<trkpt lat="52.00309333" lon="-1.586403333"><ele>168.000000</ele><time>2010-07-07T11:21:52Z</time></trkpt>
	<trkpt lat="52.00305167" lon="-1.586383333"><ele>169.000000</ele><time>2010-07-07T11:21:57Z</time></trkpt>
	<trkpt lat="52.00300333" lon="-1.586358333"><ele>170.000000</ele><time>2010-07-07T11:22:02Z</time></trkpt>
	<trkpt lat="52.00294667" lon="-1.586321667"><ele>170.000000</ele><time>2010-07-07T11:22:07Z</time></trkpt>
	<trkpt lat="52.00288833" lon="-1.586278333"><ele>169.000000</ele><time>2010-07-07T11:22:12Z</time></trkpt>
	<trkpt lat="52.002845" lon="-1.58624"><ele>169.000000</ele><time>2010-07-07T11:22:17Z</time></trkpt>
	<trkpt lat="52.00280333" lon="-1.586201667"><ele>171.000000</ele><time>2010-07-07T11:22:22Z</time></trkpt>
	<trkpt lat="52.002765" lon="-1.586148333"><ele>172.000000</ele><time>2010-07-07T11:22:27Z</time></trkpt>
	<trkpt lat="52.00273667" lon="-1.586088333"><ele>174.000000</ele><time>2010-07-07T11:22:32Z</time></trkpt>
	<trkpt lat="52.00271167" lon="-1.586026667"><ele>176.000000</ele><time>2010-07-07T11:22:37Z</time></trkpt>
	<trkpt lat="52.00269" lon="-1.585958333"><ele>178.000000</ele><time>2010-07-07T11:22:42Z</time></trkpt>
	<trkpt lat="52.00267" lon="-1.585888333"><ele>179.000000</ele><time>2010-07-07T11:22:47Z</time></trkpt>
	<trkpt lat="52.00265333" lon="-1.585816667"><ele>181.000000</ele><time>2010-07-07T11:22:52Z</time></trkpt>
	<trkpt lat="52.00262" lon="-1.585746667"><ele>181.000000</ele><time>2010-07-07T11:22:57Z</time></trkpt>
	<trkpt lat="52.00259" lon="-1.585675"><ele>181.000000</ele><time>2010-07-07T11:23:02Z</time></trkpt>
	<trkpt lat="52.00256167" lon="-1.5856"><ele>181.000000</ele><time>2010-07-07T11:23:07Z</time></trkpt>
	<trkpt lat="52.002535" lon="-1.585533333"><ele>182.000000</ele><time>2010-07-07T11:23:12Z</time></trkpt>
	<trkpt lat="52.00251667" lon="-1.585463333"><ele>184.000000</ele><time>2010-07-07T11:23:17Z</time></trkpt>
	<trkpt lat="52.0025" lon="-1.585393333"><ele>185.000000</ele><time>2010-07-07T11:23:22Z</time></trkpt>
	<trkpt lat="52.002475" lon="-1.585318333"><ele>185.000000</ele><time>2010-07-07T11:23:27Z</time></trkpt>
	<trkpt lat="52.00242667" lon="-1.585251667"><ele>180.000000</ele><time>2010-07-07T11:23:32Z</time></trkpt>
	<trkpt lat="52.00241333" lon="-1.585251667"><ele>178.000000</ele><time>2010-07-07T11:23:37Z</time></trkpt>
	<trkpt lat="52.0024" lon="-1.585226667"><ele>175.000000</ele><time>2010-07-07T11:23:42Z</time></trkpt>
	<trkpt lat="52.00238167" lon="-1.585221667"><ele>172.000000</ele><time>2010-07-07T11:23:47Z</time></trkpt>
	<trkpt lat="52.00237333" lon="-1.585215"><ele>171.000000</ele><time>2010-07-07T11:23:52Z</time></trkpt>
	<trkpt lat="52.00236833" lon="-1.585208333"><ele>170.000000</ele><time>2010-07-07T11:23:57Z</time></trkpt>
	<trkpt lat="52.00233333" lon="-1.585165"><ele>170.000000</ele><time>2010-07-07T11:24:02Z</time></trkpt>
	<trkpt lat="52.00230333" lon="-1.585095"><ele>171.000000</ele><time>2010-07-07T11:24:07Z</time></trkpt>
	<trkpt lat="52.00227667" lon="-1.585028333"><ele>172.000000</ele><time>2010-07-07T11:24:12Z</time></trkpt>
	<trkpt lat="52.00224333" lon="-1.584963333"><ele>172.000000</ele><time>2010-07-07T11:24:17Z</time></trkpt>
	<trkpt lat="52.00221333" lon="-1.584898333"><ele>174.000000</ele><time>2010-07-07T11:24:22Z</time></trkpt>
	<trkpt lat="52.00218833" lon="-1.584835"><ele>175.000000</ele><time>2010-07-07T11:24:27Z</time></trkpt>
	<trkpt lat="52.00215833" lon="-1.584771667"><ele>177.000000</ele><time>2010-07-07T11:24:32Z</time></trkpt>
	<trkpt lat="52.00212167" lon="-1.5847"><ele>176.000000</ele><time>2010-07-07T11:24:37Z</time></trkpt>
	<trkpt lat="52.002085" lon="-1.584641667"><ele>177.000000</ele><time>2010-07-07T11:24:42Z</time></trkpt>
	<trkpt lat="52.00204333" lon="-1.584585"><ele>177.000000</ele><time>2010-07-07T11:24:47Z</time></trkpt>
	<trkpt lat="52.00200167" lon="-1.584523333"><ele>177.000000</ele><time>2010-07-07T11:24:52Z</time></trkpt>
	<trkpt lat="52.00195833" lon="-1.584465"><ele>176.000000</ele><time>2010-07-07T11:24:57Z</time></trkpt>
	<trkpt lat="52.00192167" lon="-1.584403333"><ele>177.000000</ele><time>2010-07-07T11:25:02Z</time></trkpt>
	<trkpt lat="52.00188167" lon="-1.584345"><ele>177.000000</ele><time>2010-07-07T11:25:07Z</time></trkpt>
	<trkpt lat="52.00185167" lon="-1.58428"><ele>179.000000</ele><time>2010-07-07T11:25:12Z</time></trkpt>
	<trkpt lat="52.00181667" lon="-1.584223333"><ele>180.000000</ele><time>2010-07-07T11:25:17Z</time></trkpt>
	<trkpt lat="52.00176167" lon="-1.584158333"><ele>177.000000</ele><time>2010-07-07T11:25:22Z</time></trkpt>
	<trkpt lat="52.00168667" lon="-1.584098333"><ele>171.000000</ele><time>2010-07-07T11:25:27Z</time></trkpt>
	<trkpt lat="52.00161833" lon="-1.584051667"><ele>166.000000</ele><time>2010-07-07T11:25:32Z</time></trkpt>
	<trkpt lat="52.00156333" lon="-1.583995"><ele>164.000000</ele><time>2010-07-07T11:25:37Z</time></trkpt>
	<trkpt lat="52.00152" lon="-1.583948333"><ele>164.000000</ele><time>2010-07-07T11:25:42Z</time></trkpt>
	<trkpt lat="52.00147667" lon="-1.583893333"><ele>162.000000</ele><time>2010-07-07T11:25:47Z</time></trkpt>
	<trkpt lat="52.001425" lon="-1.583843333"><ele>160.000000</ele><time>2010-07-07T11:25:52Z</time></trkpt>
	<trkpt lat="52.00138" lon="-1.58379"><ele>159.000000</ele><time>2010-07-07T11:25:57Z</time></trkpt>
	<trkpt lat="52.00133" lon="-1.58374"><ele>158.000000</ele><time>2010-07-07T11:26:02Z</time></trkpt>
	<trkpt lat="52.00129167" lon="-1.58369"><ele>158.000000</ele><time>2010-07-07T11:26:07Z</time></trkpt>
	<trkpt lat="52.00125" lon="-1.58364"><ele>158.000000</ele><time>2010-07-07T11:26:12Z</time></trkpt>
	<trkpt lat="52.00121167" lon="-1.583596667"><ele>158.000000</ele><time>2010-07-07T11:26:17Z</time></trkpt>
	<trkpt lat="52.001165" lon="-1.583545"><ele>157.000000</ele><time>2010-07-07T11:26:22Z</time></trkpt>
	<trkpt lat="52.00112" lon="-1.583493333"><ele>155.000000</ele><time>2010-07-07T11:26:27Z</time></trkpt>
	<trkpt lat="52.00106333" lon="-1.583458333"><ele>155.000000</ele><time>2010-07-07T11:26:32Z</time></trkpt>
	<trkpt lat="52.00101833" lon="-1.58343"><ele>153.000000</ele><time>2010-07-07T11:26:37Z</time></trkpt>
	<trkpt lat="52.000965" lon="-1.583396667"><ele>151.000000</ele><time>2010-07-07T11:26:42Z</time></trkpt>
	<trkpt lat="52.00093167" lon="-1.583373333"><ele>149.000000</ele><time>2010-07-07T11:26:47Z</time></trkpt>
	<trkpt lat="52.00089167" lon="-1.583348333"><ele>147.000000</ele><time>2010-07-07T11:26:52Z</time></trkpt>
	<trkpt lat="52.000865" lon="-1.58333"><ele>147.000000</ele><time>2010-07-07T11:26:57Z</time></trkpt>
	<trkpt lat="52.00082667" lon="-1.58329"><ele>148.000000</ele><time>2010-07-07T11:27:02Z</time></trkpt>
	<trkpt lat="52.00078167" lon="-1.58324"><ele>150.000000</ele><time>2010-07-07T11:27:07Z</time></trkpt>
	<trkpt lat="52.00072167" lon="-1.583196667"><ele>148.000000</ele><time>2010-07-07T11:27:12Z</time></trkpt>
	<trkpt lat="52.00067333" lon="-1.583151667"><ele>149.000000</ele><time>2010-07-07T11:27:17Z</time></trkpt>
	<trkpt lat="52.00061667" lon="-1.583108333"><ele>148.000000</ele><time>2010-07-07T11:27:22Z</time></trkpt>
	<trkpt lat="52.00057" lon="-1.583076667"><ele>148.000000</ele><time>2010-07-07T11:27:27Z</time></trkpt>
	<trkpt lat="52.00052" lon="-1.583038333"><ele>148.000000</ele><time>2010-07-07T11:27:32Z</time></trkpt>
	<trkpt lat="52.000465" lon="-1.582991667"><ele>146.000000</ele><time>2010-07-07T11:27:37Z</time></trkpt>
	<trkpt lat="52.000405" lon="-1.583011667"><ele>143.000000</ele><time>2010-07-07T11:27:42Z</time></trkpt>
	<trkpt lat="52.00037667" lon="-1.583046667"><ele>142.000000</ele><time>2010-07-07T11:27:47Z</time></trkpt>
	<trkpt lat="52.000355" lon="-1.583046667"><ele>141.000000</ele><time>2010-07-07T11:27:52Z</time></trkpt>
	<trkpt lat="52.00035" lon="-1.583023333"><ele>139.000000</ele><time>2010-07-07T11:27:57Z</time></trkpt>
	<trkpt lat="52.00034167" lon="-1.58301"><ele>138.000000</ele><time>2010-07-07T11:28:02Z</time></trkpt>
	<trkpt lat="52.00030833" lon="-1.58296"><ele>138.000000</ele><time>2010-07-07T11:28:07Z</time></trkpt>
	<trkpt lat="52.000265" lon="-1.58292"><ele>138.000000</ele><time>2010-07-07T11:28:12Z</time></trkpt>
	<trkpt lat="52.00021833" lon="-1.58288"><ele>138.000000</ele><time>2010-07-07T11:28:17Z</time></trkpt>
	<trkpt lat="52.00017333" lon="-1.582838333"><ele>138.000000</ele><time>2010-07-07T11:28:22Z</time></trkpt>
	<trkpt lat="52.00013" lon="-1.5828"><ele>137.000000</ele><time>2010-07-07T11:28:27Z</time></trkpt>
	<trkpt lat="52.000085" lon="-1.582761667"><ele>137.000000</ele><time>2010-07-07T11:28:32Z</time></trkpt>
	<trkpt lat="52.00004" lon="-1.58272"><ele>137.000000</ele><time>2010-07-07T11:28:37Z</time></trkpt>
	<trkpt lat="51.999995" lon="-1.582681667"><ele>137.000000</ele><time>2010-07-07T11:28:42Z</time></trkpt>
	<trkpt lat="51.99994667" lon="-1.582646667"><ele>137.000000</ele><time>2010-07-07T11:28:47Z</time></trkpt>
	<trkpt lat="51.9999" lon="-1.582611667"><ele>137.000000</ele><time>2010-07-07T11:28:52Z</time></trkpt>
	<trkpt lat="51.99985167" lon="-1.58258"><ele>137.000000</ele><time>2010-07-07T11:28:57Z</time></trkpt>
	<trkpt lat="51.99980333" lon="-1.582548333"><ele>137.000000</ele><time>2010-07-07T11:29:02Z</time></trkpt>
	<trkpt lat="51.99975" lon="-1.582516667"><ele>137.000000</ele><time>2010-07-07T11:29:07Z</time></trkpt>
	<trkpt lat="51.999695" lon="-1.582488333"><ele>137.000000</ele><time>2010-07-07T11:29:12Z</time></trkpt>
	<trkpt lat="51.99962333" lon="-1.582455"><ele>133.000000</ele><time>2010-07-07T11:29:17Z</time></trkpt>
	<trkpt lat="51.99955667" lon="-1.58243"><ele>131.000000</ele><time>2010-07-07T11:29:22Z</time></trkpt>
	<trkpt lat="51.999495" lon="-1.582406667"><ele>129.000000</ele><time>2010-07-07T11:29:27Z</time></trkpt>
	<trkpt lat="51.99944" lon="-1.582391667"><ele>129.000000</ele><time>2010-07-07T11:29:32Z</time></trkpt>
	<trkpt lat="51.99938667" lon="-1.582376667"><ele>129.000000</ele><time>2010-07-07T11:29:37Z</time></trkpt>
	<trkpt lat="51.99933" lon="-1.582363333"><ele>129.000000</ele><time>2010-07-07T11:29:42Z</time></trkpt>
	<trkpt lat="51.99926833" lon="-1.582348333"><ele>128.000000</ele><time>2010-07-07T11:29:47Z</time></trkpt>
	<trkpt lat="51.99920667" lon="-1.582335"><ele>127.000000</ele><time>2010-07-07T11:29:52Z</time></trkpt>
	<trkpt lat="51.999145" lon="-1.582326667"><ele>126.000000</ele><time>2010-07-07T11:29:57Z</time></trkpt>
	<trkpt lat="51.99909167" lon="-1.582321667"><ele>126.000000</ele><time>2010-07-07T11:30:02Z</time></trkpt>
	<trkpt lat="51.99904167" lon="-1.582308333"><ele>126.000000</ele><time>2010-07-07T11:30:07Z</time></trkpt>
	<trkpt lat="51.99899167" lon="-1.582305"><ele>126.000000</ele><time>2010-07-07T11:30:12Z</time></trkpt>
	<trkpt lat="51.99893833" lon="-1.582298333"><ele>126.000000</ele><time>2010-07-07T11:30:17Z</time></trkpt>
	<trkpt lat="51.99888667" lon="-1.582293333"><ele>126.000000</ele><time>2010-07-07T11:30:22Z</time></trkpt>
	<trkpt lat="51.99883333" lon="-1.582286667"><ele>125.000000</ele><time>2010-07-07T11:30:27Z</time></trkpt>
	<trkpt lat="51.99878167" lon="-1.582283333"><ele>125.000000</ele><time>2010-07-07T11:30:32Z</time></trkpt>
	<trkpt lat="51.99872833" lon="-1.582276667"><ele>126.000000</ele><time>2010-07-07T11:30:37Z</time></trkpt>
	<trkpt lat="51.998665" lon="-1.582273333"><ele>124.000000</ele><time>2010-07-07T11:30:42Z</time></trkpt>
	<trkpt lat="51.99860833" lon="-1.582265"><ele>124.000000</ele><time>2010-07-07T11:30:47Z</time></trkpt>
	<trkpt lat="51.99855667" lon="-1.58226"><ele>123.000000</ele><time>2010-07-07T11:30:52Z</time></trkpt>
	<trkpt lat="51.99850667" lon="-1.582255"><ele>124.000000</ele><time>2010-07-07T11:30:57Z</time></trkpt>
	<trkpt lat="51.99845833" lon="-1.582251667"><ele>124.000000</ele><time>2010-07-07T11:31:02Z</time></trkpt>
	<trkpt lat="51.99841" lon="-1.582243333"><ele>125.000000</ele><time>2010-07-07T11:31:07Z</time></trkpt>
	<trkpt lat="51.99836" lon="-1.582243333"><ele>126.000000</ele><time>2010-07-07T11:31:12Z</time></trkpt>
	<trkpt lat="51.99831167" lon="-1.582241667"><ele>127.000000</ele><time>2010-07-07T11:31:17Z</time></trkpt>
	<trkpt lat="51.99825833" lon="-1.582236667"><ele>127.000000</ele><time>2010-07-07T11:31:22Z</time></trkpt>
	<trkpt lat="51.99821167" lon="-1.582231667"><ele>124.000000</ele><time>2010-07-07T11:31:27Z</time></trkpt>
	<trkpt lat="51.99818167" lon="-1.58223"><ele>124.000000</ele><time>2010-07-07T11:31:32Z</time></trkpt>
	<trkpt lat="51.99813167" lon="-1.58222"><ele>122.000000</ele><time>2010-07-07T11:31:37Z</time></trkpt>
	<trkpt lat="51.99808167" lon="-1.582211667"><ele>122.000000</ele><time>2010-07-07T11:31:42Z</time></trkpt>
	<trkpt lat="51.99803167" lon="-1.58221"><ele>122.000000</ele><time>2010-07-07T11:31:47Z</time></trkpt>
	<trkpt lat="51.99798167" lon="-1.582206667"><ele>123.000000</ele><time>2010-07-07T11:31:52Z</time></trkpt>
	<trkpt lat="51.99792333" lon="-1.582205"><ele>122.000000</ele><time>2010-07-07T11:31:57Z</time></trkpt>
	<trkpt lat="51.99786667" lon="-1.582208333"><ele>121.000000</ele><time>2010-07-07T11:32:02Z</time></trkpt>
	<trkpt lat="51.99780667" lon="-1.582195"><ele>121.000000</ele><time>2010-07-07T11:32:07Z</time></trkpt>
	<trkpt lat="51.99775167" lon="-1.582181667"><ele>122.000000</ele><time>2010-07-07T11:32:12Z</time></trkpt>
	<trkpt lat="51.99770167" lon="-1.58217"><ele>123.000000</ele><time>2010-07-07T11:32:17Z</time></trkpt>
	<trkpt lat="51.99765667" lon="-1.582136667"><ele>126.000000</ele><time>2010-07-07T11:32:22Z</time></trkpt>
	<trkpt lat="51.99761" lon="-1.582155"><ele>125.000000</ele><time>2010-07-07T11:32:27Z</time></trkpt>
	<trkpt lat="51.997565" lon="-1.582155"><ele>124.000000</ele><time>2010-07-07T11:32:32Z</time></trkpt>
	<trkpt lat="51.99751333" lon="-1.582166667"><ele>123.000000</ele><time>2010-07-07T11:32:37Z</time></trkpt>
	<trkpt lat="51.99746167" lon="-1.582176667"><ele>123.000000</ele><time>2010-07-07T11:32:42Z</time></trkpt>
	<trkpt lat="51.997415" lon="-1.582178333"><ele>123.000000</ele><time>2010-07-07T11:32:47Z</time></trkpt>
	<trkpt lat="51.99737" lon="-1.582166667"><ele>123.000000</ele><time>2010-07-07T11:32:52Z</time></trkpt>
	<trkpt lat="51.99732" lon="-1.58216"><ele>123.000000</ele><time>2010-07-07T11:32:57Z</time></trkpt>
	<trkpt lat="51.99727167" lon="-1.58216"><ele>122.000000</ele><time>2010-07-07T11:33:02Z</time></trkpt>
	<trkpt lat="51.997245" lon="-1.582155"><ele>122.000000</ele><time>2010-07-07T11:33:07Z</time></trkpt>
	<trkpt lat="51.9972" lon="-1.582155"><ele>121.000000</ele><time>2010-07-07T11:33:12Z</time></trkpt>
	<trkpt lat="51.99715833" lon="-1.582143333"><ele>121.000000</ele><time>2010-07-07T11:33:17Z</time></trkpt>
	<trkpt lat="51.99710667" lon="-1.582133333"><ele>122.000000</ele><time>2010-07-07T11:33:22Z</time></trkpt>
	<trkpt lat="51.997065" lon="-1.58212"><ele>124.000000</ele><time>2010-07-07T11:33:27Z</time></trkpt>
	<trkpt lat="51.99703" lon="-1.582098333"><ele>127.000000</ele><time>2010-07-07T11:33:32Z</time></trkpt>
	<trkpt lat="51.99698833" lon="-1.58208"><ele>129.000000</ele><time>2010-07-07T11:33:37Z</time></trkpt>
	<trkpt lat="51.996945" lon="-1.582065"><ele>130.000000</ele><time>2010-07-07T11:33:42Z</time></trkpt>
	<trkpt lat="51.996855" lon="-1.582036667"><ele>124.000000</ele><time>2010-07-07T11:33:47Z</time></trkpt>
	<trkpt lat="51.99680667" lon="-1.582021667"><ele>124.000000</ele><time>2010-07-07T11:33:52Z</time></trkpt>
	<trkpt lat="51.99676" lon="-1.582003333"><ele>125.000000</ele><time>2010-07-07T11:33:57Z</time></trkpt>
	<trkpt lat="51.99671" lon="-1.58198"><ele>125.000000</ele><time>2010-07-07T11:34:02Z</time></trkpt>
	<trkpt lat="51.99666" lon="-1.581955"><ele>125.000000</ele><time>2010-07-07T11:34:07Z</time></trkpt>
	<trkpt lat="51.996625" lon="-1.581938333"><ele>128.000000</ele><time>2010-07-07T11:34:12Z</time></trkpt>
	<trkpt lat="51.99660333" lon="-1.581926667"><ele>134.000000</ele><time>2010-07-07T11:34:17Z</time></trkpt>
	<trkpt lat="51.996575" lon="-1.581906667"><ele>138.000000</ele><time>2010-07-07T11:34:22Z</time></trkpt>
	<trkpt lat="51.99654" lon="-1.58189"><ele>142.000000</ele><time>2010-07-07T11:34:27Z</time></trkpt>
	<trkpt lat="51.99649833" lon="-1.581873333"><ele>145.000000</ele><time>2010-07-07T11:34:32Z</time></trkpt>
	<trkpt lat="51.99645667" lon="-1.581855"><ele>147.000000</ele><time>2010-07-07T11:34:37Z</time></trkpt>
	<trkpt lat="51.996405" lon="-1.581838333"><ele>148.000000</ele><time>2010-07-07T11:34:42Z</time></trkpt>
	<trkpt lat="51.99633833" lon="-1.581815"><ele>146.000000</ele><time>2010-07-07T11:34:47Z</time></trkpt>
	<trkpt lat="51.99627" lon="-1.581798333"><ele>144.000000</ele><time>2010-07-07T11:34:52Z</time></trkpt>
	<trkpt lat="51.99620833" lon="-1.58178"><ele>144.000000</ele><time>2010-07-07T11:34:57Z</time></trkpt>
	<trkpt lat="51.99614667" lon="-1.581761667"><ele>142.000000</ele><time>2010-07-07T11:35:02Z</time></trkpt>
	<trkpt lat="51.99608667" lon="-1.581753333"><ele>141.000000</ele><time>2010-07-07T11:35:07Z</time></trkpt>
	<trkpt lat="51.99603" lon="-1.581748333"><ele>141.000000</ele><time>2010-07-07T11:35:12Z</time></trkpt>
	<trkpt lat="51.99595167" lon="-1.581735"><ele>138.000000</ele><time>2010-07-07T11:35:17Z</time></trkpt>
	<trkpt lat="51.99586167" lon="-1.58172"><ele>132.000000</ele><time>2010-07-07T11:35:22Z</time></trkpt>
	<trkpt lat="51.99583833" lon="-1.581726667"><ele>130.000000</ele><time>2010-07-07T11:35:27Z</time></trkpt>
	<trkpt lat="51.99578667" lon="-1.581746667"><ele>129.000000</ele><time>2010-07-07T11:35:32Z</time></trkpt>
	<trkpt lat="51.99573667" lon="-1.58176"><ele>128.000000</ele><time>2010-07-07T11:35:37Z</time></trkpt>
	<trkpt lat="51.99568667" lon="-1.581786667"><ele>129.000000</ele><time>2010-07-07T11:35:42Z</time></trkpt>
	<trkpt lat="51.99563833" lon="-1.581818333"><ele>130.000000</ele><time>2010-07-07T11:35:47Z</time></trkpt>
	<trkpt lat="51.99558667" lon="-1.581851667"><ele>131.000000</ele><time>2010-07-07T11:35:52Z</time></trkpt>
	<trkpt lat="51.99553167" lon="-1.581886667"><ele>131.000000</ele><time>2010-07-07T11:35:57Z</time></trkpt>
	<trkpt lat="51.995475" lon="-1.581911667"><ele>131.000000</ele><time>2010-07-07T11:36:02Z</time></trkpt>
	<trkpt lat="51.99542333" lon="-1.581941667"><ele>131.000000</ele><time>2010-07-07T11:36:07Z</time></trkpt>
	<trkpt lat="51.99536333" lon="-1.581966667"><ele>129.000000</ele><time>2010-07-07T11:36:12Z</time></trkpt>
	<trkpt lat="51.9953" lon="-1.581995"><ele>127.000000</ele><time>2010-07-07T11:36:17Z</time></trkpt>
	<trkpt lat="51.99522333" lon="-1.582018333"><ele>122.000000</ele><time>2010-07-07T11:36:22Z</time></trkpt>
	<trkpt lat="51.99513833" lon="-1.58204"><ele>117.000000</ele><time>2010-07-07T11:36:27Z</time></trkpt>
	<trkpt lat="51.99507167" lon="-1.582068333"><ele>115.000000</ele><time>2010-07-07T11:36:32Z</time></trkpt>
	<trkpt lat="51.99501833" lon="-1.582096667"><ele>114.000000</ele><time>2010-07-07T11:36:37Z</time></trkpt>
	<trkpt lat="51.99496667" lon="-1.582118333"><ele>113.000000</ele><time>2010-07-07T11:36:42Z</time></trkpt>
	<trkpt lat="51.99492667" lon="-1.582118333"><ele>113.000000</ele><time>2010-07-07T11:36:47Z</time></trkpt>
	<trkpt lat="51.99487667" lon="-1.582133333"><ele>113.000000</ele><time>2010-07-07T11:36:52Z</time></trkpt>
	<trkpt lat="51.99482833" lon="-1.582163333"><ele>113.000000</ele><time>2010-07-07T11:36:57Z</time></trkpt>
	<trkpt lat="51.994785" lon="-1.582183333"><ele>114.000000</ele><time>2010-07-07T11:37:02Z</time></trkpt>
	<trkpt lat="51.99474" lon="-1.582198333"><ele>113.000000</ele><time>2010-07-07T11:37:07Z</time></trkpt>
	<trkpt lat="51.994695" lon="-1.582216667"><ele>113.000000</ele><time>2010-07-07T11:37:12Z</time></trkpt>
	<trkpt lat="51.994665" lon="-1.582215"><ele>114.000000</ele><time>2010-07-07T11:37:17Z</time></trkpt>
	<trkpt lat="51.99461333" lon="-1.582233333"><ele>114.000000</ele><time>2010-07-07T11:37:22Z</time></trkpt>
	<trkpt lat="51.99453833" lon="-1.582245"><ele>111.000000</ele><time>2010-07-07T11:37:27Z</time></trkpt>
	<trkpt lat="51.994455" lon="-1.58225"><ele>105.000000</ele><time>2010-07-07T11:37:32Z</time></trkpt>
	<trkpt lat="51.994415" lon="-1.582263333"><ele>107.000000</ele><time>2010-07-07T11:37:37Z</time></trkpt>
	<trkpt lat="51.99437" lon="-1.582283333"><ele>107.000000</ele><time>2010-07-07T11:37:42Z</time></trkpt>
	<trkpt lat="51.99432667" lon="-1.58229"><ele>108.000000</ele><time>2010-07-07T11:37:47Z</time></trkpt>
	<trkpt lat="51.99428" lon="-1.582298333"><ele>109.000000</ele><time>2010-07-07T11:37:52Z</time></trkpt>
	<trkpt lat="51.994205" lon="-1.582326667"><ele>108.000000</ele><time>2010-07-07T11:37:57Z</time></trkpt>
	<trkpt lat="51.99413667" lon="-1.582355"><ele>107.000000</ele><time>2010-07-07T11:38:02Z</time></trkpt>
	<trkpt lat="51.99411667" lon="-1.582366667"><ele>107.000000</ele><time>2010-07-07T11:38:07Z</time></trkpt>
	<trkpt lat="51.99410667" lon="-1.582391667"><ele>108.000000</ele><time>2010-07-07T11:38:12Z</time></trkpt>
	<trkpt lat="51.99409833" lon="-1.582393333"><ele>109.000000</ele><time>2010-07-07T11:38:17Z</time></trkpt>
	<trkpt lat="51.99406" lon="-1.582395"><ele>109.000000</ele><time>2010-07-07T11:38:22Z</time></trkpt>
	<trkpt lat="51.99400833" lon="-1.582395"><ele>107.000000</ele><time>2010-07-07T11:38:27Z</time></trkpt>
	<trkpt lat="51.99396" lon="-1.58241"><ele>105.000000</ele><time>2010-07-07T11:38:32Z</time></trkpt>
	<trkpt lat="51.99391667" lon="-1.582418333"><ele>105.000000</ele><time>2010-07-07T11:38:37Z</time></trkpt>
	<trkpt lat="51.99390833" lon="-1.582403333"><ele>105.000000</ele><time>2010-07-07T11:38:42Z</time></trkpt>
	<trkpt lat="51.99391333" lon="-1.582395"><ele>107.000000</ele><time>2010-07-07T11:38:47Z</time></trkpt>
	<trkpt lat="51.99387" lon="-1.582398333"><ele>106.000000</ele><time>2010-07-07T11:38:52Z</time></trkpt>
	<trkpt lat="51.99381333" lon="-1.582403333"><ele>105.000000</ele><time>2010-07-07T11:38:57Z</time></trkpt>
	<trkpt lat="51.99376" lon="-1.582395"><ele>107.000000</ele><time>2010-07-07T11:39:02Z</time></trkpt>
	<trkpt lat="51.99370833" lon="-1.582388333"><ele>108.000000</ele><time>2010-07-07T11:39:07Z</time></trkpt>
	<trkpt lat="51.99366167" lon="-1.58238"><ele>110.000000</ele><time>2010-07-07T11:39:12Z</time></trkpt>
	<trkpt lat="51.993615" lon="-1.582373333"><ele>111.000000</ele><time>2010-07-07T11:39:17Z</time></trkpt>
	<trkpt lat="51.99358" lon="-1.582365"><ele>113.000000</ele><time>2010-07-07T11:39:22Z</time></trkpt>
	<trkpt lat="51.993585" lon="-1.582361667"><ele>113.000000</ele><time>2010-07-07T11:39:27Z</time></trkpt>
	<trkpt lat="51.99354667" lon="-1.582353333"><ele>115.000000</ele><time>2010-07-07T11:39:32Z</time></trkpt>
	<trkpt lat="51.99350167" lon="-1.582348333"><ele>117.000000</ele><time>2010-07-07T11:39:37Z</time></trkpt>
	<trkpt lat="51.99345333" lon="-1.582345"><ele>119.000000</ele><time>2010-07-07T11:39:42Z</time></trkpt>
	<trkpt lat="51.99339833" lon="-1.582333333"><ele>119.000000</ele><time>2010-07-07T11:39:47Z</time></trkpt>
	<trkpt lat="51.99335167" lon="-1.582311667"><ele>121.000000</ele><time>2010-07-07T11:39:52Z</time></trkpt>
	<trkpt lat="51.99330667" lon="-1.582298333"><ele>123.000000</ele><time>2010-07-07T11:39:57Z</time></trkpt>
	<trkpt lat="51.993265" lon="-1.582273333"><ele>125.000000</ele><time>2010-07-07T11:40:02Z</time></trkpt>
	<trkpt lat="51.993235" lon="-1.582258333"><ele>126.000000</ele><time>2010-07-07T11:40:07Z</time></trkpt>
	<trkpt lat="51.993205" lon="-1.582225"><ele>127.000000</ele><time>2010-07-07T11:40:12Z</time></trkpt>
	<trkpt lat="51.993185" lon="-1.58221"><ele>128.000000</ele><time>2010-07-07T11:40:17Z</time></trkpt>
	<trkpt lat="51.993175" lon="-1.582211667"><ele>127.000000</ele><time>2010-07-07T11:40:22Z</time></trkpt>
	<trkpt lat="51.99314833" lon="-1.58219"><ele>127.000000</ele><time>2010-07-07T11:40:27Z</time></trkpt>
	<trkpt lat="51.993105" lon="-1.582148333"><ele>127.000000</ele><time>2010-07-07T11:40:32Z</time></trkpt>
	<trkpt lat="51.99305167" lon="-1.582105"><ele>126.000000</ele><time>2010-07-07T11:40:37Z</time></trkpt>
	<trkpt lat="51.99300333" lon="-1.58206"><ele>126.000000</ele><time>2010-07-07T11:40:42Z</time></trkpt>
	<trkpt lat="51.99295333" lon="-1.582008333"><ele>126.000000</ele><time>2010-07-07T11:40:47Z</time></trkpt>
	<trkpt lat="51.992905" lon="-1.581955"><ele>125.000000</ele><time>2010-07-07T11:40:52Z</time></trkpt>
	<trkpt lat="51.99286667" lon="-1.58191"><ele>126.000000</ele><time>2010-07-07T11:40:57Z</time></trkpt>
	<trkpt lat="51.99282333" lon="-1.58186"><ele>127.000000</ele><time>2010-07-07T11:41:02Z</time></trkpt>
	<trkpt lat="51.99278667" lon="-1.581816667"><ele>126.000000</ele><time>2010-07-07T11:41:07Z</time></trkpt>
	<trkpt lat="51.99276833" lon="-1.581806667"><ele>126.000000</ele><time>2010-07-07T11:41:12Z</time></trkpt>
	<trkpt lat="51.99273" lon="-1.58177"><ele>126.000000</ele><time>2010-07-07T11:41:17Z</time></trkpt>
	<trkpt lat="51.99268833" lon="-1.581731667"><ele>126.000000</ele><time>2010-07-07T11:41:22Z</time></trkpt>
	<trkpt lat="51.99265" lon="-1.581686667"><ele>127.000000</ele><time>2010-07-07T11:41:27Z</time></trkpt>
	<trkpt lat="51.99260833" lon="-1.581651667"><ele>128.000000</ele><time>2010-07-07T11:41:32Z</time></trkpt>
	<trkpt lat="51.99256333" lon="-1.581623333"><ele>129.000000</ele><time>2010-07-07T11:41:37Z</time></trkpt>
	<trkpt lat="51.99251667" lon="-1.581605"><ele>129.000000</ele><time>2010-07-07T11:41:42Z</time></trkpt>
	<trkpt lat="51.99246333" lon="-1.581601667"><ele>127.000000</ele><time>2010-07-07T11:41:47Z</time></trkpt>
	<trkpt lat="51.9924" lon="-1.581591667"><ele>125.000000</ele><time>2010-07-07T11:41:52Z</time></trkpt>
	<trkpt lat="51.992335" lon="-1.581585"><ele>123.000000</ele><time>2010-07-07T11:41:57Z</time></trkpt>
	<trkpt lat="51.99229167" lon="-1.581581667"><ele>123.000000</ele><time>2010-07-07T11:42:02Z</time></trkpt>
	<trkpt lat="51.99223667" lon="-1.581578333"><ele>123.000000</ele><time>2010-07-07T11:42:07Z</time></trkpt>
	<trkpt lat="51.99219" lon="-1.58157"><ele>123.000000</ele><time>2010-07-07T11:42:12Z</time></trkpt>
	<trkpt lat="51.99213667" lon="-1.581566667"><ele>123.000000</ele><time>2010-07-07T11:42:17Z</time></trkpt>
	<trkpt lat="51.99209167" lon="-1.581578333"><ele>122.000000</ele><time>2010-07-07T11:42:22Z</time></trkpt>
	<trkpt lat="51.992025" lon="-1.581588333"><ele>120.000000</ele><time>2010-07-07T11:42:27Z</time></trkpt>
	<trkpt lat="51.99196833" lon="-1.581595"><ele>120.000000</ele><time>2010-07-07T11:42:32Z</time></trkpt>
	<trkpt lat="51.99191" lon="-1.581601667"><ele>120.000000</ele><time>2010-07-07T11:42:37Z</time></trkpt>
	<trkpt lat="51.99184667" lon="-1.58161"><ele>118.000000</ele><time>2010-07-07T11:42:42Z</time></trkpt>
	<trkpt lat="51.99178167" lon="-1.581616667"><ele>117.000000</ele><time>2010-07-07T11:42:47Z</time></trkpt>
	<trkpt lat="51.991725" lon="-1.581621667"><ele>117.000000</ele><time>2010-07-07T11:42:52Z</time></trkpt>
	<trkpt lat="51.99168333" lon="-1.581625"><ele>118.000000</ele><time>2010-07-07T11:42:57Z</time></trkpt>
	<trkpt lat="51.99162833" lon="-1.581626667"><ele>117.000000</ele><time>2010-07-07T11:43:02Z</time></trkpt>
	<trkpt lat="51.99159" lon="-1.581631667"><ele>119.000000</ele><time>2010-07-07T11:43:07Z</time></trkpt>
	<trkpt lat="51.991525" lon="-1.581635"><ele>117.000000</ele><time>2010-07-07T11:43:12Z</time></trkpt>
	<trkpt lat="51.99145" lon="-1.581638333"><ele>114.000000</ele><time>2010-07-07T11:43:17Z</time></trkpt>
	<trkpt lat="51.99139833" lon="-1.581636667"><ele>114.000000</ele><time>2010-07-07T11:43:22Z</time></trkpt>
	<trkpt lat="51.99134" lon="-1.581641667"><ele>114.000000</ele><time>2010-07-07T11:43:27Z</time></trkpt>
	<trkpt lat="51.99128667" lon="-1.58164"><ele>115.000000</ele><time>2010-07-07T11:43:32Z</time></trkpt>
	<trkpt lat="51.99124" lon="-1.581633333"><ele>115.000000</ele><time>2010-07-07T11:43:37Z</time></trkpt>
	<trkpt lat="51.99118667" lon="-1.581631667"><ele>114.000000</ele><time>2010-07-07T11:43:42Z</time></trkpt>
	<trkpt lat="51.99113" lon="-1.581621667"><ele>114.000000</ele><time>2010-07-07T11:43:47Z</time></trkpt>
	<trkpt lat="51.99107667" lon="-1.581613333"><ele>114.000000</ele><time>2010-07-07T11:43:52Z</time></trkpt>
	<trkpt lat="51.99100667" lon="-1.581606667"><ele>112.000000</ele><time>2010-07-07T11:43:57Z</time></trkpt>
	<trkpt lat="51.99095333" lon="-1.581591667"><ele>112.000000</ele><time>2010-07-07T11:44:02Z</time></trkpt>
	<trkpt lat="51.9909" lon="-1.581575"><ele>112.000000</ele><time>2010-07-07T11:44:07Z</time></trkpt>
	<trkpt lat="51.99085167" lon="-1.581555"><ele>113.000000</ele><time>2010-07-07T11:44:12Z</time></trkpt>
	<trkpt lat="51.9908" lon="-1.581523333"><ele>113.000000</ele><time>2010-07-07T11:44:17Z</time></trkpt>
	<trkpt lat="51.99074833" lon="-1.58149"><ele>113.000000</ele><time>2010-07-07T11:44:22Z</time></trkpt>
	<trkpt lat="51.99069833" lon="-1.581448333"><ele>113.000000</ele><time>2010-07-07T11:44:27Z</time></trkpt>
	<trkpt lat="51.99064833" lon="-1.581405"><ele>113.000000</ele><time>2010-07-07T11:44:32Z</time></trkpt>
	<trkpt lat="51.9906" lon="-1.58137"><ele>113.000000</ele><time>2010-07-07T11:44:37Z</time></trkpt>
	<trkpt lat="51.990555" lon="-1.581331667"><ele>114.000000</ele><time>2010-07-07T11:44:42Z</time></trkpt>
	<trkpt lat="51.99051333" lon="-1.58129"><ele>114.000000</ele><time>2010-07-07T11:44:47Z</time></trkpt>
	<trkpt lat="51.99047333" lon="-1.581253333"><ele>115.000000</ele><time>2010-07-07T11:44:52Z</time></trkpt>
	<trkpt lat="51.99042" lon="-1.581223333"><ele>114.000000</ele><time>2010-07-07T11:44:57Z</time></trkpt>
	<trkpt lat="51.99037" lon="-1.581176667"><ele>114.000000</ele><time>2010-07-07T11:45:02Z</time></trkpt>
	<trkpt lat="51.99031833" lon="-1.58114"><ele>115.000000</ele><time>2010-07-07T11:45:07Z</time></trkpt>
	<trkpt lat="51.99026667" lon="-1.5811"><ele>115.000000</ele><time>2010-07-07T11:45:12Z</time></trkpt>
	<trkpt lat="51.990215" lon="-1.581065"><ele>115.000000</ele><time>2010-07-07T11:45:17Z</time></trkpt>
	<trkpt lat="51.99016667" lon="-1.581031667"><ele>115.000000</ele><time>2010-07-07T11:45:22Z</time></trkpt>
	<trkpt lat="51.99011333" lon="-1.580996667"><ele>115.000000</ele><time>2010-07-07T11:45:27Z</time></trkpt>
	<trkpt lat="51.99006833" lon="-1.580965"><ele>116.000000</ele><time>2010-07-07T11:45:32Z</time></trkpt>
	<trkpt lat="51.99002167" lon="-1.580935"><ele>116.000000</ele><time>2010-07-07T11:45:37Z</time></trkpt>
	<trkpt lat="51.98997333" lon="-1.5809"><ele>116.000000</ele><time>2010-07-07T11:45:42Z</time></trkpt>
	<trkpt lat="51.98992833" lon="-1.580866667"><ele>116.000000</ele><time>2010-07-07T11:45:47Z</time></trkpt>
	<trkpt lat="51.98988333" lon="-1.580833333"><ele>117.000000</ele><time>2010-07-07T11:45:52Z</time></trkpt>
	<trkpt lat="51.98983667" lon="-1.5808"><ele>117.000000</ele><time>2010-07-07T11:45:57Z</time></trkpt>
	<trkpt lat="51.98979167" lon="-1.580763333"><ele>118.000000</ele><time>2010-07-07T11:46:02Z</time></trkpt>
	<trkpt lat="51.98974" lon="-1.580725"><ele>117.000000</ele><time>2010-07-07T11:46:07Z</time></trkpt>
	<trkpt lat="51.98969167" lon="-1.580688333"><ele>117.000000</ele><time>2010-07-07T11:46:12Z</time></trkpt>
	<trkpt lat="51.98964167" lon="-1.580646667"><ele>116.000000</ele><time>2010-07-07T11:46:17Z</time></trkpt>
	<trkpt lat="51.98959333" lon="-1.580611667"><ele>116.000000</ele><time>2010-07-07T11:46:22Z</time></trkpt>
	<trkpt lat="51.98954833" lon="-1.580571667"><ele>116.000000</ele><time>2010-07-07T11:46:27Z</time></trkpt>
	<trkpt lat="51.98950833" lon="-1.580535"><ele>117.000000</ele><time>2010-07-07T11:46:32Z</time></trkpt>
	<trkpt lat="51.98946667" lon="-1.580496667"><ele>117.000000</ele><time>2010-07-07T11:46:37Z</time></trkpt>
	<trkpt lat="51.98942" lon="-1.580461667"><ele>116.000000</ele><time>2010-07-07T11:46:42Z</time></trkpt>
	<trkpt lat="51.98937333" lon="-1.580425"><ele>116.000000</ele><time>2010-07-07T11:46:47Z</time></trkpt>
	<trkpt lat="51.98933167" lon="-1.580403333"><ele>115.000000</ele><time>2010-07-07T11:46:52Z</time></trkpt>
	<trkpt lat="51.989255" lon="-1.580421667"><ele>112.000000</ele><time>2010-07-07T11:46:57Z</time></trkpt>
	<trkpt lat="51.98921333" lon="-1.58044"><ele>115.000000</ele><time>2010-07-07T11:47:02Z</time></trkpt>
	<trkpt lat="51.989165" lon="-1.580476667"><ele>115.000000</ele><time>2010-07-07T11:47:07Z</time></trkpt>
	<trkpt lat="51.98911333" lon="-1.580508333"><ele>116.000000</ele><time>2010-07-07T11:47:12Z</time></trkpt>
	<trkpt lat="51.98907667" lon="-1.580553333"><ele>117.000000</ele><time>2010-07-07T11:47:17Z</time></trkpt>
	<trkpt lat="51.98903667" lon="-1.5806"><ele>117.000000</ele><time>2010-07-07T11:47:22Z</time></trkpt>
	<trkpt lat="51.98899833" lon="-1.580653333"><ele>117.000000</ele><time>2010-07-07T11:47:27Z</time></trkpt>
	<trkpt lat="51.98895667" lon="-1.580705"><ele>117.000000</ele><time>2010-07-07T11:47:32Z</time></trkpt>
	<trkpt lat="51.98891333" lon="-1.58074"><ele>118.000000</ele><time>2010-07-07T11:47:37Z</time></trkpt>
	<trkpt lat="51.98886833" lon="-1.580773333"><ele>118.000000</ele><time>2010-07-07T11:47:42Z</time></trkpt>
	<trkpt lat="51.98882167" lon="-1.580785"><ele>119.000000</ele><time>2010-07-07T11:47:47Z</time></trkpt>
	<trkpt lat="51.98877167" lon="-1.580781667"><ele>119.000000</ele><time>2010-07-07T11:47:52Z</time></trkpt>
	<trkpt lat="51.98871667" lon="-1.580755"><ele>119.000000</ele><time>2010-07-07T11:47:57Z</time></trkpt>
	<trkpt lat="51.98866667" lon="-1.580743333"><ele>120.000000</ele><time>2010-07-07T11:48:02Z</time></trkpt>
	<trkpt lat="51.988615" lon="-1.580735"><ele>120.000000</ele><time>2010-07-07T11:48:07Z</time></trkpt>
	<trkpt lat="51.98856167" lon="-1.580728333"><ele>119.000000</ele><time>2010-07-07T11:48:12Z</time></trkpt>
	<trkpt lat="51.988525" lon="-1.580728333"><ele>121.000000</ele><time>2010-07-07T11:48:17Z</time></trkpt>
	<trkpt lat="51.98853667" lon="-1.580728333"><ele>122.000000</ele><time>2010-07-07T11:48:22Z</time></trkpt>
</trkseg>
</trk>
</gpx>
